[[{"header":{"parameterUnit":"m.s-1","parameterCategory":1,"la1":30.6,"la2":29.2853,"lo1":-89.7004,"lo2":-87.6739,"dy":0.0162,"dx":0.0183,"nx":112,"ny":82,"refTime":"2023-07-24T12:00:00:Z","depth":0,"parameterNumber":2,"parameterNumberName":"U-component_of_WINDS"},"data":[0.0,0.0,0.0,0.0,0.0,0.0,0.0,0.0,0.0,0.0,0.0,0.0,0.0,0.0,0.0,0.0,0.0,0.0,0.0,0.0,0.0,0.0,0.0,0.0,0.0,0.0,0.0,0.0,0.0,0.0,0.0,0.0,0.0,0.0,0.0,0.0,0.0,0.0,0.0,0.0,0.0,0.0,0.0,0.0,0.0,0.0,0.0,0.0,0.0,0.0,0.0,0.0,0.0,0.0,0.0,0.0,0.0,0.0,0.0,0.0,0.0,0.0,0.0,0.0,0.0,0.0,0.0,0.0,0.0,0.0,0.0,0.0,0.0,0.0,0.0,0.0,0.0,0.0,0.0,0.0,0.0,0.0,0.0,0.0,0.0,0.0,0.0,0.0,0.0,0.0,1.151,1.2289,1.4986,1.7312,1.8794,1.8293,1.7487,1.6519,0.0,0.0,0.0,0.0,0.0,0.0,0.0,0.0,0.0,0.0,0.0,0.0,0.0,0.0,0.0,0.0,0.0,0.0,0.0,0.0,0.0,0.0,0.0,0.0,0.0,0.0,0.0,0.0,0.0,0.0,0.0,0.0,0.0,0.0,0.0,0.0,0.0,0.0,0.0,0.0,0.0,0.0,0.0,0.0,0.0,0.0,0.0,0.0,0.0,0.0,0.0,0.0,0.0,0.0,0.0,0.0,0.0,0.0,0.0,0.0,0.0,0.0,0.0,0.0,0.0,0.0,0.0,0.0,0.0,0.0,0.0,0.0,0.0,0.0,0.0,0.0,0.0,0.0,0.0,0.0,0.0,0.0,0.0,0.0,0.0,0.0,0.0,0.0,0.0,0.0,0.0,0.0,0.0,0.0,0.0,0.0,0.0,0.0,0.0,0.0,0.0,0.0,0.0,0.0,1.2429,1.3073,1.4777,1.6261,1.7183,1.5684,1.5011,1.5788,0.0,0.0,0.0,0.0,0.0,0.0,0.0,0.0,0.0,0.0,0.0,0.0,0.0,0.0,0.0,0.0,0.0,0.0,0.0,0.0,0.0,0.0,0.0,0.0,0.0,0.0,0.0,0.0,0.0,0.0,0.0,0.0,0.0,0.0,0.0,0.0,0.0,0.0,0.0,0.0,0.0,0.0,0.0,0.0,0.0,0.0,0.0,0.0,0.0,0.0,0.0,0.0,0.0,0.0,0.0,0.0,0.0,0.0,0.0,0.0,0.0,0.0,0.0,0.0,0.0,0.0,0.0,0.0,0.0,0.0,0.0,0.0,0.0,0.0,0.0,0.0,0.0,0.0,0.0,0.0,0.0,0.0,0.0,0.0,0.0,0.0,0.0,0.0,0.0,0.0,0.0,0.0,0.0,0.0,0.0,0.0,0.0,0.0,0.0,0.0,0.0,0.0,0.0,1.2307,1.2553,1.3227,1.474,1.6032,1.6835,1.5121,1.4495,1.5625,1.4511,0.0,0.0,0.0,0.0,0.0,0.0,0.0,0.0,0.0,0.0,0.0,0.0,0.0,0.0,0.0,0.0,0.0,0.0,0.0,0.0,0.0,0.0,0.0,0.0,0.0,0.0,0.0,0.0,0.0,0.0,0.0,0.0,0.0,0.0,0.0,0.0,0.0,0.0,0.0,0.0,0.0,0.0,0.0,0.0,0.0,0.0,0.0,0.0,0.0,0.0,0.0,0.0,0.0,0.0,0.0,0.0,0.0,0.0,0.0,0.0,0.0,0.0,0.0,0.0,0.0,0.0,0.0,0.0,0.0,0.0,0.0,0.0,0.0,0.0,0.0,0.0,0.0,0.0,0.0,0.0,0.0,0.0,0.0,0.0,0.0,0.0,0.0,0.0,0.0,0.0,0.0,0.0,0.0,0.0,0.0,0.0,0.0,0.0,0.0,0.0,0.0,0.0,1.2247,1.2327,1.2683,1.3994,1.5105,1.5716,1.4174,1.3727,1.5047,1.3221,0.0,0.0,0.0,0.0,0.0,0.0,0.0,0.0,0.0,0.0,0.0,0.0,0.0,0.0,0.0,0.0,0.0,0.0,0.0,0.0,0.0,0.0,0.0,0.0,0.0,0.0,0.0,0.0,0.0,0.0,0.0,0.0,0.0,0.0,0.0,0.0,0.0,0.0,0.0,0.0,0.0,0.0,0.0,0.0,0.0,0.0,0.0,0.0,0.0,0.0,0.0,0.0,0.0,0.0,0.0,0.0,0.0,0.0,0.0,0.0,0.0,0.0,0.0,0.0,0.0,0.0,0.0,0.0,0.0,0.0,0.0,0.0,0.0,0.0,0.0,0.0,0.0,0.0,0.0,0.0,0.0,0.0,0.0,0.0,0.0,0.0,0.0,0.0,0.0,0.0,0.0,0.0,0.0,0.0,0.0,0.0,0.0,0.0,0.0,0.0,0.0,0.0,1.2229,1.1847,1.1141,1.1838,1.2379,1.2434,1.1403,1.1524,1.3352,1.2216,0.0,0.0,0.0,0.0,0.0,0.0,0.0,0.0,0.0,0.0,0.0,0.0,0.0,0.0,0.0,0.0,0.0,0.0,0.0,0.0,0.0,0.0,0.0,0.0,0.0,0.0,0.0,0.0,0.0,0.0,0.0,0.0,0.0,0.0,0.0,0.0,0.0,0.0,0.0,0.0,0.0,0.0,0.0,0.0,0.0,0.0,0.0,0.0,0.0,0.0,0.0,0.0,0.0,0.0,0.0,0.0,0.0,0.0,0.0,0.0,0.0,0.0,0.0,0.0,0.0,0.0,0.0,0.0,0.0,0.0,0.0,0.0,0.0,0.0,0.0,0.0,0.0,0.0,0.0,0.0,0.0,0.0,0.0,0.0,0.0,0.0,0.0,0.0,0.0,0.0,0.0,0.0,0.0,0.0,0.0,0.0,0.0,0.0,0.0,0.0,0.0,0.0,1.2261,1.1838,1.0994,1.2067,1.2655,1.2141,1.1544,1.179,1.3214,0.0,0.0,0.0,0.0,0.0,0.0,0.0,0.0,0.0,0.0,0.0,0.0,0.0,0.0,0.0,0.0,0.0,0.0,0.0,0.0,0.0,0.0,0.0,0.0,0.0,0.0,0.0,0.0,0.0,0.0,0.0,0.0,0.0,0.0,0.0,0.0,0.0,0.0,0.0,0.0,0.0,0.0,0.0,0.0,0.0,0.0,0.0,0.0,0.0,0.0,0.0,0.0,0.0,0.0,0.0,0.0,0.0,0.0,0.0,0.0,0.0,0.0,0.0,0.0,0.0,0.0,0.0,0.0,0.0,0.0,0.0,0.0,0.0,0.0,0.0,0.0,0.0,0.0,0.0,0.0,0.0,0.0,0.0,0.0,0.0,0.0,0.0,0.0,0.0,0.0,0.0,0.0,0.0,0.0,0.0,0.0,0.0,0.0,0.0,0.0,0.0,0.0,1.2813,1.2644,1.2133,1.1021,1.1884,1.2205,1.1407,1.1252,1.1714,1.2846,0.0,0.0,0.0,0.0,0.0,0.0,0.0,0.0,0.0,0.0,0.0,0.0,0.0,0.0,0.0,0.0,0.0,0.0,0.0,0.0,0.0,0.0,0.0,0.0,0.0,0.0,0.0,0.0,0.0,0.0,0.0,0.0,0.0,0.0,0.0,0.0,0.0,0.0,0.0,0.0,0.0,0.0,0.0,0.0,0.0,0.0,0.0,0.0,0.0,0.0,0.0,0.0,0.0,0.0,0.0,0.0,0.0,0.0,0.0,0.0,0.0,0.0,0.0,0.0,0.0,0.0,0.0,0.0,0.0,0.0,0.0,0.0,0.0,0.0,0.0,0.0,0.0,0.0,0.0,0.0,0.0,0.0,0.0,0.0,0.0,0.0,0.0,0.0,0.0,0.0,0.0,0.0,0.0,0.0,0.0,0.0,0.0,0.0,0.0,0.0,0.0,0.0,1.3709,1.3421,1.2692,1.1077,1.0921,1.06,0.979,1.0155,1.0912,0.0,0.0,0.0,0.0,0.0,0.0,0.0,0.0,0.0,0.0,0.0,0.0,0.0,0.0,0.0,0.0,0.0,0.0,0.0,0.0,0.0,0.0,0.0,0.0,0.0,0.0,0.0,0.0,0.0,0.0,0.0,0.0,0.0,0.0,0.0,0.0,0.0,0.0,0.0,0.0,0.0,0.0,0.0,0.0,0.0,0.0,0.0,0.0,0.0,0.0,0.0,0.0,0.0,0.0,0.0,0.0,0.0,0.0,0.0,0.0,0.0,0.0,0.0,0.0,0.0,0.0,0.0,0.0,0.0,0.0,0.0,0.0,0.0,0.0,0.0,0.0,0.0,0.0,0.0,0.0,0.0,0.0,0.0,0.0,0.0,0.0,0.0,0.0,0.0,0.0,0.0,0.0,0.0,0.0,0.0,0.0,0.0,0.0,0.0,0.0,0.0,0.0,0.0,1.3624,1.3421,1.2903,1.1856,1.2251,1.227,1.1452,1.1774,1.2285,1.291,0.0,0.0,0.0,0.0,0.0,0.0,0.0,0.0,0.0,0.0,0.0,0.0,0.0,0.0,0.0,0.0,0.0,0.0,0.0,0.0,0.0,0.0,0.0,0.0,0.0,0.0,0.0,0.0,0.0,0.0,0.0,0.0,0.0,0.0,0.0,0.0,0.0,0.0,0.0,0.0,0.0,0.0,0.0,0.0,0.0,0.0,0.0,0.0,0.0,0.0,0.0,0.0,0.0,0.0,0.0,0.0,0.0,0.0,0.0,0.0,0.0,0.0,0.0,0.0,0.0,0.0,0.0,0.0,0.0,0.0,0.0,0.0,0.0,0.0,0.0,0.0,0.0,0.0,0.0,0.0,0.0,0.0,0.0,0.0,0.0,0.0,0.0,0.0,0.0,0.0,0.0,0.0,0.0,0.0,0.0,0.0,0.0,0.0,0.0,0.0,0.0,0.0,1.4127,1.3923,1.3473,1.2665,1.3014,1.2968,1.2168,1.2463,1.2848,1.3163,0.0,0.0,0.0,0.0,0.0,0.0,0.0,0.0,0.0,0.0,0.0,0.0,0.0,0.0,0.0,0.0,0.0,0.0,0.0,0.0,0.0,0.0,0.0,0.0,0.0,0.0,0.0,0.0,0.0,0.0,0.0,0.0,0.0,0.0,0.0,0.0,0.0,0.0,0.0,0.0,0.0,0.0,0.0,0.0,0.0,0.0,0.0,0.0,0.0,0.0,0.0,0.0,0.0,0.0,0.0,0.0,0.0,0.0,0.0,0.0,0.0,0.0,0.0,0.0,0.0,0.0,0.0,0.0,0.0,0.0,0.0,0.0,0.0,0.0,0.0,0.0,0.0,0.0,0.0,0.0,0.0,0.0,0.0,0.0,0.0,0.0,0.0,0.0,0.0,0.0,0.0,0.0,0.0,0.0,0.0,0.0,0.0,0.0,0.0,0.0,0.0,0.0,1.4904,1.4665,1.4224,1.3491,1.3409,1.3124,1.2379,1.2639,1.2921,1.3106,0.0,0.0,0.0,0.0,0.0,0.0,0.0,0.0,0.0,0.0,0.0,0.0,0.0,0.0,0.0,0.0,0.0,0.0,0.0,0.0,0.0,0.0,0.0,0.0,0.0,0.0,0.0,0.0,0.0,0.0,0.0,0.0,0.0,0.0,0.0,0.0,0.0,0.0,0.0,0.0,0.0,0.0,0.0,0.0,0.0,0.0,0.0,0.0,0.0,0.0,0.0,0.0,0.0,0.0,0.0,0.0,0.0,0.0,0.0,0.0,1.7014,1.6852,0.0,0.0,0.0,0.0,0.0,0.0,0.0,0.0,0.0,0.0,0.0,0.0,0.0,0.0,0.0,0.0,0.0,0.0,0.0,0.0,0.0,0.0,0.0,0.0,0.0,0.0,0.0,0.0,0.0,0.0,0.0,0.0,0.0,0.0,0.0,0.0,0.0,0.0,0.0,0.0,1.4904,1.4665,1.4423,1.4261,1.4242,1.4178,1.3992,1.3917,1.3897,1.3936,1.3853,0.0,0.0,0.0,0.0,0.0,0.0,0.0,0.0,0.0,0.0,0.0,0.0,0.0,0.0,0.0,0.0,0.0,0.0,0.0,0.0,0.0,0.0,0.0,0.0,0.0,0.0,0.0,0.0,0.0,0.0,0.0,0.0,0.0,0.0,0.0,0.0,0.0,0.0,0.0,0.0,0.0,0.0,0.0,0.0,0.0,0.0,0.0,0.0,0.0,0.0,0.0,0.0,0.0,0.0,0.0,0.0,0.0,0.0,0.0,1.8329,1.7811,0.0,0.0,0.0,0.0,0.0,0.0,0.0,0.0,0.0,0.0,0.0,0.0,0.0,0.0,0.0,0.0,0.0,0.0,0.0,0.0,0.0,0.0,0.0,0.0,0.0,0.0,0.0,0.0,0.0,0.0,0.0,0.0,0.0,0.0,0.0,0.0,0.0,0.0,0.0,0.0,1.4904,1.4665,1.4497,1.4497,1.4497,1.4497,1.4497,1.4316,1.4162,1.406,1.3862,0.0,0.0,0.0,0.0,0.0,0.0,0.0,0.0,0.0,0.0,0.0,0.0,0.0,0.0,0.0,0.0,0.0,0.0,0.0,0.0,0.0,0.0,0.0,0.0,0.0,0.0,0.0,0.0,0.0,0.0,0.0,0.0,0.0,0.0,0.0,0.0,0.0,0.0,0.0,0.0,0.0,0.0,0.0,0.0,0.0,0.0,0.0,0.0,0.0,0.0,0.0,0.0,0.0,2.0596,2.0684,2.0801,1.9922,1.9931,2.0581,1.976,1.8931,1.8205,1.8992,0.0,0.0,0.0,0.0,0.0,0.0,0.0,0.0,0.0,0.0,0.0,0.0,0.0,0.0,0.0,0.0,0.0,0.0,0.0,0.0,0.0,0.0,1.5354,1.6084,1.639,1.7109,1.936,0.0,0.0,0.0,0.0,0.0,0.0,0.0,0.0,0.0,0.0,0.0,1.4904,1.4665,1.4497,1.4497,1.4497,1.4497,1.4497,1.435,1.4149,1.3904,1.3736,1.3572,0.0,0.0,0.0,0.0,0.0,0.0,0.0,0.0,0.0,0.0,0.0,0.0,0.0,0.0,0.0,0.0,0.0,0.0,0.0,0.0,0.0,0.0,0.0,0.0,0.0,0.0,0.0,0.0,0.0,0.0,0.0,0.0,2.0593,2.0596,0.0,0.0,0.0,0.0,0.0,0.0,0.0,0.0,0.0,0.0,0.0,0.0,0.0,2.0537,2.043,2.0537,2.0596,2.0596,2.0596,2.0996,2.1699,2.083,2.083,2.148,2.0621,0.0,1.9975,2.009,0.0,0.0,0.0,0.0,0.0,0.0,0.0,0.0,0.0,0.0,0.0,0.0,0.0,0.0,0.0,0.0,0.0,0.0,0.0,0.0,0.0,0.0,1.5207,1.5947,1.6317,1.6782,1.7821,1.8042,1.827,1.9021,1.8376,1.7702,0.0,0.0,0.0,0.0,0.0,0.0,1.4904,1.4665,1.4497,1.4497,1.4497,1.4497,1.4497,1.4485,1.4295,1.3918,1.3885,1.3717,1.3413,1.3405,0.0,0.0,0.0,0.0,0.0,0.0,0.0,0.0,0.0,0.0,0.0,0.0,0.0,0.0,0.0,0.0,0.0,0.0,0.0,0.0,0.0,0.0,0.0,0.0,0.0,0.0,0.0,0.0,0.0,2.047,2.0492,2.0492,2.0466,2.0463,0.0,0.0,0.0,0.0,0.0,0.0,0.0,0.0,0.0,2.0596,2.0596,2.084,2.1328,2.1328,2.1582,2.206,2.2021,2.2217,2.2617,2.2197,2.2177,2.2462,2.2038,2.1551,2.0991,2.0494,2.0302,2.0302,0.0,0.0,0.0,0.0,2.017,2.0125,1.9888,1.9543,1.9218,1.9132,0.0,0.0,0.0,0.0,0.0,0.0,0.0,1.8215,1.7495,1.6583,1.5898,1.6063,1.5932,1.5868,1.6224,1.6292,1.6686,1.801,1.7606,1.7167,1.7626,1.6628,0.0,0.0,0.0,1.4942,1.4903,1.4727,1.458,1.4508,1.4497,1.4497,1.4497,1.4497,1.4329,1.3927,1.3904,1.3756,1.3413,1.3405,1.3803,0.0,0.0,0.0,0.0,0.0,0.0,0.0,0.0,0.0,0.0,0.0,0.0,0.0,0.0,0.0,0.0,0.0,0.0,0.0,0.0,0.0,0.0,0.0,0.0,0.0,0.0,0.0,0.0,2.04,2.04,2.04,2.0381,2.0392,0.0,0.0,0.0,0.0,0.0,0.0,2.0596,2.081,2.0928,2.0928,2.1152,2.1572,2.2197,2.2217,2.2549,2.3174,2.3115,2.3242,2.3496,2.3242,2.3237,2.3423,2.313,2.2591,2.1857,2.0966,2.0494,2.0302,2.0302,2.0302,2.0285,2.0241,2.0223,2.0209,2.0156,2.0132,2.0118,1.9961,1.9773,1.9609,1.9723,0.0,0.0,0.0,0.0,1.8914,1.8505,1.7606,1.6752,1.6534,1.6147,1.5782,1.558,1.5532,1.5897,1.7148,1.6724,1.6426,1.7244,1.6167,0.0,1.607,1.5489,1.4965,1.4913,1.4756,1.4603,1.452,1.4497,1.4497,1.4497,1.4443,1.427,1.3918,1.3847,1.3696,1.3413,1.3405,1.3905,1.4985,0.0,0.0,0.0,0.0,0.0,0.0,0.0,0.0,0.0,0.0,0.0,0.0,0.0,0.0,0.0,0.0,0.0,0.0,0.0,0.0,0.0,0.0,0.0,0.0,0.0,0.0,0.0,0.0,0.0,2.0404,2.0346,0.0,0.0,0.0,0.0,2.0585,2.0596,2.0596,2.0596,2.1377,2.1826,2.1826,2.2637,2.3057,2.3037,2.3096,2.3115,2.3096,2.3096,2.3535,2.4307,2.3535,2.3613,2.4277,2.339,2.2937,2.2756,2.1832,2.0994,2.0302,2.0302,2.0302,2.0277,2.0088,2.0022,2.0107,2.0797,2.1034,2.1,2.0792,2.0215,1.9605,1.9605,1.9788,0.0,0.0,1.9322,1.8914,1.8505,1.8023,1.7617,1.7538,1.7545,1.7359,1.6599,1.6426,1.6455,1.6542,1.5859,1.5541,1.6407,0.0,1.5209,1.5257,1.5061,1.4903,1.4904,1.4676,1.4508,1.4497,1.4497,1.4497,1.4497,1.432,1.4114,1.3904,1.373,1.3556,1.3421,1.3405,1.4082,1.553,1.5838,0.0,0.0,0.0,0.0,0.0,0.0,0.0,0.0,0.0,0.0,0.0,0.0,0.0,0.0,0.0,0.0,0.0,0.0,0.0,0.0,0.0,0.0,0.0,0.0,0.0,0.0,0.0,0.0,2.034,2.0312,0.0,2.1091,2.1204,2.1245,2.124,2.1842,2.1954,2.1396,2.2197,2.2666,2.2666,2.3018,2.3437,2.3926,2.3965,2.4238,2.4766,2.4766,2.4941,2.5234,2.4941,2.4971,2.5224,2.4843,2.4342,2.3765,2.339,2.2708,2.1908,2.1908,2.1908,2.1908,2.1826,2.1798,2.1828,2.2005,2.2076,2.1958,2.1224,2.0806,2.0465,1.9895,1.9858,1.9964,1.9776,1.9772,1.9746,1.9388,1.8926,1.8476,1.8241,1.787,1.7329,1.6434,1.6647,1.6704,1.5665,1.5321,1.5484,1.6349,1.5782,1.5397,1.5955,1.5868,1.5721,1.5678,1.5967,1.614,1.605,1.6037,1.6037,1.6037,1.5976,1.5795,1.5469,1.5381,1.5175,1.4827,1.436,1.48,1.6284,1.595,1.6487,0.0,0.0,0.0,0.0,0.0,0.0,0.0,0.0,0.0,0.0,0.0,0.0,0.0,0.0,0.0,0.0,0.0,0.0,0.0,0.0,0.0,0.0,0.0,0.0,0.0,2.0563,2.0749,2.0772,2.0993,2.137,2.1947,2.2068,2.2103,2.2071,2.2711,2.2852,2.2266,2.3069,2.3535,2.3535,2.3867,2.4297,2.4834,2.4844,2.5127,2.5703,2.5703,2.5703,2.5703,2.5703,2.5703,2.5703,2.5634,2.5265,2.4698,2.463,2.4226,2.3591,2.3014,2.2793,2.2793,2.2793,2.2793,2.2832,2.3026,2.3061,2.2893,2.2232,2.1602,2.0987,2.0417,2.0129,1.9974,1.9836,2.0231,2.057,1.9954,1.9792,1.9637,1.907,1.8597,1.8022,1.7101,1.7334,1.7229,1.5612,1.541,1.5596,1.5907,1.5486,1.5288,1.5869,1.6047,1.6074,1.6043,1.6623,1.6999,1.6913,1.6899,1.6899,1.6899,1.6835,1.666,1.6311,1.6236,1.6019,1.5615,1.513,1.5451,1.6682,1.6458,1.6821,1.7803,0.0,0.0,0.0,0.0,0.0,0.0,0.0,0.0,0.0,0.0,0.0,0.0,0.0,0.0,0.0,0.0,0.0,0.0,0.0,0.0,0.0,0.0,0.0,2.0568,2.1148,2.1671,2.173,2.2368,2.286,2.3023,2.2986,2.2975,2.3033,2.3124,2.3155,2.3141,2.3955,2.4443,2.4443,2.5264,2.5703,2.5703,2.5703,2.5703,2.5703,2.5703,2.5703,2.5703,2.5703,2.5703,2.5703,2.5635,2.5572,2.5498,2.5432,2.5361,2.5139,2.3514,2.2879,2.2879,2.2879,2.2879,2.2995,2.3841,2.4004,2.3842,2.3823,2.2616,2.1188,2.1159,2.0623,2.0002,1.9873,2.0612,2.1204,2.0115,2.0556,2.1038,2.0061,1.9826,1.9581,1.868,1.852,1.8049,1.644,1.6148,1.5894,1.5046,1.4904,1.4913,1.4932,1.5515,0.0,1.5969,1.6558,1.6972,1.6972,1.6972,1.6972,1.6968,1.6791,1.6579,1.6365,1.6177,1.5952,1.5683,1.5646,1.5959,1.669,1.7422,1.7803,1.7803,0.0,0.0,0.0,0.0,0.0,0.0,0.0,0.0,0.0,0.0,0.0,0.0,0.0,0.0,0.0,0.0,0.0,0.0,0.0,0.0,0.0,2.1721,2.1749,2.1396,2.2086,2.2598,2.257,2.2752,2.3121,2.3744,2.3812,2.383,2.3802,2.4396,2.451,2.393,2.472,2.522,2.5273,2.5547,2.5703,2.5703,2.5703,2.5703,2.5703,2.5703,2.5703,2.5703,2.5703,2.5703,2.5703,2.5684,2.5631,2.5571,2.5499,2.5428,2.5322,2.4812,2.4611,2.4611,2.4611,2.4611,2.4649,2.4889,2.4937,2.4792,2.4207,2.3578,2.2939,2.231,2.1466,2.0724,2.0677,2.0481,2.0337,2.0594,2.088,2.0991,2.0609,2.0531,2.0098,1.855,1.867,1.8606,1.6993,1.715,1.6994,1.5217,1.4904,1.5093,1.5678,1.6337,1.6971,1.7566,1.8232,1.8638,1.8638,1.8638,1.8587,1.8433,1.8375,1.8154,1.7703,1.7633,1.7472,1.7202,1.6678,1.6495,1.6699,1.7422,1.7892,0.0,0.0,0.0,0.0,0.0,0.0,0.0,0.0,0.0,0.0,0.0,0.0,0.0,0.0,0.0,0.0,0.0,0.0,0.0,0.0,0.0,0.0,2.2178,2.2489,2.2747,2.3225,2.3531,2.3495,2.3755,2.413,2.4601,2.4649,2.4639,2.4611,2.5101,2.5196,2.4728,2.521,2.5532,2.5596,2.5644,2.5674,2.5703,2.5703,2.5703,2.5703,2.5703,2.5703,2.5703,2.5703,2.5703,2.5703,2.5704,2.5655,2.5561,2.5514,2.5443,2.5341,0.0,0.0,0.0,0.0,2.5293,2.5293,2.5293,2.5293,2.5216,2.4745,2.4303,2.3828,2.3321,2.2213,2.1206,2.1526,2.1008,2.0432,2.0812,2.1174,2.1208,2.0372,2.0424,2.0292,1.8906,1.8968,1.8913,1.7642,1.7784,0.0,1.6007,1.5741,1.59,1.6366,1.7046,1.769,1.8162,1.8844,1.9305,1.9305,1.9305,1.9221,1.9027,1.8993,0.0,0.0,0.0,1.807,1.7811,1.7388,0.0,0.0,0.0,1.7869,1.8027,1.8499,0.0,0.0,1.8955,1.9231,0.0,0.0,0.0,0.0,0.0,0.0,0.0,0.0,0.0,0.0,0.0,0.0,0.0,0.0,0.0,0.0,2.276,2.3524,2.4317,2.4442,2.4427,2.4417,2.4995,2.5399,2.539,2.5322,2.5293,2.5293,2.5361,2.539,2.539,2.5466,0.0,0.0,0.0,2.5644,2.5703,2.5703,2.5703,2.5703,2.5703,2.5703,2.5703,2.5703,2.5703,2.5697,2.5691,2.5624,2.5507,2.5488,2.5403,2.5293,2.5293,2.5293,2.5293,2.5293,2.5293,2.5293,2.5293,0.0,0.0,2.5293,2.4803,2.4207,2.4207,2.2968,2.1678,2.2294,2.1808,2.1082,2.0989,2.1413,2.1509,2.008,2.0131,2.0292,1.9583,1.9354,1.9087,1.8372,1.8243,1.8014,1.7284,1.7018,1.6936,1.7018,1.7633,1.8133,1.8225,1.8858,1.9305,1.9305,1.9305,0.0,1.9027,1.8966,1.8734,1.8229,1.8166,1.8048,1.7811,1.7811,1.7811,1.7811,1.7811,1.7811,1.7811,1.7873,1.7929,1.7963,1.9799,2.0134,0.0,0.0,0.0,0.0,0.0,0.0,0.0,0.0,0.0,0.0,0.0,0.0,0.0,0.0,0.0,2.3496,2.3925,2.435,2.5152,2.5265,2.5248,2.5188,2.5303,2.538,2.5312,2.5303,2.5293,2.5293,2.5303,2.5312,2.5312,2.5428,2.5514,2.5522,2.5622,2.5693,2.5703,2.5703,2.5703,2.5703,2.5703,0.0,2.5703,2.5703,2.5697,2.5696,2.5636,2.5599,2.557,2.5464,2.537,2.5293,2.5293,2.5293,2.5293,2.5293,2.5293,2.5293,2.5293,2.5293,2.5293,2.5293,2.5088,2.4838,2.4838,2.4017,0.0,2.247,2.1743,2.1239,2.1855,2.1517,2.1276,2.2294,2.1486,2.0457,2.0292,1.9757,1.9243,1.9097,1.906,1.9014,1.8858,1.7766,1.7119,1.7761,1.8005,1.8335,1.8977,1.9198,1.9305,1.9305,1.9305,1.9221,1.9027,1.8789,1.8547,1.8208,1.7992,1.7847,1.7811,1.7811,1.7811,1.7811,1.7811,1.7811,1.7811,1.8403,1.8682,1.8674,1.8489,1.8321,0.0,0.0,0.0,0.0,0.0,0.0,0.0,0.0,0.0,0.0,0.0,2.1784,2.2217,0.0,2.2714,2.3991,2.4229,2.4533,2.5342,2.5473,2.5486,2.5409,2.5399,2.537,2.5303,2.5293,2.5293,2.5293,2.5293,2.5293,2.5293,2.5361,2.5418,2.5448,2.5513,2.5567,2.5601,2.5601,2.5601,2.5601,2.5601,2.5624,2.5654,2.5654,2.567,2.5698,2.5662,2.563,2.5591,2.5466,2.5361,2.5293,2.5293,2.5293,2.5293,2.5293,2.5293,2.5293,2.5293,2.5293,2.5293,2.5293,2.5234,2.5152,2.5152,2.445,2.3644,2.3651,2.271,2.179,2.2195,2.1845,2.1408,2.1431,2.0964,2.0383,1.9996,1.9574,1.9305,1.9305,1.9305,1.9305,1.9305,1.8629,1.8243,1.8638,1.8611,1.8697,1.9104,1.9033,1.8947,1.8947,1.8947,1.8842,1.8623,1.8351,1.8146,1.8014,1.7861,1.7811,1.7811,1.7811,1.7811,1.7811,1.8166,1.8352,1.8352,1.9096,1.946,1.9452,1.9056,1.9005,0.0,0.0,0.0,0.0,0.0,0.0,0.0,2.1433,2.1965,2.2081,2.2651,2.3237,2.3581,2.364,2.3923,2.4785,2.4785,2.4908,2.5534,2.5534,2.5438,2.539,2.539,2.537,2.5303,2.5293,2.5293,2.5293,2.5293,2.5293,2.5293,2.5303,2.534,2.5396,2.5413,2.545,2.55,2.55,2.55,2.55,2.55,2.5526,2.5582,2.5594,2.5635,2.5683,2.5681,2.5642,2.557,2.5457,2.539,2.5332,2.5332,2.5322,2.5312,2.5293,2.5293,2.5293,2.5293,2.5293,2.5293,2.5293,2.5293,2.5293,2.5293,2.4724,2.4189,2.4694,2.3764,2.2654,2.2646,2.238,2.1826,2.0697,2.0527,2.0465,1.9945,1.958,1.9381,1.9516,1.9399,1.9305,1.9305,1.9305,1.9305,1.9305,1.9166,1.9035,1.901,1.8807,1.8651,1.8613,1.8594,1.8489,1.8229,1.8005,1.7856,1.7803,1.7938,1.8022,1.8022,1.8158,1.8242,1.8242,1.8817,1.9113,1.9122,1.9875,2.0221,2.023,2.0425,2.0473,1.7731,1.8383,1.9386,2.0975,2.1379,2.16,0.0,2.2702,2.2982,2.3755,2.3947,2.4437,2.5992,2.6274,2.6535,2.7354,2.689,2.6437,2.6467,2.5813,2.5312,2.5303,2.5361,2.537,2.5303,2.5293,2.5293,2.5293,2.5293,2.5293,2.5293,2.5361,2.5399,2.5409,2.5466,2.5486,2.5495,2.5495,2.5495,2.5495,2.5495,2.5504,2.551,2.5566,2.5596,2.5605,2.5613,2.5566,2.5506,2.5491,2.5486,2.5486,2.5486,2.5438,2.538,2.5312,2.5293,2.5293,2.5293,2.5293,2.5293,2.5293,2.5293,2.5293,2.5293,2.5226,2.5005,2.438,2.4053,2.39,2.39,2.3215,2.2667,2.3198,2.2151,2.1157,2.1596,2.0572,1.9727,2.0266,1.9794,1.9305,1.9305,1.9305,1.9305,1.9305,1.9274,1.9205,1.9018,1.8966,1.8869,1.8632,1.8594,1.8489,1.8229,1.8166,1.8048,1.7811,1.8411,1.8775,1.8775,1.9418,1.9748,1.9748,1.9824,1.9875,1.9875,2.0678,2.1085,2.1094,2.1988,2.1567,1.8831,1.9648,2.0649,2.1939,2.2639,2.3244,2.41,2.4687,2.5159,2.5522,2.5984,2.6523,2.7263,2.74,2.7333,2.7169,2.6861,2.6447,2.5928,2.5524,2.513,2.4659,2.463,2.4822,2.5255,2.5293,2.5293,2.5293,2.5293,2.5293,2.5293,2.5322,2.5332,2.5332,2.537,2.538,2.538,2.538,2.538,2.538,2.538,2.5399,2.5447,2.5476,2.5531,2.5596,2.5596,2.5584,2.5559,2.5564,2.5541,2.5495,2.5495,2.5476,2.5452,2.5379,2.5322,2.5293,2.5293,2.5293,2.5293,2.5293,2.5293,2.5293,2.5293,2.5293,2.5206,2.4751,2.4624,2.4487,2.3898,2.3382,2.2956,2.2792,2.2106,2.1584,2.1835,2.0954,2.02,2.0446,2.0235,1.9801,1.9241,1.988,2.0246,1.9624,1.9288,1.9102,1.901,1.8734,1.843,1.8166,1.8125,1.8263,1.8569,1.8611,1.8731,1.9071,1.9384,1.9529,1.9529,1.9833,2.0002,2.0002,2.0467,2.0703,2.0703,2.1465,2.1837,2.1845,2.2281,2.2058,1.953,2.0649,2.1838,2.3031,2.4022,2.4926,2.5721,2.6455,2.7024,2.7236,2.7621,2.7967,2.8188,2.8044,2.7688,2.7063,2.6765,2.638,2.5755,2.5264,2.4841,2.4466,2.4245,2.4331,2.4909,2.4976,2.4976,2.4976,2.5168,2.5293,2.5293,2.5293,2.5293,2.5293,2.5293,2.5293,2.5293,2.5293,2.5293,2.5293,2.5293,2.5322,2.537,2.539,2.5461,2.5569,2.5593,2.5596,2.5596,2.5615,2.5598,2.5564,2.5561,2.5542,2.5522,2.5471,2.5409,2.5361,2.5361,2.5361,2.5341,2.5322,2.5322,2.5312,2.5303,2.5293,2.5264,2.5055,2.5001,2.4819,2.4067,2.3793,2.349,2.2628,2.2343,2.2249,2.2201,2.1452,2.0827,2.1022,2.0806,2.0355,1.9614,2.041,2.0896,2.0124,1.9535,1.9183,1.9183,1.8621,1.8168,1.8104,1.8107,1.8403,1.9147,1.9101,1.9303,1.9959,2.0102,2.0194,2.0322,2.0517,2.0627,2.0627,2.1211,2.149,2.149,2.204,2.231,2.231,2.231,2.231,1.9007,2.0662,2.2566,2.4233,2.5432,2.6441,2.7254,2.7652,2.8073,2.8852,2.8419,2.814,2.8919,2.8429,2.789,2.7861,2.7149,2.6592,2.6563,2.5159,2.4418,2.5168,2.4572,2.411,2.4129,2.4139,2.4139,2.4139,2.4861,2.5293,2.5293,2.5293,2.5293,2.5293,2.5293,2.5293,2.5293,2.5293,2.5293,2.5293,2.5293,2.5293,2.5303,2.537,2.5447,2.5504,2.5573,2.5596,2.5605,2.5674,2.5703,2.5692,2.5691,2.5649,2.56,2.5587,2.5553,2.5495,2.5495,2.5495,2.5486,2.5418,2.5399,2.538,2.5312,2.5293,2.5264,2.5055,2.5001,2.4965,2.4799,2.4752,2.4535,2.3658,2.3446,2.3389,2.3194,2.2267,2.1662,2.2305,2.1554,2.077,2.0753,2.0779,2.0806,2.0758,2.0156,1.967,1.967,1.8816,1.8366,1.8831,1.886,1.9173,1.99,1.9606,1.9553,1.9968,2.0315,2.0686,2.1143,2.1854,2.2243,2.2243,2.226,2.2276,2.2276,2.2302,2.231,2.231,2.231,2.231,2.0396,2.2233,2.4282,2.6573,2.7431,2.8067,2.9449,2.9526,2.9218,2.8964,2.8262,2.7613,2.7364,2.7086,2.6723,2.6138,2.6367,2.6399,2.5822,2.5255,2.4803,2.4534,2.4264,2.3869,2.3292,2.3764,2.41,2.41,2.4351,2.4736,2.5264,2.5293,2.5293,2.5293,2.5293,2.5293,2.5293,2.5293,2.5293,2.5293,2.5293,2.5293,2.5293,2.5312,2.537,2.5428,2.5466,2.552,2.5596,2.5615,2.5664,2.5703,2.5697,2.5693,2.5672,2.5668,2.5654,2.5619,2.5531,2.5476,2.5439,2.546,2.5408,2.5332,2.5361,2.5332,2.5264,2.5055,2.5001,2.4949,2.4666,2.4591,2.4494,2.4075,2.3949,2.395,2.3888,2.2721,2.1871,2.2395,2.177,2.0993,2.0612,2.0984,2.1141,2.0613,2.0052,1.9459,1.8787,1.8839,1.8917,1.8892,1.935,1.9959,2.0729,2.0389,2.0405,2.1014,2.0902,2.101,2.1458,2.1691,2.1832,2.1832,2.2135,2.2143,2.1832,2.2143,2.231,2.231,2.231,2.231,2.1534,2.3395,2.5324,2.7297,2.8179,2.882,2.9904,2.9781,2.9234,2.8431,2.7296,2.6245,2.5523,2.5089,2.4664,2.4181,2.4645,2.4977,2.4707,2.4409,2.4278,2.4407,2.4167,2.3765,2.3208,2.3659,2.4015,2.4091,2.437,2.4745,2.5264,2.5293,2.5293,2.5293,2.5293,2.5293,2.5293,2.5293,2.5293,2.5293,2.5293,2.5293,2.5293,2.5293,2.5312,2.537,2.539,2.5447,2.5528,2.5547,2.56,2.5664,2.5638,2.566,2.5703,2.5674,2.5676,2.5694,2.5597,2.5544,2.5512,2.5502,2.5464,2.5395,2.5369,2.5341,2.5292,2.5055,2.5001,2.4914,2.4582,2.4495,2.4453,2.4247,2.4199,2.4199,2.4199,2.306,2.2144,2.2429,2.174,2.104,2.0839,2.1161,2.1283,2.0761,2.0189,1.9603,1.9061,1.9394,1.9708,1.9729,2.0145,2.0746,2.1524,2.1032,2.0932,2.1557,2.1078,2.0951,2.1376,2.1407,2.146,2.159,2.1899,2.1899,2.159,2.2069,2.2209,2.204,2.2209,2.231,2.2418,2.4191,2.5809,2.6621,2.7792,2.876,2.876,2.8564,2.8138,2.728,2.5584,2.4067,2.352,2.2633,2.2056,2.2243,2.2353,2.2687,2.3458,2.2916,2.3073,2.4784,2.4319,2.3852,2.3852,2.3862,2.3939,2.413,2.4822,2.5255,2.5293,2.5293,2.5293,2.5293,2.5293,2.5293,2.5293,2.5293,2.5293,2.5293,2.5293,2.5293,2.5274,2.5303,2.5293,2.5283,2.536,2.5399,2.5399,2.547,2.5532,2.5593,2.5521,2.5577,2.5692,2.5615,2.5644,2.5703,2.5703,2.5703,2.567,2.5551,2.5546,2.5546,2.5366,2.5351,2.534,2.5086,2.5022,2.4927,2.4542,2.4474,2.4452,2.421,2.4171,2.419,2.4144,2.3264,2.2454,2.2425,2.1544,2.095,2.1416,2.1353,2.1254,2.1221,2.0585,2.0178,2.0369,2.0386,2.0607,2.1154,2.1211,2.1524,2.2251,2.1493,2.115,2.156,2.074,2.0491,2.0926,2.0959,2.115,2.156,2.159,2.159,2.1582,2.204,2.204,2.162,2.2069,2.2282,2.4212,2.581,2.7434,2.826,2.8323,2.8148,2.8183,2.7398,2.6248,2.4833,2.3235,2.1866,2.1138,2.1415,2.1791,2.1848,2.3139,2.4228,2.4436,2.4294,2.4337,2.4794,2.4676,2.4548,2.4548,2.4642,2.4717,2.4761,2.4408,2.4509,2.5264,2.5293,2.5293,2.5293,2.5293,2.5293,2.5293,2.5293,2.5293,2.5293,2.5293,2.5214,2.5078,2.5234,2.5214,2.5088,2.5243,2.5341,2.5399,2.5416,2.5466,2.5519,2.5511,2.5553,2.5615,2.5611,2.5644,2.5703,2.5703,2.5674,2.5634,2.5639,2.5566,2.5452,2.5451,2.5395,2.5312,2.5234,2.5224,2.4997,2.401,2.4241,2.4489,2.3538,2.3758,2.4043,2.3446,2.2603,2.1853,2.1387,2.1199,2.1131,2.125,2.1688,2.1828,2.1288,2.149,2.1304,2.0238,2.0328,2.0667,2.1152,2.1384,2.1728,2.2257,2.1493,2.1023,2.1158,2.0337,2.0035,2.0449,2.0483,2.0682,2.115,2.1438,2.146,2.115,2.156,2.1726,2.159,2.1718,2.1966,2.496,2.6076,2.7207,2.7557,2.7206,2.6708,2.6325,2.5501,2.4374,2.2791,2.14,2.0258,1.956,2.0219,2.0898,2.1013,2.2421,2.3558,2.3759,2.391,2.4116,2.4405,2.4579,2.467,2.467,2.4747,2.4776,2.4776,2.4586,2.4704,2.5274,2.5293,2.5293,2.5293,2.5293,2.5293,2.5293,2.5293,2.5293,2.5293,2.5214,2.5111,2.5001,2.512,2.5109,2.5001,2.5214,2.5312,2.5361,2.5361,2.5399,2.5457,2.5461,2.5516,2.5601,2.5603,2.564,2.5703,2.5703,2.5684,2.5654,2.5654,2.5601,2.5529,2.5509,2.545,2.538,2.5341,2.5312,2.5118,2.4369,2.437,2.442,2.3818,2.3823,2.3897,2.3602,2.2887,2.2082,2.1245,2.1332,2.1505,2.137,2.1588,2.1786,2.1693,2.1761,2.1625,2.1074,2.1,2.1019,2.1102,2.124,2.1499,2.1974,2.1385,2.0999,2.0999,2.033,2.0,2.0027,2.0027,2.0227,2.069,2.0902,2.091,2.0682,2.1118,2.1236,2.1023,2.1236,2.1568,2.5125,2.583,2.6428,2.5828,2.5546,2.5145,2.4042,2.3369,2.2581,2.1034,1.9908,1.9043,1.8573,1.9253,1.995,2.0128,2.1225,2.2173,2.2526,2.2863,2.3336,2.3942,2.421,2.4337,2.4391,2.4425,2.4433,2.4433,2.493,2.5223,2.5223,2.5253,2.5274,2.5293,2.5293,2.5293,2.5293,2.5274,2.5264,2.5264,2.5065,2.4962,2.4949,2.4977,2.4989,2.4996,2.5203,2.5293,2.5293,2.5293,2.5322,2.539,2.5399,2.5476,2.5591,2.5601,2.5642,2.5703,2.5703,2.5703,2.5693,2.5635,2.5654,2.5659,2.5541,2.5485,2.5476,2.5409,2.5332,2.5235,2.4922,2.4568,2.4307,2.4275,2.3948,2.3687,2.3868,2.3249,2.2388,2.1491,2.1578,2.1749,2.1634,2.1411,2.1486,2.2181,2.1752,2.1566,2.2124,2.1861,2.1469,2.1118,2.1023,2.115,2.1491,2.1142,2.0926,2.0999,2.0524,2.0097,1.9775,1.9718,1.9874,2.0272,2.0314,2.0314,2.0314,2.0723,2.069,2.0314,2.0723,2.1118,2.5625,2.6811,2.7938,2.5568,2.5271,2.5025,2.3048,2.2051,2.1139,1.9568,1.8626,1.8045,1.7953,1.9285,2.0263,1.9912,2.1835,2.3256,2.2968,2.3308,2.3724,2.4125,2.3729,2.353,2.381,2.3985,2.4091,2.4091,2.4579,2.4888,2.4888,2.4993,2.5131,2.5293,2.5293,2.5293,2.5293,2.5141,2.5046,2.5055,2.4904,2.4741,2.4598,2.4875,2.4946,2.4855,2.516,2.5293,2.5293,2.5293,2.5303,2.5312,2.538,2.5448,2.5517,2.558,2.5642,2.5703,2.5703,2.5703,2.5703,2.5693,2.5654,2.5603,2.5522,2.546,2.5401,2.5341,2.5303,2.51,2.4237,2.4157,2.4098,2.3297,2.3195,2.3113,2.2514,2.1591,2.0961,2.1388,2.1079,2.1052,2.2,2.1823,2.1711,2.222,2.22,2.2029,2.1739,2.1658,2.1582,2.1491,2.1213,2.1031,2.1095,2.0682,2.0591,2.0967,2.0243,1.9902,2.0185,1.9882,1.9874,2.0272,2.0314,2.0314,2.0314,2.0374,2.0382,2.0314,2.0374,2.0682,2.5551,2.6406,2.7033,2.4855,2.4457,2.4009,2.1655,2.0689,1.9948,1.8608,1.7901,1.7713,1.8278,1.9542,2.0547,2.0723,2.2401,2.3566,2.3166,2.361,2.3896,2.3692,2.3544,2.3437,2.3446,2.3534,2.3593,2.3593,2.3832,2.4209,2.4766,2.486,2.4968,2.5141,2.5082,2.5034,2.5034,2.4939,2.4891,2.4891,2.4727,2.4591,2.4512,2.4766,2.486,2.4818,2.5149,2.5293,2.5293,2.5293,2.5312,2.5361,2.5428,2.5493,2.5558,2.5633,2.5673,2.5703,2.5703,2.5703,2.5703,2.5703,2.5684,2.5654,2.5611,2.5527,2.5451,2.5409,2.5341,2.5187,2.4704,2.4515,2.4373,2.4031,2.3777,2.343,2.2766,2.2218,2.1904,2.2089,2.1858,2.1716,2.189,2.1966,2.1966,2.1928,2.2135,2.2209,2.1995,2.1966,2.1697,2.0999,2.0748,2.0624,2.0624,2.0449,2.0516,2.0967,2.0607,2.0364,2.0314,2.0124,1.9992,2.0,2.0,2.0,2.0,2.0,2.0,2.0,2.0,2.0235,2.4947,2.5519,2.5807,2.3994,2.3542,2.2907,2.044,1.9684,1.9147,1.8038,1.7759,1.8004,1.8846,1.9949,2.0888,2.1361,2.2587,2.3383,2.3092,2.3541,2.3744,2.3337,2.3355,2.3318,2.3117,2.3085,2.3085,2.3085,2.3165,2.3614,2.4582,2.4706,2.4804,2.4949,2.4846,2.4804,2.4804,2.476,2.4731,2.4731,2.4536,2.4436,2.4444,2.4639,2.476,2.4818,2.5105,2.5264,2.5293,2.5293,2.5332,2.5409,2.5465,2.5543,2.5609,2.5679,2.5703,2.5703,2.5703,2.5703,2.5703,2.5703,2.5703,2.5703,2.5684,2.5556,2.5428,2.5426,2.5309,2.5191,2.5191,2.4876,2.4533,2.4577,2.408,2.3511,2.3093,2.3023,2.2924,2.2669,2.245,2.2169,2.1702,2.1764,2.1773,2.1499,2.1781,2.2049,2.2143,2.2143,2.1705,2.0575,2.0449,2.0416,2.0314,2.0219,2.0364,2.0821,2.0764,2.0591,2.0314,2.0219,2.0035,1.9726,1.9682,1.9682,1.9682,1.9682,1.9682,1.9682,1.9682,1.9874,2.3508,2.458,2.5672,2.3079,2.2784,2.2502,2.0008,1.9435,1.9111,1.8015,1.8558,1.923,1.933,2.0527,2.1394,2.1026,0.0,2.2735,2.2602,2.2732,2.3045,2.3588,2.2934,2.2526,2.2729,2.2746,2.2746,2.2746,2.3021,2.3459,2.4044,2.4361,2.4623,2.4809,2.4804,2.4804,2.4804,2.4617,2.4528,2.4528,2.4312,2.4228,2.4219,2.4436,2.4632,2.4818,2.4959,2.5131,2.5293,2.5293,2.5332,2.5409,2.5473,2.5546,2.5609,2.5679,2.5703,2.5703,2.5703,2.5703,2.5703,2.5703,2.5703,2.5693,2.5635,2.5434,2.5206,2.5154,2.5008,2.4847,2.4847,2.4597,2.4141,2.3376,2.2812,2.2434,2.2396,2.2369,2.2377,2.2349,2.1697,2.1236,2.1552,2.0967,2.0608,2.0991,2.1095,2.1252,2.1628,2.1658,2.1469,2.0999,2.0934,2.0756,2.0348,1.9972,1.9937,2.0348,2.0035,1.9972,2.028,1.9937,1.9754,1.9682,1.9682,1.9682,1.9682,1.9682,1.9682,1.9682,1.9682,1.9718,2.2987,2.4064,2.4766,2.2939,2.2557,2.212,2.0194,1.9265,1.8608,1.7954,1.8338,1.9066,1.99,2.0782,2.1507,0.0,0.0,0.0,2.2632,2.2828,2.3021,2.3093,2.2772,2.2573,2.2695,2.2555,2.2463,2.2463,2.2773,2.303,2.322,2.3735,2.4118,2.4306,2.4389,2.4436,2.4436,2.4357,2.4312,2.4321,2.4247,2.4256,2.4393,2.4584,2.4771,2.492,2.5098,2.5234,2.5293,2.5332,2.5399,2.5467,2.5527,2.5602,2.5661,2.5689,2.5703,2.5703,2.5703,2.5703,2.5703,2.5703,2.559,2.5451,2.5432,2.5318,2.5166,2.4969,2.486,2.4804,2.4804,2.4766,2.4488,2.3542,2.3258,2.3026,2.2417,2.231,2.231,2.231,2.202,2.1683,2.1314,2.1134,2.0967,2.0616,2.1047,2.143,2.159,2.159,2.1529,2.1368,2.115,2.0698,2.0007,1.9775,1.9874,2.028,1.9899,1.9829,2.0272,1.9856,1.9681,1.9682,1.9682,1.9682,1.9682,1.9369,1.9369,1.9682,1.9369,1.9406,2.2125,2.2916,2.3187,2.2312,2.182,2.1183,1.9814,1.8909,1.8311,1.8165,1.8674,1.9537,2.0744,2.1503,2.2173,0.0,0.0,2.2738,2.2839,2.289,2.2874,2.2721,2.2634,2.2617,2.2695,2.2616,2.258,2.258,2.2781,2.2908,2.2839,2.3392,2.3771,2.3908,2.4096,2.4199,2.4199,2.4199,2.4199,2.4199,2.4199,2.4266,2.4418,2.4623,2.4799,2.4959,2.513,2.5253,2.5303,2.537,2.5437,2.5509,2.5572,2.5646,2.5703,2.5703,2.5703,2.5703,2.5703,2.5649,2.5583,2.5583,2.5396,2.5176,2.5116,2.5054,2.4983,2.4797,2.4683,2.4648,2.47,2.4665,2.4423,2.3692,2.3488,2.3258,2.2482,2.231,2.231,2.231,2.2086,2.1721,2.1095,2.1015,2.0846,2.0219,2.0641,2.107,2.1197,2.1228,2.1228,2.1228,2.0975,2.0524,1.9937,1.9624,1.9652,2.0089,1.9513,1.9397,1.9884,1.9557,1.9434,1.945,1.9603,1.9603,1.945,1.9088,1.9088,1.9442,1.9088,1.9207,2.0727,2.0828,2.0755,2.0901,2.0313,1.9483,1.8539,1.8324,1.8418,1.8805,2.0009,2.1203,2.195,2.2953,2.3683,2.3692,0.0,0.0,2.3141,2.2678,2.2407,2.2678,2.2463,2.2407,2.2669,2.2996,2.3189,2.3189,2.3189,2.3198,2.3189,2.3522,2.3692,2.3692,2.4025,2.4199,2.4199,2.4199,2.4199,2.4199,2.4199,2.4199,2.4218,2.4401,2.4607,2.4818,2.4937,2.512,2.5303,2.537,2.5443,2.5512,2.5577,2.5646,2.5703,2.5703,2.5703,2.5703,2.5703,2.5527,2.53,2.53,2.5114,2.4863,2.4675,2.4615,2.4606,2.4606,2.4412,2.4256,2.4444,2.4108,2.3678,2.3542,2.3091,2.2643,2.2369,2.231,2.231,2.231,2.1615,2.0999,2.0999,2.0277,1.9726,1.9726,1.9718,1.9874,2.0246,2.0306,2.0306,2.0306,2.0314,2.0314,2.0272,1.9456,1.9125,1.9675,1.8696,1.8373,1.8885,1.8893,1.8893,1.8893,1.9442,1.9442,1.8893,1.8893,1.8893,1.8893,1.8893,1.9207,1.9695,2.0025,2.0229,2.0265,1.9702,1.9083,1.8784,1.8999,1.9302,1.9412,2.0782,2.2095,2.2553,2.3034,2.3437,2.3662,2.3337,0.0,2.3198,2.3038,2.2949,2.3021,2.3168,2.32,2.3069,2.3337,2.3446,2.3221,2.3189,2.3189,2.3189,2.3522,2.3692,2.3692,2.4025,2.4199,2.4199,2.4199,2.4199,2.4199,2.4199,2.4266,2.4401,2.4607,2.4799,2.4946,2.513,2.5244,2.5303,2.5418,2.5482,2.5503,2.5622,2.568,2.5679,2.5485,2.5437,2.5393,2.5216,2.5091,2.5033,2.503,2.4882,2.4676,2.4617,2.4606,2.4559,2.4374,2.4282,2.4209,2.4275,2.4266,2.4089,2.3441,2.3262,2.3077,2.2453,2.231,2.231,2.231,2.1811,2.1306,2.1063,2.0499,2.0035,1.9754,1.9937,2.0158,2.0272,2.0016,1.9946,2.028,1.975,1.9471,1.9874,1.9624,1.9369,1.9169,1.8496,1.8178,1.8334,1.8334,1.8535,1.8893,1.9442,1.9442,1.8893,1.8535,1.8334,1.8373,1.8734,1.9207,0.0,1.9489,1.9625,1.9996,1.9507,1.8942,1.8942,1.9205,1.9606,2.0219,2.1343,2.2455,2.3277,2.3562,2.3764,2.3972,2.3665,2.3428,2.3494,2.3342,2.3189,2.3189,2.35,2.3619,2.3414,2.3692,2.3795,2.3588,2.3575,2.3575,2.3575,2.3774,2.3896,2.3896,2.4094,2.4199,2.4199,2.4199,2.4199,2.4199,2.4199,2.4275,2.4393,2.467,2.4842,2.4933,2.5221,2.5332,0.0,2.5486,2.5539,2.5554,2.5662,2.5639,2.5535,2.5354,2.5234,2.5134,2.4959,2.4843,2.4771,2.4644,2.4438,2.4275,2.441,2.4458,2.4402,2.4245,2.4199,2.417,2.4045,2.4106,2.3993,2.3194,2.3103,2.3029,2.2426,2.231,2.231,2.231,2.1802,2.1275,2.1031,2.0491,2.0,1.9754,1.9745,1.9778,1.9778,1.9324,1.9214,1.9707,1.9251,1.9125,1.9646,1.9325,1.905,1.8893,1.802,1.7585,1.7787,1.7787,1.794,1.8295,1.9013,1.905,1.8295,1.794,1.7787,1.782,1.8334,1.8772,0.0,1.9164,1.9008,1.9892,1.9552,1.8996,1.8996,1.9072,0.0,2.1064,2.1727,2.2494,2.3992,2.4414,2.4528,2.4512,2.407,2.3833,2.4006,2.3602,2.3282,2.3245,2.3522,2.3723,2.3692,2.3996,2.4199,2.4199,2.4199,2.4199,2.4199,2.4199,2.4199,2.4199,2.4199,2.4199,2.4199,2.4199,2.4218,2.4228,2.4228,2.4228,2.4266,2.4639,2.4809,2.4847,2.5236,2.5399,2.5409,2.5543,2.5601,2.56,2.5654,2.5521,2.5309,2.5252,2.5086,2.4873,2.4855,2.4725,2.4529,2.4169,2.3893,2.3744,2.4045,2.4151,2.4161,2.4161,2.4151,2.4054,2.3744,2.3662,2.3491,2.2839,2.2695,2.2643,2.2369,2.231,2.231,2.231,2.1593,2.0999,2.0999,2.0277,1.9682,1.9682,1.9288,1.8968,1.8968,1.8496,1.8373,1.8893,1.893,1.9088,1.9603,1.8772,1.8419,1.8855,1.747,1.6837,1.7271,1.7312,1.7312,1.7312,1.8295,1.8295,1.7347,1.7271,1.7271,1.7312,1.782,1.8059,1.9608,0.0,1.888,1.92,1.9143,1.8996,0.0,1.9755,2.0562,2.0943,0.0,2.3471,2.3847,2.4356,2.4685,2.4528,2.4391,2.4329,2.4372,2.4265,2.4042,2.3631,2.3876,2.3967,2.3714,2.3996,2.4199,2.4199,2.4199,2.4199,2.4199,2.4199,2.4199,2.4199,2.4199,2.4199,2.4199,2.4199,2.4275,2.4436,2.4436,2.4512,2.467,2.4854,2.4949,2.4971,2.527,2.5399,2.5409,2.5543,2.5601,2.5584,2.545,2.5358,2.5252,2.4892,2.4716,2.4642,2.4448,2.4328,2.4234,2.3904,2.3756,2.3671,2.3491,2.361,2.3816,2.3816,2.364,2.3423,2.3346,2.3314,2.3212,2.2797,2.2695,2.2643,2.2369,2.231,2.231,2.231,2.1593,2.0999,2.0999,2.0277,1.9682,1.9682,1.9603,1.9522,1.9522,1.905,1.893,1.9442,1.9125,1.8968,1.9088,1.9244,1.9207,1.893,1.8178,1.7585,1.7312,1.7312,1.7312,1.7312,1.7544,1.7747,1.79,1.707,1.6915,1.7312,1.7429,1.7706,1.9918,1.9984,2.0057,2.0133,2.0165,2.0186,2.0191,0.0,0.0,0.0,0.0,0.0,0.0,2.4495,2.487,2.4679,2.4641,2.461,2.4512,2.4495,2.4365,2.3969,2.4094,2.4122,2.3946,2.4094,2.4199,2.4199,2.4199,2.4199,2.4199,2.4199,2.4199,2.4199,2.4284,2.4284,2.4199,2.4284,2.4393,2.4495,2.4591,2.47,2.4795,2.4946,2.5027,2.5063,2.5328,2.5466,2.5505,2.5593,2.5632,2.5585,2.5381,2.5208,2.5031,2.4727,2.4417,2.416,2.4012,2.3485,2.2852,2.2843,2.2434,2.1939,2.1912,2.2237,2.2707,2.331,2.3346,2.3165,2.3021,2.2972,2.2898,2.259,2.2527,2.2482,2.2321,2.231,2.2245,2.2032,2.1446,2.0926,2.0731,2.0131,1.9682,1.9682,1.9288,1.9118,1.9594,1.8552,1.8171,1.92,1.8833,1.8612,1.8893,1.9169,1.9006,1.8217,1.79,1.751,1.6951,1.6915,1.7034,1.7312,1.707,1.7188,1.7747,1.6915,1.6637,1.6915,1.6915,1.707,2.0226,2.096,2.1663,2.1402,2.1469,2.1578,0.0,0.0,0.0,0.0,0.0,0.0,0.0,2.468,0.0,2.4875,2.4837,2.4761,2.4561,2.4561,2.4452,2.42,2.419,2.417,2.4122,2.417,2.4199,2.4199,2.4199,2.4199,2.4199,2.4228,2.4247,2.4247,2.4436,2.4461,2.4284,2.4461,2.4561,2.4552,2.4736,2.4851,2.4879,2.4984,2.5089,2.5158,2.5399,2.5543,2.5601,2.5663,2.5633,2.5535,2.5316,2.504,2.4761,2.4589,2.418,2.3692,2.364,2.264,2.14,2.1656,2.0912,1.9929,2.0193,2.0692,2.1458,2.2522,2.2937,2.2989,2.2712,2.2634,2.2581,2.2341,2.231,2.231,2.231,2.231,2.2172,2.1688,2.1283,2.0862,2.0382,1.9972,1.9682,1.9682,1.893,1.8629,1.9397,1.7946,1.7327,1.8572,1.8338,1.8295,1.8734,1.8772,1.8373,1.7347,1.7312,1.707,1.6515,1.6515,1.6752,1.7312,1.6752,1.6752,1.7312,1.6752,1.6515,1.6515,1.6515,1.6515,2.037,2.1542,2.2415,2.0938,2.1133,2.1487,2.0746,0.0,0.0,0.0,0.0,0.0,0.0,2.4812,2.5226,2.5081,2.5011,2.4913,2.4766,2.4751,2.456,2.41,2.4125,2.4094,2.3795,2.4036,2.4199,2.4199,2.4199,2.4199,2.4199,2.4357,2.4444,2.4444,2.4654,2.4746,2.4716,2.4746,2.4751,2.476,2.4894,2.5053,2.5213,2.5244,2.5292,2.536,2.5456,2.5539,2.5599,2.561,2.5509,2.5307,2.4995,2.4788,2.4607,2.4347,2.4023,2.3671,2.3369,2.2597,2.1667,2.145,2.0701,1.9868,1.9638,2.0174,2.0925,2.1111,2.1766,2.2415,2.236,2.2369,2.2341,2.2302,2.231,2.231,2.231,2.231,2.2172,2.1688,2.1283,2.0862,2.0382,1.9972,1.9682,1.9682,1.9566,1.9361,1.9036,1.8727,1.8451,1.8242,1.8131,1.8138,1.8217,1.8217,1.794,1.7347,1.7312,1.707,1.6515,1.6515,1.6752,1.7312,1.6752,1.6752,1.7312,1.6752,1.6515,1.6515,1.6515,1.6515,2.0342,2.1326,2.199,2.0721,2.1376,2.2238,2.1838,0.0,0.0,0.0,0.0,0.0,0.0,2.4906,2.5389,2.5332,2.5077,2.4898,2.4907,2.4842,2.4702,2.4459,2.4491,2.4467,2.4317,2.4424,2.4519,2.4519,2.4418,2.4357,2.4357,2.4453,2.4495,2.4495,2.4776,2.4873,2.4804,2.4984,2.5012,2.4917,2.5086,2.5214,2.5293,2.5332,2.539,2.5457,2.5516,2.5565,2.5599,2.5599,2.544,2.5177,2.4897,2.4592,2.4207,2.3606,2.2972,2.2427,2.2643,2.1399,1.9811,2.017,1.9273,1.8156,1.8548,1.9306,2.0146,2.0679,2.1524,2.231,2.231,2.231,2.231,2.231,2.231,2.231,2.231,2.2106,2.1794,2.1376,2.091,2.0491,2.0062,1.9811,1.9682,1.9682,1.9442,1.9273,1.9273,1.8545,1.8046,1.8051,1.7807,1.7666,1.7666,1.7666,1.7544,1.7312,1.7034,1.6752,1.6515,1.6515,1.6637,1.6873,1.6637,1.6637,1.6873,1.6637,1.6515,1.6515,1.6515,1.6515,2.0246,2.0975,2.1452,2.0591,0.0,2.2621,2.262,0.0,0.0,0.0,0.0,0.0,0.0,2.5079,2.5492,2.5476,2.5177,2.4982,2.5086,2.4952,2.4842,2.4842,2.4823,2.4804,2.4804,2.4804,2.4804,2.4804,2.4654,2.4568,2.4568,2.4598,2.462,2.462,2.4911,2.5018,2.4919,2.52,2.5213,2.5001,2.5213,2.5312,2.5322,2.539,2.5466,2.5534,2.5582,2.5603,2.5601,2.5582,2.5358,2.5007,2.4767,2.4338,2.3692,2.2734,2.1933,2.134,2.1551,2.0034,1.8106,1.8847,1.791,1.6625,1.741,1.8456,1.9554,2.0254,2.1348,2.231,2.231,2.231,2.2237,2.2007,2.2052,2.2069,2.1853,2.162,2.1337,2.0926,2.055,2.0185,1.9782,1.9682,1.9682,1.9682,1.9244,1.8991,1.9214,1.8111,1.7409,1.7632,1.732,1.7111,1.7111,1.7229,1.7229,1.7111,1.6716,1.6515,1.6515,1.6515,1.6515,1.6515,1.6515,1.6515,1.6515,1.6515,1.6515,1.6515,1.6515,1.6515,2.0097,2.08,2.1318,2.0514,0.0,0.0,2.1788,2.1738,0.0,2.3783,0.0,0.0,0.0,2.5467,2.5476,2.5418,2.538,2.536,2.537,2.5147,2.4986,2.4986,2.4873,2.4804,2.4804,2.4804,2.4804,2.4804,2.479,2.4775,2.4775,2.4894,2.4965,2.4965,2.5172,2.5274,2.5264,2.5351,2.5261,2.5001,2.5271,2.539,2.5399,2.5466,2.5534,2.5591,2.5601,2.5603,2.5601,2.5534,2.5237,2.4801,2.4452,2.3895,2.3106,2.1866,2.1353,2.1128,1.9999,1.8884,1.8002,1.8067,1.7369,1.6509,1.6588,1.7903,1.9405,1.9476,2.0847,2.231,2.231,2.231,2.2052,2.1123,2.1295,2.1405,2.0547,2.0708,2.0926,2.0449,2.0306,2.0185,1.9782,1.9682,1.9682,1.9682,1.9244,1.8727,1.8256,1.7666,1.7105,1.6674,1.6595,1.6558,1.6558,1.6993,1.707,1.6595,1.6515,1.6515,1.6515,1.6515,1.6515,1.6515,1.6515,1.6515,1.6515,1.6515,1.6515,1.6515,1.6515,1.6515,1.9936,2.0604,2.105,2.0454,0.0,0.0,0.0,0.0,2.2882,2.4649,2.498,0.0,0.0,2.5572,2.5591,2.5486,2.5456,2.5447,2.5409,2.5272,2.5183,2.5183,2.5139,2.5115,2.5115,2.5115,2.5115,2.5115,2.5003,2.492,2.492,2.4974,2.5001,2.5001,2.5241,2.5361,2.5361,2.5428,2.5407,2.5313,2.5417,2.5463,2.5453,2.5531,2.5582,2.5601,2.5599,2.5578,2.5524,2.533,2.4949,2.4411,2.3626,2.2779,2.1938,2.1245,2.025,1.9275,1.9355,1.8372,1.719,1.7818,1.7061,1.6114,1.7122,1.7678,1.8159,1.914,1.9685,2.0201,2.1118,2.1379,2.1201,2.0589,2.0273,2.0218,2.0613,2.0319,2.0072,2.027,2.0089,1.9874,1.9718,1.9682,1.9682,1.9682,1.9522,1.9088,1.8217,1.79,1.747,1.6595,1.6515,1.6515,1.6515,1.6674,1.6716,1.6515,1.6515,1.6515,1.6515,1.6515,1.6515,1.6515,1.6515,1.6515,1.6515,1.6515,1.6515,1.6515,1.6515,1.6515,2.0083,2.0429,2.0665,0.0,0.0,0.0,0.0,2.2949,2.3293,2.5072,2.5421,2.5424,2.5492,2.5586,2.564,2.5553,2.5531,2.5508,2.5446,2.537,2.5312,2.5293,2.5293,2.5293,2.5293,2.5293,2.5187,2.4938,2.5039,2.4994,2.4765,2.4994,2.5138,2.5166,2.5339,2.5293,2.5017,2.536,2.526,2.4722,2.5268,2.5527,2.5528,2.558,2.5599,2.5603,2.5581,2.5526,2.5434,2.5111,2.4557,2.3802,2.3005,2.2059,2.1077,2.0534,1.9377,1.8034,1.8372,1.7471,1.6349,1.702,1.6384,1.552,1.6612,1.6998,1.7304,1.8394,1.8744,1.8978,1.951,1.9861,1.9997,1.9589,1.9429,1.9464,1.9982,1.9782,1.961,2.0039,1.9874,1.9682,1.9682,1.9682,1.9682,1.9682,1.9406,1.893,1.8178,1.7787,1.7312,1.6595,1.6515,1.6515,1.6515,1.6515,1.6515,1.6515,1.6515,1.6515,1.6515,1.6515,1.6515,1.6515,1.6515,1.6515,1.6515,1.6515,1.6515,1.6515,1.6515,1.6515,2.0578,2.0332,2.0212,0.0,0.0,0.0,2.337,2.3284,2.3274,2.4947,2.5353,2.542,2.5488,2.5546,2.5601,2.5601,2.5599,2.5583,2.5512,2.5438,2.538,2.5303,2.5293,2.5293,2.5293,2.5293,2.4976,2.4158,2.4841,2.4966,2.4235,2.4957,2.5418,2.5495,2.5495,2.5083,2.4214,2.512,2.4726,2.3016,2.4759,2.559,2.5591,2.5605,2.5591,2.5601,2.5528,2.5453,2.536,2.4875,2.4025,2.2976,2.277,2.19,2.0671,1.9714,1.8796,1.7838,1.6834,1.6083,1.557,1.557,1.5174,1.4687,1.4692,1.5806,1.7048,1.7055,1.8183,1.8985,1.7478,1.7804,1.8461,1.8086,1.8801,1.9302,1.8313,1.8923,1.9675,1.9682,1.9682,1.9682,1.9682,1.9682,1.9682,1.9682,1.8772,1.8099,1.8099,1.7153,1.6515,1.6515,1.6515,1.6515,1.6515,1.6515,1.6515,1.6515,1.6515,1.6515,1.6515,1.6472,1.6479,1.6479,1.6479,1.6479,1.6479,1.6479,1.6472,1.6515,1.6515,1.6515,2.0707,2.1421,0.0,2.2178,0.0,0.0,0.0,2.311,0.0,0.0,2.5031,2.5486,2.5504,2.5546,2.5604,2.56,2.5599,2.5593,2.5566,2.5505,2.5466,2.5438,2.5438,2.5438,2.5438,2.5438,2.5091,2.4226,2.4389,2.4437,2.4217,2.4428,2.4852,2.548,2.5549,2.5149,2.4277,2.4595,2.4196,2.3076,2.4165,2.469,2.4696,2.5269,2.5526,2.5524,2.5311,2.5208,2.5117,2.4216,2.3422,2.2702,2.1732,2.051,1.9137,1.8165,1.6934,1.5731,1.5064,1.4693,1.4482,1.4168,1.3619,1.3238,1.3673,1.4044,1.4445,1.4851,1.5325,1.5654,1.5591,1.5484,1.5595,1.6221,1.6844,1.7441,1.7977,1.8569,1.9136,1.96,1.9682,1.9682,1.9682,1.9682,1.9682,1.9682,1.9125,1.8373,1.7626,1.6915,1.6515,1.6515,1.6515,1.6515,1.6515,1.6515,1.6515,1.6515,1.6515,1.6515,1.6515,1.6095,1.5864,1.5864,1.5472,1.5421,1.5864,1.5864,1.6101,1.6515,1.6515,1.6515,2.0877,2.1677,0.0,2.2868,2.3063,2.3195,2.3484,0.0,0.0,0.0,2.5082,2.5471,2.5498,2.5554,2.5608,2.5639,2.5637,2.5635,2.5596,2.5567,2.5528,2.5499,2.5501,2.5501,2.5501,2.5184,2.4635,2.379,2.3724,2.3731,2.3754,2.4074,2.4649,2.5551,2.5593,2.5027,2.3832,2.4183,2.3566,2.2005,2.3182,2.3689,2.3635,2.4897,2.5455,2.5447,2.506,2.4742,2.4388,2.3631,2.2772,2.1871,2.1097,1.9531,1.7655,1.7038,1.5769,1.4259,1.3916,1.3657,1.3419,1.3148,1.261,1.2234,1.2815,1.3059,1.3301,1.3916,1.4218,1.4437,1.4551,1.433,1.4364,1.5378,1.598,1.6605,1.7777,1.8368,1.8904,1.9563,1.9682,1.9682,1.9682,1.9522,1.9369,1.9369,1.8734,1.794,1.707,1.6716,1.6515,1.6515,1.6515,1.6515,1.6515,1.6515,1.6515,1.6515,1.6287,1.6145,1.6145,1.577,1.5499,1.5231,1.488,1.488,1.5231,1.5231,1.5549,1.6145,1.6145,1.6281,2.1012,0.0,0.0,2.3618,2.3593,0.0,2.3612,2.4388,2.5036,2.5157,2.5293,2.5409,2.5495,2.5556,2.5615,2.5693,2.5703,2.5684,2.5615,2.5605,2.5591,2.5529,2.5517,2.5517,2.5517,2.4802,2.3969,2.3085,2.3007,2.3032,2.3092,2.3781,2.4644,2.5654,2.5544,2.4705,2.311,2.3731,2.2827,2.0413,2.2045,2.2748,2.2646,2.4445,2.5263,2.5239,2.4723,2.4096,2.3408,2.3108,2.2173,2.0918,2.0687,1.8898,1.6447,1.6193,1.4885,1.3229,1.3189,1.2814,1.2357,1.2315,1.1945,1.157,1.2057,1.2591,1.3177,1.3718,1.4289,1.4645,1.4142,1.4016,1.4238,1.5203,1.5829,1.6508,1.747,1.821,1.8882,1.9445,1.9601,1.9603,1.9566,1.9169,1.881,1.8772,1.79,1.7111,1.6558,1.6515,1.6515,1.6515,1.6515,1.6515,1.6515,1.6515,1.6479,1.6423,1.5908,1.5543,1.5448,1.5448,1.5186,1.4612,1.4566,1.4566,1.4606,1.4606,1.492,1.5543,1.5543,1.582,2.0326,2.1376,0.0,0.0,2.3575,2.4243,2.4479,2.4782,2.4883,2.4446,2.487,2.5361,2.5486,2.5512,2.5561,2.5683,2.5703,2.5693,2.5684,2.5684,2.5674,2.566,2.566,2.566,2.566,2.5493,2.4744,2.3184,2.3081,2.3061,2.3015,2.3189,2.3981,2.5498,2.4919,2.408,2.303,2.246,2.1811,2.1094,2.1843,2.2581,2.3302,2.3876,2.4206,2.4286,2.3896,2.3399,2.2879,2.2779,2.245,2.177,1.9822,1.8164,1.6648,1.4665,1.3208,1.2088,1.1659,1.1429,1.1279,1.0903,1.0671,1.0671,1.1157,1.1659,1.22,1.2695,1.3179,1.3523,1.3405,1.3408,1.3635,1.4499,1.5214,1.5736,1.5963,1.743,1.8636,1.8353,1.8709,1.893,1.8535,1.8334,1.8138,1.7706,1.747,1.7111,1.6558,1.6515,1.6515,1.6515,1.6515,1.6515,1.6515,1.6515,1.6287,1.5814,1.5676,1.518,1.4226,1.4185,1.4138,1.4009,1.3515,1.3515,1.4003,1.4003,1.4283,1.488,1.488,1.5242,1.9941,0.0,0.0,2.2653,0.0,2.4552,2.4751,2.4894,2.4941,2.4715,2.5005,2.5332,2.5486,2.5498,2.5537,2.5683,2.5703,2.5703,2.5703,2.5673,2.5654,2.5654,2.5619,2.5603,2.5603,2.4885,2.4033,2.3122,2.2668,2.2599,2.2979,2.3371,2.4172,2.5461,2.5062,2.4378,2.3436,2.2901,2.2259,2.1493,2.1737,2.2036,2.2395,2.3525,2.3931,2.371,2.3037,2.2525,2.2132,2.161,2.1074,2.0352,1.8442,1.6769,1.5202,1.3283,1.196,1.1029,1.0764,1.0649,1.0611,1.0395,1.0283,1.0433,1.1169,1.1584,1.1957,1.265,1.3012,1.3198,1.3198,1.3357,1.3642,1.4091,1.4646,1.521,1.5902,1.7214,1.8144,1.7935,1.8453,1.8734,1.8178,1.79,1.7544,1.6993,1.6915,1.6837,1.6558,1.6515,1.6515,1.6515,1.6515,1.6515,1.6515,1.6515,1.6238,1.5632,1.532,1.4784,1.3815,1.351,1.3377,1.3377,1.3065,1.306,1.3377,1.3377,1.3695,1.4288,1.4288,1.4601,1.9502,0.0,2.1367,2.2456,2.3397,0.0,2.4506,2.4686,2.4895,2.5235,2.5293,2.5332,2.5466,2.5481,2.5525,2.5647,2.5671,2.5671,2.5671,2.5618,2.5572,2.5582,2.5532,2.55,2.55,2.4248,2.3368,2.3223,2.2533,2.2439,2.3148,2.3823,2.4582,2.5438,2.5186,2.4639,2.3796,2.3515,2.2844,2.1786,2.1778,2.1544,2.1179,2.2868,2.3398,2.2934,2.199,2.1482,2.1246,2.0365,1.9407,1.8411,1.7079,1.5346,1.3477,1.2163,1.1081,1.0283,1.0283,1.0283,1.0283,1.0283,1.0283,1.0505,1.1516,1.1811,1.1993,1.2943,1.3198,1.3198,1.3198,1.3486,1.3802,1.3868,1.4149,1.477,1.6169,1.7053,1.7555,1.7605,1.8073,1.8334,1.79,1.747,1.6993,1.6558,1.6515,1.6515,1.6515,1.6515,1.6515,1.6515,1.6515,1.6515,1.6515,1.6515,1.6194,1.5499,1.4971,1.4381,1.3684,1.3152,1.2881,1.2881,1.2881,1.2881,1.2881,1.2881,1.3152,1.3637,1.3637,1.3967,0.0,0.0,2.0553,0.0,2.1983,2.2574,0.0,2.3828,2.4218,2.511,2.5293,2.5312,2.5399,2.5406,2.5436,2.5507,2.5535,2.5535,2.5535,2.5518,2.5506,2.5515,2.5505,2.5495,2.5495,2.5302,2.4848,2.4105,2.3926,2.3889,2.3946,2.4043,2.4485,2.5293,2.4191,2.3523,2.3379,2.2219,2.1808,2.2121,2.2076,2.1743,2.1174,2.1063,2.0973,2.0877,2.0427,2.0246,2.0204,2.0061,1.9304,1.8106,1.6598,1.4923,1.3174,1.1669,1.0771,1.0283,1.0283,1.0283,1.0283,1.0283,1.0283,1.0505,1.1516,1.1811,1.1993,1.2943,1.3198,1.3198,1.3198,1.3267,1.3391,1.3802,1.3927,1.4252,1.5268,1.6293,1.6909,1.6561,1.668,1.6795,1.6716,1.6637,1.6595,1.6515,1.6515,1.6515,1.6515,1.6515,1.6515,1.6515,1.6515,1.6515,1.6515,1.6515,1.602,1.488,1.4749,1.4201,1.306,1.2925,1.2881,1.2881,1.2881,1.2881,1.2881,1.2881,1.2925,1.3017,1.3017,1.3329,1.8752,1.9397,2.0107,0.0,2.1188,2.1841,2.2514,2.2822,2.3241,2.4249,2.4553,2.4793,2.5303,2.5398,2.5419,2.549,2.5507,2.5507,2.5507,2.5468,2.5439,2.5438,2.5409,2.539,2.539,2.4976,2.4562,2.4168,2.3875,2.3688,2.366,2.3831,2.4095,2.4452,2.3892,2.3531,2.3418,2.2829,2.2515,2.2471,2.0883,2.0062,1.9888,1.9281,1.9429,2.0199,1.9644,1.9392,1.9326,1.8476,1.7668,1.6738,1.491,1.3588,1.252,1.1137,1.0467,1.0283,1.0283,1.0283,1.0283,1.0283,1.0283,1.0505,1.1516,1.1811,1.1993,1.2943,1.3198,1.3198,1.3198,1.3391,1.3648,1.3835,1.4058,1.4376,1.4869,1.5806,1.6609,1.6831,1.6664,1.6515,1.6515,1.6515,1.6515,1.6515,1.6515,1.6515,1.6515,1.6194,1.6145,1.6466,1.6194,1.6139,1.6472,1.6194,1.5644,1.4744,1.4376,1.3789,1.2925,1.2881,1.2881,1.2881,1.2881,1.2881,1.2881,1.2881,1.2881,1.2881,1.2881,1.3065,0.0,0.0,1.9703,1.9813,2.0355,2.0933,0.0,2.1634,2.2262,2.3472,2.3844,2.4224,2.5127,2.5178,2.5091,2.5139,2.4957,2.4812,2.4812,2.4774,2.4745,2.4745,2.4889,2.5005,2.5005,2.4532,2.4232,2.4232,2.3721,2.3433,2.3433,2.3664,2.3794,2.3794,2.3678,2.3506,2.3368,2.3005,2.2478,2.1841,1.9311,1.821,1.831,1.7302,1.7467,1.8496,1.8244,1.8327,1.8477,1.6757,1.5898,1.5515,1.3519,1.2298,1.1603,1.0642,1.0283,1.0283,1.0283,1.0283,1.0283,1.0283,1.0283,1.0467,1.1324,1.17,1.1957,1.2797,1.3094,1.3198,1.3198,1.3452,1.3709,1.3709,1.396,1.4285,1.4792,1.5545,1.6327,1.6957,1.6752,1.6515,1.6515,1.6515,1.6515,1.6515,1.6515,1.6429,1.6287,1.5864,1.5726,1.6014,1.5644,1.5549,1.602,1.5644,1.5096,1.4514,1.405,1.3552,1.2925,1.2881,1.2881,1.2881,1.272,1.2613,1.2613,1.2613,1.2613,1.2613,1.2613,1.2613,0.0,1.8966,0.0,1.8948,1.9146,1.9409,1.9433,2.019,2.1377,2.3152,2.3519,2.384,2.4846,2.455,2.4168,2.4168,2.3485,2.2937,2.2937,2.2937,2.2937,2.2937,2.3667,2.4158,2.4158,2.4409,2.4573,2.4573,2.4081,2.3768,2.3768,2.3786,2.3794,2.3794,2.3302,2.3053,2.3029,2.164,2.0469,1.9559,1.7703,1.6812,1.6775,1.5077,1.4312,1.4466,1.5576,1.6741,1.7674,1.5242,1.4637,1.5047,1.3025,1.1475,1.0385,1.0317,1.0283,1.0283,1.0283,1.0283,1.0283,1.0283,1.0283,1.039,1.0905,1.1394,1.1884,1.2395,1.2873,1.3198,1.3198,1.3232,1.3232,1.3232,1.3267,1.369,1.5123,1.5595,1.5901,1.6445,1.6515,1.6515,1.6515,1.6515,1.6515,1.6515,1.6515,1.6287,1.5726,1.5632,1.541,1.4841,1.4749,1.4749,1.4789,1.4744,1.4468,1.3862,1.3821,1.3552,1.2925,1.2881,1.2881,1.2881,1.2187,1.1868,1.1868,1.1868,1.1868,1.1868,1.1868,1.1868,0.0,0.0,0.0,1.8922,1.8947,1.9039,1.9249,1.9577,2.0026,2.0674,2.1835,2.2835,2.3199,2.3626,2.3945,2.4072,2.3369,2.2793,2.2793,2.317,2.3354,2.3146,2.3776,2.4138,2.393,2.4013,2.4095,2.4095,2.3599,2.328,2.328,2.2994,2.2539,2.1893,2.1692,2.1307,2.0709,1.9556,1.9133,1.9362,1.7641,1.6548,1.5986,1.5338,1.4157,1.2665,1.3272,1.4405,1.5722,1.461,1.4132,1.3983,1.2754,1.1619,1.0688,1.0688,1.0518,1.0283,1.0283,1.0283,1.0283,1.0283,1.0283,1.0433,1.125,1.1664,1.1962,1.272,1.3088,1.3198,1.3198,1.3198,1.3198,1.3198,1.3198,1.3457,1.434,1.4891,1.5436,1.6346,1.6515,1.6515,1.6515,1.6515,1.6515,1.6515,1.6188,1.582,1.5632,1.4903,1.4503,1.4703,1.4329,1.4283,1.4658,1.4335,1.4055,1.3815,1.3415,1.3152,1.2929,1.2456,1.2403,1.2881,1.1338,1.0965,1.1814,1.1366,1.1166,1.1166,1.1166,1.1166,1.841,0.0,0.0,0.0,1.9024,1.7889,1.3759,1.6182,1.9305,1.9305,2.0353,2.1475,2.2082,2.2514,2.2866,2.3062,2.2354,2.1895,2.2163,2.2481,2.2712,2.2764,2.3321,2.3609,2.3382,2.3475,2.3538,2.3538,2.307,2.2778,2.2778,2.216,2.1348,2.0362,2.0321,1.9867,1.8958,1.8317,1.8131,1.8396,1.6972,1.5834,1.5089,1.4586,1.3299,1.1513,1.1684,1.2788,1.439,1.3464,1.3217,1.3332,1.2254,1.1356,1.0698,1.0698,1.0522,1.0283,1.0283,1.0283,1.0283,1.0283,1.0283,1.0433,1.1287,1.1664,1.1957,1.2762,1.3088,1.3198,1.3198,1.3088,1.2984,1.2984,1.2832,1.289,1.342,1.4105,1.4866,1.572,1.6058,1.6145,1.5926,1.6058,1.6145,1.5926,1.5549,1.5225,1.5045,1.4318,1.3873,1.4066,1.3742,1.3647,1.4066,1.3742,1.3505,1.3505,1.3104,1.2881,1.2881,1.2452,1.229,1.251,1.0927,1.0466,1.1116,1.0665,1.0466,1.0466,1.0466,1.0466,0.0,0.0,0.0,0.0,1.9198,1.587,0.3405,1.0278,1.9305,1.9305,1.9332,1.9862,2.1608,2.13,2.084,2.1013,2.0328,2.0061,2.0841,2.0681,2.0772,2.155,2.2115,2.2428,2.2419,2.2722,2.295,2.295,2.252,2.2245,2.2245,2.1271,2.0288,1.9377,1.9334,1.8884,1.7963,1.7923,1.7444,1.6472,1.549,1.4669,1.4017,1.2565,1.1526,1.0889,1.0889,1.203,1.3732,1.1736,1.1833,1.31,1.1523,1.0669,1.0303,1.0303,1.0293,1.0283,1.0283,1.0283,1.0283,1.0283,1.0283,1.0395,1.0873,1.1399,1.1884,1.2389,1.2838,1.317,1.3163,1.2832,1.2502,1.2467,1.2138,1.1945,1.2478,1.3299,1.4087,1.4586,1.518,1.5365,1.4789,1.5192,1.5365,1.4789,1.4703,1.4468,1.3868,1.3768,1.3552,1.2973,1.2881,1.2881,1.2881,1.2881,1.2881,1.2881,1.2881,1.2881,1.2881,1.2881,1.2505,1.1864,1.1111,1.0415,0.9814,0.9766,0.9762,0.9762,0.9762,0.9762,1.8154,0.0,0.0,0.0,0.0,0.0,1.4068,1.6733,1.9305,1.9305,1.9913,2.0377,2.0099,2.0298,2.0279,1.9554,1.9485,1.9591,1.9815,2.001,2.0136,2.0116,2.0535,2.0738,2.0508,2.1039,2.1403,2.1403,2.1297,2.1224,2.1224,1.9659,1.8675,1.8394,1.7692,1.7177,1.6931,1.6464,1.6354,1.6479,1.5331,1.4351,1.3563,1.2708,1.1649,1.0454,1.0454,1.0801,1.1329,1.1381,1.1679,1.2043,1.1566,1.1118,1.0737,1.0737,1.0542,1.0283,1.0283,1.0283,1.0283,1.0283,1.0283,1.0467,1.1324,1.1695,1.1957,1.2797,1.2873,1.2615,1.2288,1.2354,1.2395,1.2066,1.1884,1.1834,1.1933,1.2397,1.3079,1.4059,1.4642,1.488,1.4749,1.4835,1.488,1.4749,1.4335,1.4003,1.3821,1.342,1.3113,1.2929,1.2881,1.2881,1.2881,1.2881,1.2881,1.2881,1.2881,1.2881,1.2881,1.1895,1.1737,1.2564,1.0482,0.9766,1.0517,0.9566,0.9057,0.9057,0.9057,0.9057,0.0,0.0,0.0,1.845,0.0,0.0,1.869,1.9305,1.9305,1.9305,1.5499,1.282,1.4915,1.5646,1.6544,1.8414,1.8916,1.9125,1.9326,1.931,1.9286,1.9258,1.9367,1.9308,1.8935,1.9311,1.946,1.9223,1.9406,1.9303,1.8847,1.7809,1.7032,1.6648,1.6311,1.6008,1.5744,1.5638,1.558,1.547,1.4808,1.3954,1.3023,1.2496,1.1624,1.0532,1.0356,1.0283,1.0322,1.0866,1.1067,1.1082,1.1221,1.1025,1.0649,1.0649,1.0493,1.0283,1.0283,1.0283,1.0283,1.0283,1.0283,1.0505,1.1516,1.1811,1.1993,1.2943,1.2867,1.2395,1.192,1.1842,1.1799,1.1542,1.133,1.1179,1.1136,1.1572,1.2282,1.3146,1.3876,1.4242,1.3978,1.4154,1.4242,1.3978,1.3652,1.3415,1.3415,1.3104,1.2881,1.2881,1.2881,1.2881,1.2881,1.2881,1.2881,1.2881,1.2881,1.2881,1.2881,1.2103,1.194,1.2452,1.0576,0.9766,0.9965,0.9159,0.8808,0.8808,0.8808,0.8808,0.0,0.0,0.0,1.7892,1.8208,0.0,1.9122,1.9218,1.909,1.863,0.9379,0.3045,0.8495,1.006,1.2234,1.7501,1.8356,1.8525,1.8979,1.8431,1.8135,1.8561,1.8271,1.7892,1.7544,1.7526,1.7344,1.6863,1.7221,1.6995,1.5983,1.5929,1.5578,1.4744,1.5236,1.5231,1.4703,1.5128,1.4923,1.4117,1.393,1.334,1.2441,1.1992,1.1454,1.0815,1.0444,1.0283,1.0283,1.0283,1.0283,1.0322,1.0693,1.061,1.0283,1.0283,1.0283,1.0283,1.0283,1.0283,1.0283,1.0283,1.0356,1.0539,1.1442,1.1774,1.2029,1.2832,1.2726,1.2282,1.1768,1.1319,1.0981,1.0943,1.0611,1.0283,1.0283,1.0998,1.1724,1.208,1.2985,1.3552,1.2973,1.3324,1.351,1.2973,1.2881,1.2881,1.2881,1.2881,1.2881,1.2881,1.2881,1.2881,1.2881,1.2881,1.2881,1.2881,1.2827,1.2822,1.2881,1.2774,1.2398,1.1814,1.1065,1.0068,0.8808,0.8808,0.8808,0.8808,0.8808,0.8752,1.8894,1.8407,1.7914,1.8091,1.8208,0.0,1.867,1.8753,1.7789,1.4445,1.1733,0.963,0.8475,1.2307,1.5921,1.6702,1.683,1.6962,1.7394,1.6691,1.6283,1.6671,1.6186,1.5781,1.5714,1.5916,1.5978,1.588,1.5914,1.5665,1.5009,1.4954,1.4886,1.4703,1.4789,1.4835,1.4703,1.3981,1.3746,1.4068,1.2714,1.205,1.202,1.1399,1.0844,1.04,1.0317,1.0283,1.0283,1.0283,1.0283,1.0327,1.0376,1.0356,1.0283,1.0283,1.0283,1.0283,1.0283,1.0283,1.0283,1.0283,1.0544,1.0905,1.1094,1.1726,1.2324,1.2144,1.1993,1.1737,1.0845,1.0797,1.0905,1.0544,1.0356,1.0283,1.0283,1.0998,1.1631,1.1714,1.2469,1.3065,1.2925,1.3017,1.3065,1.2929,1.2881,1.2881,1.2881,1.2881,1.2881,1.2881,1.2881,1.2881,1.2881,1.2881,1.2881,1.2881,1.2344,1.2295,1.2881,1.1796,1.1421,1.181,1.0614,0.9614,0.8808,0.8808,0.8808,0.8808,0.8808,0.8484,2.0035,1.9215,1.839,1.8526,1.8257,0.0,0.0,1.8208,1.7616,1.5521,1.5098,1.4533,1.2681,1.4601,1.6378,1.6133,1.6105,1.6082,1.597,1.5821,1.5615,1.5374,1.4924,1.4668,1.475,1.4499,1.4337,1.4301,1.361,1.3375,1.3784,1.3263,1.3035,1.3253,1.3072,1.2862,1.2545,1.2208,1.2022,1.2075,1.0965,1.0662,1.1072,1.0466,1.024,1.0283,1.0283,1.0283,1.0283,1.0283,1.0283,1.0283,1.0283,1.0283,1.0283,1.0283,1.0283,1.0283,1.0283,1.0283,1.0283,1.0283,1.0611,1.1014,1.1014,1.1542,1.1987,1.1223,1.1191,1.1212,1.0505,1.0264,1.0254,1.0273,1.0083,0.9961,1.0239,1.0572,1.0903,1.1066,1.138,1.1916,1.274,1.2881,1.2881,1.2881,1.2881,1.2881,1.2881,1.2881,1.2881,1.2881,1.2881,1.2769,1.2398,1.2666,1.272,1.2344,1.2344,1.2344,1.2344,1.1674,1.1166,1.0817,1.0167,0.9462,0.8808,0.8808,0.8808,0.8808,0.8808,0.8427,2.0772,1.9731,1.8682,1.8682,1.8242,1.778,0.0,0.0,0.0,1.7612,1.7612,1.74,1.6706,1.6133,1.5702,1.5489,1.5557,1.522,1.4048,1.4694,1.5066,1.447,1.3347,1.3035,1.3973,1.3223,1.2672,1.2591,1.1332,1.1147,1.2416,1.1498,1.1122,1.1429,1.1156,1.0855,1.0467,1.057,1.0479,1.0228,0.9516,0.9579,1.0283,0.976,0.9799,1.0283,1.0283,1.0283,1.0273,1.019,1.0161,1.0161,1.0249,1.0283,1.0283,1.0283,1.0283,1.0273,1.019,1.0161,1.0161,1.0161,1.0431,1.0743,1.0928,1.1159,1.1196,1.0412,1.0537,1.0797,1.0395,0.9922,0.9602,1.004,0.9721,0.9478,1.004,1.0035,1.0065,1.0431,1.0396,1.0807,1.2225,1.2515,1.2515,1.2666,1.2666,1.272,1.2881,1.2881,1.2881,1.2881,1.2774,1.2452,1.1864,1.2344,1.2452,1.1819,1.2246,1.23,1.1814,1.1562,1.0918,0.9814,0.9662,0.9364,0.8808,0.8808,0.8808,0.8808,0.8646,0.8212,1.9156,1.8564,1.7929,1.7929,1.787,1.7726,1.7415,0.0,1.7272,1.696,0.0,1.6672,1.5874,0.0,0.0,1.4456,1.4686,1.3892,1.0741,1.2146,1.3615,1.3927,1.011,0.8991,1.2935,1.2075,1.1218,1.1128,1.0105,0.9926,1.0998,1.042,1.0089,1.0131,1.0089,1.0299,1.0768,0.9926,0.9927,1.0775,0.9422,0.9319,1.0283,0.976,0.9799,1.0283,1.0283,1.0283,1.0254,0.9863,0.9665,0.9709,1.0132,1.0283,1.0283,1.0283,1.0283,1.0229,0.9839,0.9665,0.9665,0.9665,0.9692,0.982,1.0659,1.0369,0.982,1.0104,1.0283,1.0356,1.0322,0.9922,0.9518,0.9558,0.9199,0.8918,0.9478,0.9493,0.9559,1.0072,1.0096,1.0263,1.0901,1.1023,1.122,1.1823,1.1918,1.2183,1.2827,1.2881,1.2881,1.2881,1.2344,1.1868,1.1814,1.1868,1.1868,1.1814,1.1316,1.1271,1.1765,1.0665,0.9965,0.9814,0.9211,0.8857,0.8808,0.8808,0.8808,0.8804,0.8156,0.745,2.0238,1.935,1.8445,1.8445,1.8124,1.7758,1.7627,1.7447,1.7264,1.7126,0.0,0.0,0.0,0.0,0.0,0.0,1.4236,1.3668,1.2338,1.2755,1.2093,0.9133,0.9429,1.0573,1.239,1.1727,1.093,1.038,0.9634,0.9563,1.0253,0.9379,0.9168,0.986,0.8995,0.8659,0.8942,0.8288,0.8388,0.9147,0.8161,0.8456,0.9799,0.9279,0.9352,0.9902,0.9902,0.9766,0.9526,0.9346,0.9268,0.9287,0.9468,0.9541,0.9541,0.9541,0.9541,0.9517,0.9331,0.9087,0.8943,0.9159,0.914,0.9146,0.9808,0.9552,0.9075,0.9257,0.9346,0.9439,0.976,0.9199,0.872,0.9359,0.8837,0.848,0.9319,0.8959,0.8712,0.938,0.8977,0.871,0.9326,1.0071,1.0722,1.1132,1.1216,1.1321,1.1638,1.2039,1.2089,1.1737,1.1774,1.1462,1.0716,1.1015,1.1061,1.0665,1.0364,1.0368,1.0618,0.9714,0.9211,0.9211,0.8959,0.859,0.8156,0.8156,0.794,0.7506,0.767,0.7069,2.0331,1.9386,1.8513,1.8682,1.8266,1.7828,1.7889,1.75,1.7083,1.6979,1.6537,0.0,0.0,0.0,0.0,0.0,0.0,1.3534,1.3603,1.339,1.1699,0.7604,0.9993,1.1797,1.1332,1.0784,1.0242,0.9734,0.9031,0.8611,0.8575,0.7664,0.7759,0.9048,0.7978,0.7467,0.7671,0.725,0.7356,0.8115,0.736,0.7799,0.9275,0.8732,0.8846,0.94,0.9435,0.9287,0.8994,0.8882,0.8833,0.8823,0.8701,0.8657,0.8687,0.8916,0.9004,0.8955,0.8733,0.8411,0.812,0.8496,0.8477,0.8415,0.8854,0.874,0.848,0.848,0.8598,0.8801,0.9199,0.8598,0.8115,0.8878,0.8349,0.7904,0.8837,0.8308,0.7892,0.8636,0.7994,0.7535,0.8146,0.9129,1.0025,1.0464,1.0517,1.0614,1.0767,1.1216,1.1362,1.0864,1.1061,1.0864,0.9865,1.0265,1.0316,0.981,0.9814,0.9714,0.951,0.9061,0.8808,0.8808,0.859,0.8209,0.7723,0.7509,0.7017,0.631,0.6853,0.6632,1.8175,1.7647,1.7518,1.8168,1.8073,1.786,1.812,1.7372,1.6516,1.6218,1.5287,1.4463,1.4019,0.0,0.0,0.0,0.0,0.0,0.0,1.3087,1.2969,1.2353,1.1715,1.0776,0.9434,0.863,0.8472,0.9172,0.7889,0.6525,0.5315,0.4968,0.55,0.7043,0.7041,0.7293,0.7893,0.7283,0.7561,0.8679,0.752,0.7599,0.8703,0.8234,0.8329,0.8819,0.895,0.9019,0.897,0.8564,0.843,0.8386,0.7935,0.7739,0.7836,0.8696,0.9004,0.8878,0.8108,0.7521,0.7194,0.7526,0.7551,0.75,0.7847,0.7957,0.7916,0.7916,0.8316,0.872,0.872,0.8316,0.7916,0.7957,0.7489,0.7192,0.7829,0.7447,0.7196,0.7802,0.7419,0.7228,0.7792,0.8232,0.8764,0.9717,0.9814,1.0068,1.0716,1.0813,1.0813,1.0813,1.0265,0.9865,0.9814,0.9814,0.9814,0.9814,0.9814,0.9514,0.8857,0.8804,0.8808,0.8808,0.8103,0.7723,0.7723,0.6966,0.6256,0.554,0.5542,0.5925,1.8623,1.794,1.7345,1.7568,1.7447,1.74,1.7817,1.697,1.6145,1.6399,1.5413,1.4374,1.396,0.0,0.0,0.0,0.0,0.0,0.0,1.1833,1.1276,1.1494,1.0981,1.0074,0.8601,0.848,0.8296,0.7799,0.6579,0.4657,0.1876,0.3876,0.5685,0.6962,0.6979,0.7108,0.7318,0.7108,0.7185,0.7558,0.7572,0.7662,0.7866,0.8027,0.8127,0.8142,0.8181,0.8194,0.8114,0.8003,0.7949,0.7935,0.7759,0.77,0.7734,0.8021,0.7959,0.7637,0.6817,0.6545,0.6585,0.6657,0.6759,0.699,0.7688,0.7617,0.7405,0.7787,0.7739,0.7686,0.807,0.7739,0.7402,0.7787,0.7447,0.7147,0.7787,0.7405,0.725,0.8022,0.7711,0.7512,0.812,0.8307,0.8568,0.9065,0.9162,0.9211,0.9465,0.9865,0.9965,0.9514,0.9662,0.9614,0.9159,0.9162,0.9162,0.9162,0.9162,0.9061,0.8808,0.8808,0.859,0.8103,0.7833,0.723,0.6249,0.598,0.5492,0.4842,0.4842,0.495,1.8513,1.7828,1.7183,1.7419,1.7192,1.7007,1.7445,1.6594,1.5737,1.5934,1.492,1.396,1.3709,1.3642,0.0,0.0,0.0,0.0,0.0,1.1039,1.0253,1.0412,1.0176,0.9619,0.8605,0.8427,0.7829,0.6504,0.5333,0.3672,0.1397,0.3036,0.4837,0.6564,0.6849,0.6979,0.6979,0.6979,0.6979,0.7017,0.7296,0.7335,0.7111,0.7406,0.7416,0.7271,0.7462,0.7534,0.7505,0.7632,0.77,0.77,0.77,0.77,0.77,0.77,0.7348,0.6781,0.6125,0.5929,0.598,0.613,0.632,0.6588,0.7364,0.7321,0.7063,0.7489,0.7318,0.7108,0.7489,0.7276,0.7108,0.7492,0.728,0.7105,0.7489,0.7363,0.7364,0.7916,0.7826,0.7792,0.8287,0.8424,0.8474,0.8764,0.8808,0.8808,0.8808,0.9159,0.926,0.886,0.9211,0.9263,0.8857,0.8808,0.8808,0.8808,0.8808,0.8808,0.8808,0.8808,0.848,0.7723,0.7453,0.6689,0.5485,0.5271,0.4948,0.4517,0.4517,0.4517]},{"header":{"parameterUnit":"m.s-1","parameterCategory":1,"la1":30.6,"la2":29.2853,"lo1":-89.7004,"lo2":-87.6739,"dy":0.0162,"dx":0.0183,"nx":112,"ny":82,"refTime":"2023-07-24T12:00:00:Z","depth":0,"parameterNumber":3,"parameterNumberName":"V-component_of_WINDS"},"data":[0.0,0.0,0.0,0.0,0.0,0.0,0.0,0.0,0.0,0.0,0.0,0.0,0.0,0.0,0.0,0.0,0.0,0.0,0.0,0.0,0.0,0.0,0.0,0.0,0.0,0.0,0.0,0.0,0.0,0.0,0.0,0.0,0.0,0.0,0.0,0.0,0.0,0.0,0.0,0.0,0.0,0.0,0.0,0.0,0.0,0.0,0.0,0.0,0.0,0.0,0.0,0.0,0.0,0.0,0.0,0.0,0.0,0.0,0.0,0.0,0.0,0.0,0.0,0.0,0.0,0.0,0.0,0.0,0.0,0.0,0.0,0.0,0.0,0.0,0.0,0.0,0.0,0.0,0.0,0.0,0.0,0.0,0.0,0.0,0.0,0.0,0.0,0.0,0.0,0.0,0.3602,0.4082,0.5307,0.6344,0.684,0.7765,0.7831,0.6716,0.0,0.0,0.0,0.0,0.0,0.0,0.0,0.0,0.0,0.0,0.0,0.0,0.0,0.0,0.0,0.0,0.0,0.0,0.0,0.0,0.0,0.0,0.0,0.0,0.0,0.0,0.0,0.0,0.0,0.0,0.0,0.0,0.0,0.0,0.0,0.0,0.0,0.0,0.0,0.0,0.0,0.0,0.0,0.0,0.0,0.0,0.0,0.0,0.0,0.0,0.0,0.0,0.0,0.0,0.0,0.0,0.0,0.0,0.0,0.0,0.0,0.0,0.0,0.0,0.0,0.0,0.0,0.0,0.0,0.0,0.0,0.0,0.0,0.0,0.0,0.0,0.0,0.0,0.0,0.0,0.0,0.0,0.0,0.0,0.0,0.0,0.0,0.0,0.0,0.0,0.0,0.0,0.0,0.0,0.0,0.0,0.0,0.0,0.0,0.0,0.0,0.0,0.0,0.0,0.3564,0.4565,0.5342,0.5919,0.6297,0.6537,0.6449,0.5903,0.0,0.0,0.0,0.0,0.0,0.0,0.0,0.0,0.0,0.0,0.0,0.0,0.0,0.0,0.0,0.0,0.0,0.0,0.0,0.0,0.0,0.0,0.0,0.0,0.0,0.0,0.0,0.0,0.0,0.0,0.0,0.0,0.0,0.0,0.0,0.0,0.0,0.0,0.0,0.0,0.0,0.0,0.0,0.0,0.0,0.0,0.0,0.0,0.0,0.0,0.0,0.0,0.0,0.0,0.0,0.0,0.0,0.0,0.0,0.0,0.0,0.0,0.0,0.0,0.0,0.0,0.0,0.0,0.0,0.0,0.0,0.0,0.0,0.0,0.0,0.0,0.0,0.0,0.0,0.0,0.0,0.0,0.0,0.0,0.0,0.0,0.0,0.0,0.0,0.0,0.0,0.0,0.0,0.0,0.0,0.0,0.0,0.0,0.0,0.0,0.0,0.0,0.0,0.3529,0.3898,0.4716,0.5329,0.5835,0.6169,0.6263,0.6116,0.5726,0.7117,0.0,0.0,0.0,0.0,0.0,0.0,0.0,0.0,0.0,0.0,0.0,0.0,0.0,0.0,0.0,0.0,0.0,0.0,0.0,0.0,0.0,0.0,0.0,0.0,0.0,0.0,0.0,0.0,0.0,0.0,0.0,0.0,0.0,0.0,0.0,0.0,0.0,0.0,0.0,0.0,0.0,0.0,0.0,0.0,0.0,0.0,0.0,0.0,0.0,0.0,0.0,0.0,0.0,0.0,0.0,0.0,0.0,0.0,0.0,0.0,0.0,0.0,0.0,0.0,0.0,0.0,0.0,0.0,0.0,0.0,0.0,0.0,0.0,0.0,0.0,0.0,0.0,0.0,0.0,0.0,0.0,0.0,0.0,0.0,0.0,0.0,0.0,0.0,0.0,0.0,0.0,0.0,0.0,0.0,0.0,0.0,0.0,0.0,0.0,0.0,0.0,0.0,0.3862,0.4214,0.4585,0.5094,0.5498,0.5759,0.5871,0.5827,0.5514,0.6306,0.0,0.0,0.0,0.0,0.0,0.0,0.0,0.0,0.0,0.0,0.0,0.0,0.0,0.0,0.0,0.0,0.0,0.0,0.0,0.0,0.0,0.0,0.0,0.0,0.0,0.0,0.0,0.0,0.0,0.0,0.0,0.0,0.0,0.0,0.0,0.0,0.0,0.0,0.0,0.0,0.0,0.0,0.0,0.0,0.0,0.0,0.0,0.0,0.0,0.0,0.0,0.0,0.0,0.0,0.0,0.0,0.0,0.0,0.0,0.0,0.0,0.0,0.0,0.0,0.0,0.0,0.0,0.0,0.0,0.0,0.0,0.0,0.0,0.0,0.0,0.0,0.0,0.0,0.0,0.0,0.0,0.0,0.0,0.0,0.0,0.0,0.0,0.0,0.0,0.0,0.0,0.0,0.0,0.0,0.0,0.0,0.0,0.0,0.0,0.0,0.0,0.0,0.3856,0.4283,0.4082,0.4309,0.4506,0.4526,0.4752,0.4892,0.486,0.5503,0.0,0.0,0.0,0.0,0.0,0.0,0.0,0.0,0.0,0.0,0.0,0.0,0.0,0.0,0.0,0.0,0.0,0.0,0.0,0.0,0.0,0.0,0.0,0.0,0.0,0.0,0.0,0.0,0.0,0.0,0.0,0.0,0.0,0.0,0.0,0.0,0.0,0.0,0.0,0.0,0.0,0.0,0.0,0.0,0.0,0.0,0.0,0.0,0.0,0.0,0.0,0.0,0.0,0.0,0.0,0.0,0.0,0.0,0.0,0.0,0.0,0.0,0.0,0.0,0.0,0.0,0.0,0.0,0.0,0.0,0.0,0.0,0.0,0.0,0.0,0.0,0.0,0.0,0.0,0.0,0.0,0.0,0.0,0.0,0.0,0.0,0.0,0.0,0.0,0.0,0.0,0.0,0.0,0.0,0.0,0.0,0.0,0.0,0.0,0.0,0.0,0.0,0.3719,0.4105,0.4001,0.4392,0.4575,0.4419,0.487,0.5065,0.481,0.0,0.0,0.0,0.0,0.0,0.0,0.0,0.0,0.0,0.0,0.0,0.0,0.0,0.0,0.0,0.0,0.0,0.0,0.0,0.0,0.0,0.0,0.0,0.0,0.0,0.0,0.0,0.0,0.0,0.0,0.0,0.0,0.0,0.0,0.0,0.0,0.0,0.0,0.0,0.0,0.0,0.0,0.0,0.0,0.0,0.0,0.0,0.0,0.0,0.0,0.0,0.0,0.0,0.0,0.0,0.0,0.0,0.0,0.0,0.0,0.0,0.0,0.0,0.0,0.0,0.0,0.0,0.0,0.0,0.0,0.0,0.0,0.0,0.0,0.0,0.0,0.0,0.0,0.0,0.0,0.0,0.0,0.0,0.0,0.0,0.0,0.0,0.0,0.0,0.0,0.0,0.0,0.0,0.0,0.0,0.0,0.0,0.0,0.0,0.0,0.0,0.0,0.3224,0.3835,0.4178,0.4011,0.4325,0.4442,0.4152,0.4834,0.5093,0.4707,0.0,0.0,0.0,0.0,0.0,0.0,0.0,0.0,0.0,0.0,0.0,0.0,0.0,0.0,0.0,0.0,0.0,0.0,0.0,0.0,0.0,0.0,0.0,0.0,0.0,0.0,0.0,0.0,0.0,0.0,0.0,0.0,0.0,0.0,0.0,0.0,0.0,0.0,0.0,0.0,0.0,0.0,0.0,0.0,0.0,0.0,0.0,0.0,0.0,0.0,0.0,0.0,0.0,0.0,0.0,0.0,0.0,0.0,0.0,0.0,0.0,0.0,0.0,0.0,0.0,0.0,0.0,0.0,0.0,0.0,0.0,0.0,0.0,0.0,0.0,0.0,0.0,0.0,0.0,0.0,0.0,0.0,0.0,0.0,0.0,0.0,0.0,0.0,0.0,0.0,0.0,0.0,0.0,0.0,0.0,0.0,0.0,0.0,0.0,0.0,0.0,0.0,0.3545,0.4264,0.4588,0.4059,0.4002,0.3884,0.3539,0.4442,0.483,0.0,0.0,0.0,0.0,0.0,0.0,0.0,0.0,0.0,0.0,0.0,0.0,0.0,0.0,0.0,0.0,0.0,0.0,0.0,0.0,0.0,0.0,0.0,0.0,0.0,0.0,0.0,0.0,0.0,0.0,0.0,0.0,0.0,0.0,0.0,0.0,0.0,0.0,0.0,0.0,0.0,0.0,0.0,0.0,0.0,0.0,0.0,0.0,0.0,0.0,0.0,0.0,0.0,0.0,0.0,0.0,0.0,0.0,0.0,0.0,0.0,0.0,0.0,0.0,0.0,0.0,0.0,0.0,0.0,0.0,0.0,0.0,0.0,0.0,0.0,0.0,0.0,0.0,0.0,0.0,0.0,0.0,0.0,0.0,0.0,0.0,0.0,0.0,0.0,0.0,0.0,0.0,0.0,0.0,0.0,0.0,0.0,0.0,0.0,0.0,0.0,0.0,0.0,0.3523,0.4264,0.4665,0.4315,0.4459,0.4436,0.4168,0.515,0.5469,0.4731,0.0,0.0,0.0,0.0,0.0,0.0,0.0,0.0,0.0,0.0,0.0,0.0,0.0,0.0,0.0,0.0,0.0,0.0,0.0,0.0,0.0,0.0,0.0,0.0,0.0,0.0,0.0,0.0,0.0,0.0,0.0,0.0,0.0,0.0,0.0,0.0,0.0,0.0,0.0,0.0,0.0,0.0,0.0,0.0,0.0,0.0,0.0,0.0,0.0,0.0,0.0,0.0,0.0,0.0,0.0,0.0,0.0,0.0,0.0,0.0,0.0,0.0,0.0,0.0,0.0,0.0,0.0,0.0,0.0,0.0,0.0,0.0,0.0,0.0,0.0,0.0,0.0,0.0,0.0,0.0,0.0,0.0,0.0,0.0,0.0,0.0,0.0,0.0,0.0,0.0,0.0,0.0,0.0,0.0,0.0,0.0,0.0,0.0,0.0,0.0,0.0,0.0,0.3686,0.4457,0.487,0.4578,0.4704,0.4688,0.4429,0.5452,0.5788,0.5086,0.0,0.0,0.0,0.0,0.0,0.0,0.0,0.0,0.0,0.0,0.0,0.0,0.0,0.0,0.0,0.0,0.0,0.0,0.0,0.0,0.0,0.0,0.0,0.0,0.0,0.0,0.0,0.0,0.0,0.0,0.0,0.0,0.0,0.0,0.0,0.0,0.0,0.0,0.0,0.0,0.0,0.0,0.0,0.0,0.0,0.0,0.0,0.0,0.0,0.0,0.0,0.0,0.0,0.0,0.0,0.0,0.0,0.0,0.0,0.0,0.0,0.0,0.0,0.0,0.0,0.0,0.0,0.0,0.0,0.0,0.0,0.0,0.0,0.0,0.0,0.0,0.0,0.0,0.0,0.0,0.0,0.0,0.0,0.0,0.0,0.0,0.0,0.0,0.0,0.0,0.0,0.0,0.0,0.0,0.0,0.0,0.0,0.0,0.0,0.0,0.0,0.0,0.3993,0.4765,0.5177,0.4877,0.4847,0.4744,0.4506,0.5463,0.5888,0.5462,0.0,0.0,0.0,0.0,0.0,0.0,0.0,0.0,0.0,0.0,0.0,0.0,0.0,0.0,0.0,0.0,0.0,0.0,0.0,0.0,0.0,0.0,0.0,0.0,0.0,0.0,0.0,0.0,0.0,0.0,0.0,0.0,0.0,0.0,0.0,0.0,0.0,0.0,0.0,0.0,0.0,0.0,0.0,0.0,0.0,0.0,0.0,0.0,0.0,0.0,0.0,0.0,0.0,0.0,0.0,0.0,0.0,0.0,0.0,0.0,0.2695,0.3123,0.0,0.0,0.0,0.0,0.0,0.0,0.0,0.0,0.0,0.0,0.0,0.0,0.0,0.0,0.0,0.0,0.0,0.0,0.0,0.0,0.0,0.0,0.0,0.0,0.0,0.0,0.0,0.0,0.0,0.0,0.0,0.0,0.0,0.0,0.0,0.0,0.0,0.0,0.0,0.0,0.3993,0.4765,0.5285,0.519,0.5184,0.516,0.5127,0.5623,0.5899,0.5808,0.6386,0.0,0.0,0.0,0.0,0.0,0.0,0.0,0.0,0.0,0.0,0.0,0.0,0.0,0.0,0.0,0.0,0.0,0.0,0.0,0.0,0.0,0.0,0.0,0.0,0.0,0.0,0.0,0.0,0.0,0.0,0.0,0.0,0.0,0.0,0.0,0.0,0.0,0.0,0.0,0.0,0.0,0.0,0.0,0.0,0.0,0.0,0.0,0.0,0.0,0.0,0.0,0.0,0.0,0.0,0.0,0.0,0.0,0.0,0.0,0.3067,0.3462,0.0,0.0,0.0,0.0,0.0,0.0,0.0,0.0,0.0,0.0,0.0,0.0,0.0,0.0,0.0,0.0,0.0,0.0,0.0,0.0,0.0,0.0,0.0,0.0,0.0,0.0,0.0,0.0,0.0,0.0,0.0,0.0,0.0,0.0,0.0,0.0,0.0,0.0,0.0,0.0,0.3993,0.4765,0.5312,0.5312,0.5312,0.5312,0.5312,0.5675,0.5975,0.6187,0.6575,0.0,0.0,0.0,0.0,0.0,0.0,0.0,0.0,0.0,0.0,0.0,0.0,0.0,0.0,0.0,0.0,0.0,0.0,0.0,0.0,0.0,0.0,0.0,0.0,0.0,0.0,0.0,0.0,0.0,0.0,0.0,0.0,0.0,0.0,0.0,0.0,0.0,0.0,0.0,0.0,0.0,0.0,0.0,0.0,0.0,0.0,0.0,0.0,0.0,0.0,0.0,0.0,0.0,0.0,0.0,0.0,0.0,0.0652,0.1846,0.3086,0.3423,0.321,0.3306,0.0,0.0,0.0,0.0,0.0,0.0,0.0,0.0,0.0,0.0,0.0,0.0,0.0,0.0,0.0,0.0,0.0,0.0,0.0,0.0,0.0,0.0,0.295,0.3566,0.3297,0.3017,0.3414,0.0,0.0,0.0,0.0,0.0,0.0,0.0,0.0,0.0,0.0,0.0,0.3993,0.4765,0.5312,0.5312,0.5312,0.5312,0.5312,0.5617,0.6006,0.6484,0.6811,0.7216,0.0,0.0,0.0,0.0,0.0,0.0,0.0,0.0,0.0,0.0,0.0,0.0,0.0,0.0,0.0,0.0,0.0,0.0,0.0,0.0,0.0,0.0,0.0,0.0,0.0,0.0,0.0,0.0,0.0,0.0,0.0,0.0,-0.0359,-0.0045,0.0,0.0,0.0,0.0,0.0,0.0,0.0,0.0,0.0,0.0,0.0,0.0,0.0,0.0,0.0,0.0,0.0,0.0,0.0,0.0,0.0,0.0,0.0636,0.1879,0.3082,0.0,0.3522,0.3542,0.0,0.0,0.0,0.0,0.0,0.0,0.0,0.0,0.0,0.0,0.0,0.0,0.0,0.0,0.0,0.0,0.0,0.0,0.0,0.0,0.0,0.0,0.3371,0.3976,0.3506,0.2959,0.3142,0.3181,0.318,0.3311,0.3199,0.3082,0.0,0.0,0.0,0.0,0.0,0.0,0.3993,0.4765,0.5312,0.5312,0.5312,0.5312,0.5312,0.5344,0.5703,0.6453,0.6548,0.6914,0.7666,0.77,0.0,0.0,0.0,0.0,0.0,0.0,0.0,0.0,0.0,0.0,0.0,0.0,0.0,0.0,0.0,0.0,0.0,0.0,0.0,0.0,0.0,0.0,0.0,0.0,0.0,0.0,0.0,0.0,0.0,-0.1656,-0.1029,-0.1029,-0.1926,-0.2422,0.0,0.0,0.0,0.0,0.0,0.0,0.0,0.0,0.0,0.0,0.0,0.0,0.0,0.0,0.0,0.0,0.0,0.0,0.0,0.0,0.0678,0.1866,0.3244,0.3752,0.3607,0.3614,0.358,0.358,0.0,0.0,0.0,0.0,0.3966,0.4094,0.5005,0.5282,0.5285,0.5622,0.0,0.0,0.0,0.0,0.0,0.0,0.0,0.383,0.5099,0.425,0.3271,0.4117,0.3532,0.2798,0.2861,0.2873,0.2942,0.3135,0.3065,0.3027,0.3068,0.2932,0.0,0.0,0.0,0.3691,0.3958,0.4538,0.502,0.5281,0.5312,0.5312,0.5312,0.5312,0.5644,0.6457,0.6484,0.6859,0.7666,0.77,0.781,0.0,0.0,0.0,0.0,0.0,0.0,0.0,0.0,0.0,0.0,0.0,0.0,0.0,0.0,0.0,0.0,0.0,0.0,0.0,0.0,0.0,0.0,0.0,0.0,0.0,0.0,0.0,0.0,-0.2279,-0.2279,-0.2279,-0.2277,-0.2594,0.0,0.0,0.0,0.0,0.0,0.0,0.0,0.0,0.0,0.0,0.0,0.0,0.0,0.0,0.0,0.0,0.0,0.0,0.0,0.0,0.0507,0.1433,0.2891,0.3629,0.3756,0.3697,0.3614,0.358,0.358,0.358,0.3622,0.3751,0.3794,0.3974,0.4979,0.5347,0.5438,0.6055,0.6234,0.6136,0.5655,0.0,0.0,0.0,0.0,0.3676,0.5262,0.4349,0.318,0.4046,0.3506,0.2783,0.2747,0.2739,0.2803,0.3024,0.2949,0.2896,0.3041,0.2851,0.0,0.2834,0.3222,0.3593,0.3961,0.4441,0.4922,0.5249,0.5312,0.5312,0.5312,0.54,0.5765,0.6453,0.6605,0.6978,0.7666,0.77,0.7827,0.8094,0.0,0.0,0.0,0.0,0.0,0.0,0.0,0.0,0.0,0.0,0.0,0.0,0.0,0.0,0.0,0.0,0.0,0.0,0.0,0.0,0.0,0.0,0.0,0.0,0.0,0.0,0.0,0.0,0.0,-0.3506,-0.3496,0.0,0.0,0.0,0.0,-0.018,0.0,0.0,0.0,0.0,0.0,0.0,0.0,0.0,0.0,0.0,0.0,0.0,0.0,0.0,0.0,0.0,0.0052,0.0159,0.1636,0.302,0.4166,0.3899,0.3702,0.358,0.358,0.358,0.3667,0.4178,0.4347,0.4458,0.5233,0.5489,0.5578,0.6208,0.6325,0.6181,0.6181,0.5348,0.0,0.0,0.4773,0.3676,0.5262,0.441,0.3225,0.3728,0.345,0.3061,0.2927,0.2896,0.2901,0.2917,0.2796,0.274,0.2893,0.0,0.2716,0.2724,0.3442,0.3958,0.3993,0.4733,0.5281,0.5312,0.5312,0.5312,0.5312,0.5641,0.6064,0.6484,0.6845,0.7246,0.7671,0.77,0.8089,0.8921,0.8466,0.0,0.0,0.0,0.0,0.0,0.0,0.0,0.0,0.0,0.0,0.0,0.0,0.0,0.0,0.0,0.0,0.0,0.0,0.0,0.0,0.0,0.0,0.0,0.0,0.0,0.0,0.0,0.0,-0.3587,-0.3581,0.0,-0.3719,-0.2933,-0.2186,-0.1578,-0.2392,-0.2066,-0.0093,0.0,0.0,0.0,0.0,0.0,0.0,0.0,0.0,0.0,0.0,0.0,0.0,0.0,0.0,0.0055,0.1574,0.3043,0.4405,0.4282,0.4106,0.3863,0.3863,0.3863,0.3863,0.4095,0.4138,0.4243,0.4878,0.5097,0.517,0.5687,0.577,0.5723,0.5658,0.5043,0.4563,0.5392,0.461,0.3794,0.5104,0.4326,0.3466,0.4421,0.4126,0.3723,0.3832,0.4035,0.4088,0.3689,0.3117,0.273,0.2883,0.2783,0.2715,0.2813,0.3409,0.3956,0.4237,0.4958,0.5558,0.5842,0.5877,0.5877,0.5877,0.6013,0.6422,0.7172,0.7336,0.7774,0.8517,0.8291,0.8545,0.9354,0.8933,0.9092,0.0,0.0,0.0,0.0,0.0,0.0,0.0,0.0,0.0,0.0,0.0,0.0,0.0,0.0,0.0,0.0,0.0,0.0,0.0,0.0,0.0,0.0,0.0,0.0,0.0,-0.3672,-0.3519,-0.3058,-0.3419,-0.3768,-0.387,-0.3101,-0.2518,-0.2368,-0.3496,-0.3415,-0.1606,-0.0554,0.0,0.0,0.0,0.0,0.0,0.0,0.0,0.0,0.0,0.0,0.0,0.0,0.0,0.0056,0.1007,0.2321,0.3746,0.4287,0.4381,0.416,0.4058,0.4019,0.4019,0.4019,0.4019,0.4077,0.4528,0.4797,0.5023,0.5286,0.5436,0.5476,0.5375,0.4925,0.452,0.513,0.4531,0.3905,0.5021,0.4524,0.3995,0.4932,0.481,0.4493,0.4622,0.4807,0.4819,0.4256,0.3664,0.328,0.3272,0.3186,0.318,0.3265,0.3815,0.4345,0.46,0.5281,0.5853,0.6156,0.6193,0.6193,0.6193,0.6336,0.6731,0.7562,0.7744,0.8162,0.897,0.8735,0.8921,0.9583,0.9502,0.9712,1.0278,0.0,0.0,0.0,0.0,0.0,0.0,0.0,0.0,0.0,0.0,0.0,0.0,0.0,0.0,0.0,0.0,0.0,0.0,0.0,0.0,0.0,0.0,0.0,-0.3534,-0.3729,-0.3384,-0.2045,-0.3144,-0.4031,-0.4008,-0.4105,-0.3639,-0.237,-0.3096,-0.3875,-0.4394,-0.1675,-0.0053,-0.0,0.0,0.0,0.0,0.0,0.0,0.0,0.0,0.0,0.0,0.0,0.0,0.0,0.0,0.0837,0.2343,0.3858,0.4472,0.4489,0.4146,0.4034,0.4034,0.4034,0.4034,0.4055,0.415,0.4612,0.5068,0.5064,0.5273,0.5479,0.5472,0.4999,0.4572,0.514,0.4617,0.4074,0.5062,0.503,0.4857,0.5235,0.5359,0.5292,0.518,0.5136,0.5005,0.4559,0.4478,0.4371,0.4067,0.3993,0.3996,0.4001,0.4632,0.0,0.5112,0.5782,0.6219,0.6219,0.6219,0.6219,0.626,0.6614,0.708,0.7631,0.8022,0.8482,0.9009,0.9033,0.9214,0.9588,1.0059,1.0278,1.0278,0.0,0.0,0.0,0.0,0.0,0.0,0.0,0.0,0.0,0.0,0.0,0.0,0.0,0.0,0.0,0.0,0.0,0.0,0.0,0.0,0.0,-0.0569,-0.1283,-0.2154,-0.3252,-0.3883,-0.3575,-0.391,-0.4129,-0.4133,-0.4199,-0.4041,-0.3663,-0.4028,-0.3937,-0.3257,-0.2163,-0.1101,-0.0055,0.0,0.0,0.0,0.0,0.0,0.0,0.0,0.0,0.0,0.0,0.0,0.0,0.0,0.0839,0.2293,0.3868,0.4484,0.4465,0.4375,0.4339,0.4339,0.4339,0.4339,0.4346,0.4389,0.4509,0.4651,0.4486,0.4851,0.5349,0.5253,0.5253,0.536,0.554,0.5249,0.4977,0.547,0.5497,0.5575,0.6105,0.6228,0.6241,0.6207,0.6338,0.6316,0.581,0.5864,0.5563,0.422,0.3993,0.408,0.4274,0.4917,0.5473,0.5665,0.6322,0.6784,0.6784,0.6784,0.6949,0.7401,0.7517,0.7988,0.8923,0.9081,0.9388,0.9932,0.9629,0.9476,0.9592,1.0059,1.0123,0.0,0.0,0.0,0.0,0.0,0.0,0.0,0.0,0.0,0.0,0.0,0.0,0.0,0.0,0.0,0.0,0.0,0.0,0.0,0.0,0.0,0.0,0.0,-0.0687,-0.2642,-0.2595,-0.2837,-0.4143,-0.4349,-0.4309,-0.4338,-0.4346,-0.4345,-0.4339,-0.4426,-0.4216,-0.3475,-0.3263,-0.2178,-0.0056,0.0,0.0,0.0,0.0,0.0,0.0,0.0,0.0,0.0,0.0,0.0,0.0056,0.0673,0.1401,0.2293,0.3189,0.3916,0.4525,0.0,0.0,0.0,0.0,0.4517,0.4517,0.4517,0.4517,0.4503,0.4363,0.4559,0.4848,0.4745,0.4975,0.5287,0.5417,0.5433,0.5475,0.5968,0.6122,0.6282,0.6668,0.6883,0.6938,0.6788,0.6904,0.6884,0.6465,0.6473,0.0,0.5124,0.4926,0.4975,0.5121,0.5621,0.6005,0.6165,0.6673,0.6979,0.6979,0.6979,0.7234,0.7833,0.7916,0.0,0.0,0.0,0.976,1.0283,1.0039,0.0,0.0,0.0,1.0162,0.9839,0.9992,0.0,0.0,0.9606,0.938,0.0,0.0,0.0,0.0,0.0,0.0,0.0,0.0,0.0,0.0,0.0,0.0,0.0,0.0,0.0,0.0,-0.0397,-0.1387,-0.3906,-0.2085,-0.1494,-0.4196,-0.452,-0.4479,-0.4477,-0.4522,-0.4517,-0.4517,-0.4472,-0.4477,-0.4477,-0.449,0.0,0.0,0.0,0.0,0.0,0.0,0.0,0.0,0.0,0.0,0.0,0.0,0.0168,0.0561,0.1909,0.2467,0.2456,0.2454,0.3288,0.4517,0.4517,0.4517,0.4517,0.4517,0.4517,0.4517,0.4517,0.0,0.0,0.4517,0.4429,0.4323,0.4323,0.4569,0.4905,0.5147,0.5336,0.5649,0.6367,0.6649,0.6833,0.7012,0.7277,0.7436,0.7128,0.7044,0.6947,0.6687,0.664,0.6556,0.6334,0.6236,0.6206,0.6236,0.6461,0.66,0.6633,0.6864,0.6979,0.6979,0.6979,0.0,0.7833,0.7953,0.8439,0.9439,0.9558,0.9799,1.0283,1.0283,1.0283,1.0283,1.0283,1.0283,1.0283,1.0371,1.0352,1.0371,0.9818,0.9711,0.0,0.0,0.0,0.0,0.0,0.0,0.0,0.0,0.0,0.0,0.0,0.0,0.0,0.0,0.0,-0.1798,-0.2832,-0.3422,-0.2755,-0.3214,-0.383,-0.4441,-0.4519,-0.4475,-0.452,-0.4519,-0.4517,-0.4517,-0.4519,-0.452,-0.452,-0.4484,-0.4212,-0.3644,-0.1287,0.0,0.0,0.0,0.0,0.0,0.0,0.0,0.0,0.0,0.1347,0.3669,0.3946,0.4054,0.405,0.4033,0.4245,0.4517,0.4517,0.4517,0.4517,0.4517,0.4517,0.4517,0.4517,0.4517,0.4517,0.4517,0.482,0.5223,0.5223,0.5545,0.0,0.5864,0.5674,0.5592,0.601,0.6374,0.6759,0.7136,0.7398,0.7496,0.7436,0.7191,0.7004,0.6951,0.6937,0.6921,0.6864,0.6466,0.6273,0.6508,0.6553,0.6673,0.6907,0.6987,0.6979,0.6979,0.6979,0.7234,0.7833,0.8316,0.8797,0.9478,0.9922,1.0201,1.0283,1.0283,1.0283,1.0283,1.0283,1.0283,1.0283,1.0625,1.0786,1.0781,1.0355,1.0155,0.0,0.0,0.0,0.0,0.0,0.0,0.0,0.0,0.0,0.0,0.0,-0.389,-0.3967,0.0,-0.2839,-0.231,-0.3513,-0.4216,-0.3449,-0.4035,-0.4494,-0.448,-0.4479,-0.4473,-0.4519,-0.4517,-0.4517,-0.4517,-0.4517,-0.4517,-0.4517,-0.4472,-0.4254,-0.3747,-0.2288,-0.1396,-0.1118,-0.1118,-0.1118,-0.1118,-0.1118,-0.0727,0.0,0.0,0.084,0.2305,0.3835,0.4519,0.4512,0.449,0.4472,0.4517,0.4517,0.4517,0.4517,0.4517,0.4517,0.4517,0.4517,0.4517,0.4517,0.4517,0.4734,0.5003,0.5003,0.5309,0.5677,0.5733,0.5715,0.5686,0.5947,0.6367,0.6699,0.6757,0.7116,0.7469,0.7278,0.7124,0.6979,0.6979,0.6979,0.6979,0.6979,0.678,0.664,0.6784,0.7051,0.7318,0.7429,0.769,0.7848,0.7848,0.7848,0.8095,0.8635,0.9199,0.9597,0.9883,1.0157,1.0283,1.0283,1.0283,1.0283,1.0283,1.0488,1.0596,1.0596,1.1025,1.1235,1.123,1.1057,1.0753,0.0,0.0,0.0,0.0,0.0,0.0,0.0,-0.306,-0.2843,-0.3894,-0.4198,-0.4254,-0.4158,-0.4222,-0.3896,-0.2879,-0.3759,-0.456,-0.456,-0.4502,-0.4485,-0.4477,-0.4477,-0.4473,-0.4519,-0.4517,-0.4517,-0.4517,-0.4517,-0.4517,-0.4517,-0.4519,-0.4127,-0.3343,-0.3289,-0.3069,-0.2624,-0.2624,-0.2624,-0.2624,-0.2624,-0.2009,-0.0837,-0.0279,0.0,0.0112,0.2586,0.3775,0.405,0.4374,0.4477,0.4524,0.4524,0.4522,0.452,0.4517,0.4517,0.4517,0.4517,0.4517,0.4517,0.4517,0.4517,0.4517,0.4517,0.475,0.5031,0.5193,0.5377,0.5491,0.5646,0.6049,0.6362,0.6082,0.6571,0.7097,0.7014,0.6934,0.6911,0.7055,0.7061,0.6979,0.6979,0.6979,0.6979,0.6979,0.7405,0.7787,0.7874,0.8275,0.8598,0.8679,0.872,0.8918,0.9439,0.9878,1.0205,1.0278,1.0356,1.0405,1.0405,1.0483,1.0532,1.0532,1.0864,1.1035,1.104,1.1475,1.1734,1.1738,1.1674,1.1348,-0.385,-0.349,-0.3375,-0.3698,-0.377,-0.3809,0.0,-0.3799,-0.3897,-0.4617,-0.4601,-0.4584,-0.4876,-0.4692,-0.45,-0.4577,-0.4681,-0.4721,-0.4667,-0.4551,-0.452,-0.4519,-0.4472,-0.4473,-0.4519,-0.4517,-0.4517,-0.4517,-0.4517,-0.4517,-0.4517,-0.4472,-0.4421,-0.4309,-0.4319,-0.4322,-0.4266,-0.4266,-0.4266,-0.4266,-0.4266,-0.4154,-0.3926,-0.1228,0.0,0.0,0.0335,0.1228,0.2568,0.3923,0.4494,0.4494,0.4494,0.4485,0.4475,0.452,0.4517,0.4517,0.4517,0.4517,0.4517,0.4517,0.4517,0.4517,0.4517,0.4505,0.4522,0.4409,0.435,0.4376,0.4376,0.4776,0.5181,0.5356,0.5574,0.5967,0.6913,0.6684,0.6505,0.7276,0.7204,0.6979,0.6979,0.6979,0.6979,0.6979,0.7063,0.7276,0.7829,0.7953,0.8156,0.8639,0.872,0.8918,0.9439,0.9558,0.9799,1.0283,1.063,1.084,1.084,1.1211,1.1459,1.1459,1.1503,1.1533,1.1533,1.1938,1.2112,1.2117,1.1876,1.1649,-0.4261,-0.4132,-0.4061,-0.3967,-0.3992,-0.4046,-0.4195,-0.4298,-0.4436,-0.473,-0.4757,-0.4796,-0.493,-0.4831,-0.4758,-0.4791,-0.4736,-0.4723,-0.4572,-0.4558,-0.4431,-0.4348,-0.4343,-0.4377,-0.451,-0.4517,-0.4517,-0.4517,-0.4517,-0.4517,-0.4517,-0.4522,-0.4524,-0.4524,-0.4473,-0.4475,-0.4475,-0.4475,-0.4475,-0.4475,-0.4475,-0.4479,-0.443,-0.3184,-0.1673,0.0,0.0,0.0335,0.0948,0.162,0.2403,0.3187,0.3187,0.3184,0.3294,0.419,0.4522,0.4517,0.4517,0.4517,0.4517,0.4517,0.4517,0.4517,0.4517,0.4517,0.4558,0.4867,0.4954,0.5038,0.5408,0.5884,0.6312,0.6321,0.6653,0.7013,0.7465,0.7266,0.7054,0.7442,0.7365,0.7354,0.7482,0.7831,0.818,0.833,0.7891,0.7621,0.7874,0.8439,0.9039,0.9558,0.9637,0.9813,1.0293,1.0316,1.0543,1.1011,1.1191,1.1332,1.1332,1.1508,1.1606,1.1606,1.1816,1.1953,1.1953,1.2393,1.2607,1.2612,1.2478,1.2416,-0.5142,-0.5101,-0.5042,-0.4843,-0.4724,-0.4732,-0.4941,-0.4843,-0.4765,-0.4802,-0.487,-0.4931,-0.497,-0.4945,-0.4882,-0.4772,-0.4719,-0.4652,-0.4541,-0.4455,-0.438,-0.4314,-0.422,-0.4236,-0.4392,-0.4404,-0.4404,-0.4404,-0.4494,-0.4517,-0.4517,-0.4517,-0.4517,-0.4517,-0.4517,-0.4517,-0.4517,-0.4517,-0.4517,-0.4517,-0.4517,-0.4522,-0.4473,-0.4477,-0.3296,-0.1172,-0.0335,0.0,0.0,0.0,0.0614,0.162,0.2068,0.2178,0.2401,0.392,0.448,0.4472,0.4472,0.4472,0.4525,0.4522,0.4522,0.452,0.4519,0.4517,0.4625,0.5326,0.5485,0.5673,0.628,0.6766,0.707,0.6918,0.7206,0.7553,0.7753,0.7702,0.7735,0.7965,0.8091,0.8224,0.8427,0.8874,0.9249,0.9437,0.88,0.8291,0.8291,0.8982,0.9762,1.04,1.0454,1.0625,1.1055,1.1251,1.1427,1.1582,1.1841,1.1954,1.1792,1.1905,1.1969,1.1969,1.2246,1.2407,1.2407,1.2725,1.2881,1.2881,1.2881,1.2881,-0.6824,-0.6564,-0.6258,-0.6607,-0.6341,-0.5983,-0.6105,-0.55,-0.495,-0.5087,-0.5011,-0.4962,-0.5099,-0.5013,-0.4918,-0.4913,-0.4787,-0.4689,-0.4684,-0.4436,-0.4306,-0.4494,-0.4333,-0.4197,-0.42,-0.4202,-0.4202,-0.4202,-0.4384,-0.4517,-0.4517,-0.4517,-0.4517,-0.4517,-0.4517,-0.4517,-0.4517,-0.4517,-0.4517,-0.4517,-0.4517,-0.4517,-0.4519,-0.4473,-0.443,-0.4211,-0.1284,0.0,0.0,0.0,0.0,0.0224,0.1628,0.2188,0.2409,0.3938,0.4506,0.4496,0.4496,0.4496,0.4494,0.4482,0.4479,0.4475,0.452,0.4517,0.4625,0.5326,0.5485,0.5649,0.6414,0.6632,0.6574,0.645,0.6447,0.6651,0.7369,0.783,0.8315,0.9182,0.9596,0.9851,0.9843,0.9856,0.9868,0.9901,0.9506,0.9277,0.9277,0.9381,0.9869,1.0763,1.0889,1.1069,1.1547,1.2133,1.2218,1.1645,1.251,1.2801,1.2207,1.2617,1.2842,1.2842,1.2852,1.2861,1.2861,1.2876,1.2881,1.2881,1.2881,1.2881,-0.7575,-0.7385,-0.725,-0.7557,-0.735,-0.7193,-0.7547,-0.6817,-0.6077,-0.5959,-0.5686,-0.5493,-0.5443,-0.5388,-0.5315,-0.5199,-0.4887,-0.4655,-0.4553,-0.4453,-0.4373,-0.4326,-0.4224,-0.4155,-0.4055,-0.4137,-0.4195,-0.4195,-0.4239,-0.4362,-0.4512,-0.4517,-0.4517,-0.4517,-0.4517,-0.4517,-0.4517,-0.4517,-0.4517,-0.4517,-0.4517,-0.4517,-0.4517,-0.452,-0.4473,-0.4426,-0.3409,-0.184,0.0,0.0,0.0,0.0056,0.0561,0.0729,0.0784,0.1345,0.2132,0.2976,0.2965,0.3184,0.3462,0.307,0.3684,0.4524,0.4472,0.4524,0.4625,0.5326,0.5485,0.576,0.7015,0.7343,0.743,0.7881,0.8013,0.8072,0.8284,0.8158,0.8232,0.9219,0.9297,0.9512,1.0333,1.0635,1.0714,1.0503,0.9834,0.9334,0.9418,0.9703,1.0164,1.0852,1.1172,1.1523,1.1968,1.2556,1.2937,1.3068,1.3769,1.3906,1.3279,1.3423,1.351,1.351,1.3104,1.3109,1.351,1.3109,1.2881,1.2881,1.2881,1.2881,-0.9252,-0.9274,-0.9342,-0.9599,-0.9156,-0.8811,-0.9071,-0.8049,-0.6951,-0.6695,-0.649,-0.618,-0.5834,-0.585,-0.5864,-0.5527,-0.5238,-0.5082,-0.5083,-0.5077,-0.4939,-0.4689,-0.4643,-0.4566,-0.4459,-0.4545,-0.4505,-0.4194,-0.4242,-0.4363,-0.4512,-0.4517,-0.4517,-0.4517,-0.4517,-0.4517,-0.4517,-0.4517,-0.4517,-0.4517,-0.4517,-0.4517,-0.4517,-0.4517,-0.452,-0.4473,-0.4477,-0.3407,-0.1561,-0.1004,-0.0503,-0.0056,-0.0559,-0.0448,0.0,0.0,0.0616,0.1403,0.1397,0.1618,0.2064,0.2793,0.2957,0.3118,0.4189,0.4525,0.4631,0.5326,0.5485,0.5867,0.734,0.7723,0.7886,0.8646,0.8808,0.8808,0.8808,0.8622,0.8611,0.9291,0.934,0.9644,1.079,1.1311,1.1496,1.1331,1.0622,1.0096,0.9975,1.0203,1.059,1.1276,1.1631,1.1978,1.2427,1.3206,1.3723,1.38,1.4555,1.4738,1.4149,1.4102,1.4003,1.3821,1.342,1.342,1.3821,1.3195,1.3017,1.3243,1.3017,1.2881,-1.167,-1.1995,-1.2241,-1.2555,-1.1654,-1.061,-1.061,-0.9075,-0.754,-0.731,-0.7215,-0.7015,-0.6247,-0.6383,-0.6481,-0.596,-0.5885,-0.592,-0.6176,-0.6087,-0.5913,-0.5608,-0.5447,-0.5343,-0.5343,-0.5345,-0.5034,-0.4309,-0.4433,-0.451,-0.4517,-0.4517,-0.4517,-0.4517,-0.4517,-0.4517,-0.4517,-0.4517,-0.4517,-0.4517,-0.4517,-0.4517,-0.457,-0.4519,-0.4517,-0.4572,-0.4529,-0.4479,-0.4364,-0.2902,-0.1506,-0.0335,-0.1673,-0.1396,-0.0224,-0.0056,0.0,0.0,0.0,0.0,0.0448,0.3364,0.246,0.0725,0.3565,0.4413,0.4639,0.5275,0.5433,0.5812,0.727,0.7658,0.7827,0.8573,0.8798,0.8804,0.8788,0.9047,0.9358,0.9403,0.9761,1.0332,1.1267,1.1897,1.2209,1.219,1.1885,1.1475,1.0887,1.0896,1.1247,1.209,1.2246,1.2427,1.2847,1.4025,1.4468,1.3868,1.5,1.5371,1.4789,1.4744,1.4468,1.3868,1.3821,1.3821,1.3815,1.3243,1.3243,1.3774,1.3195,1.2929,-1.2537,-1.2798,-1.2939,-1.3178,-1.2759,-1.2312,-1.2254,-1.0862,-0.9489,-0.8977,-0.84,-0.7851,-0.7537,-0.7426,-0.7291,-0.7151,-0.6744,-0.6435,-0.649,-0.6453,-0.6407,-0.6355,-0.6267,-0.6292,-0.6292,-0.5746,-0.5367,-0.5207,-0.5132,-0.4931,-0.4512,-0.4517,-0.4517,-0.4517,-0.4517,-0.4517,-0.4517,-0.4517,-0.4517,-0.4517,-0.4517,-0.4787,-0.5216,-0.4734,-0.4787,-0.5218,-0.4736,-0.4525,-0.4479,-0.4082,-0.3692,-0.3303,-0.2513,-0.2686,-0.3088,-0.0838,0.0,0.0,0.0,0.0,0.0112,0.0895,0.2124,0.3294,0.29,0.3569,0.452,0.4734,0.4732,0.5029,0.6265,0.6723,0.7138,0.822,0.8647,0.8751,0.8534,0.8395,0.8553,0.9466,1.0685,1.1713,1.1961,1.2396,1.2603,1.2229,1.2407,1.23,1.1508,1.2034,1.2418,1.2212,1.2913,1.325,1.2915,1.4025,1.4652,1.4474,1.5605,1.6008,1.541,1.5365,1.5096,1.4468,1.4055,1.4003,1.4468,1.3868,1.3642,1.3821,1.3637,1.3329,-1.4849,-1.5283,-1.5393,-1.4962,-1.4314,-1.3535,-1.2768,-1.1487,-1.0284,-0.9616,-0.9194,-0.8808,-0.8404,-0.8272,-0.8179,-0.7961,-0.7502,-0.7315,-0.7777,-0.7596,-0.743,-0.752,-0.7281,-0.7074,-0.7074,-0.6689,-0.6465,-0.6465,-0.5507,-0.4802,-0.4513,-0.4517,-0.4517,-0.4517,-0.4517,-0.4517,-0.4517,-0.4517,-0.4517,-0.4517,-0.4787,-0.5109,-0.5485,-0.5111,-0.5166,-0.5485,-0.4787,-0.452,-0.4472,-0.4472,-0.4479,-0.4432,-0.3522,-0.3756,-0.4284,-0.2578,-0.1119,0.0,0.0,0.0,0.0,0.0,0.1118,0.2627,0.3076,0.3803,0.4475,0.4525,0.452,0.4712,0.5626,0.6473,0.7233,0.7912,0.8671,0.9114,0.8649,0.833,0.8366,0.9183,1.0462,1.1495,1.1785,1.2276,1.2578,1.2524,1.2563,1.2485,1.2229,1.2869,1.339,1.3314,1.3859,1.3962,1.3334,1.4154,1.4703,1.4703,1.5599,1.6051,1.6002,1.6002,1.5732,1.5101,1.4772,1.4778,1.5096,1.4514,1.4324,1.4584,1.4324,1.3873,-1.7511,-1.8002,-1.7994,-1.6853,-1.5655,-1.4299,-1.2716,-1.1588,-1.059,-0.9864,-0.9818,-0.9755,-0.9059,-0.9132,-0.9092,-0.8492,-0.8254,-0.8401,-0.9158,-0.8891,-0.8609,-0.8714,-0.8336,-0.8084,-0.7984,-0.7877,-0.7821,-0.7821,-0.5928,-0.4789,-0.4789,-0.468,-0.457,-0.4517,-0.4517,-0.4517,-0.4517,-0.457,-0.4625,-0.4625,-0.5328,-0.5706,-0.576,-0.5594,-0.554,-0.5599,-0.4842,-0.4517,-0.4517,-0.4517,-0.4522,-0.4477,-0.4479,-0.4378,-0.4225,-0.4399,-0.2582,0.0,0.0,0.0,0.0,0.0,0.0,0.0504,0.3363,0.4265,0.432,0.448,0.4524,0.462,0.5297,0.6526,0.7606,0.777,0.8894,0.9751,0.9162,0.8866,0.8819,0.9178,1.0062,1.0962,1.1503,1.2052,1.253,1.2871,1.2559,1.2451,1.2967,1.3462,1.4009,1.4514,1.4652,1.4468,1.3956,1.4463,1.4789,1.4703,1.5326,1.5914,1.6374,1.6472,1.6238,1.5626,1.5588,1.5588,1.5588,1.5056,1.5101,1.5588,1.5056,1.4514,-1.7612,-1.7328,-1.687,-1.621,-1.5411,-1.4448,-1.3106,-1.2349,-1.1657,-1.0847,-1.0431,-1.0209,-1.0054,-1.02,-1.0048,-0.9127,-0.9268,-0.9278,-0.8645,-0.9122,-0.9345,-0.884,-0.9647,-1.0049,-0.9499,-0.8908,-0.8531,-0.8531,-0.7106,-0.6263,-0.6263,-0.5655,-0.5056,-0.4517,-0.4517,-0.4517,-0.4517,-0.5058,-0.5324,-0.5326,-0.6036,-0.6745,-0.7286,-0.6029,-0.5817,-0.6312,-0.5062,-0.4517,-0.4517,-0.4517,-0.4519,-0.452,-0.4475,-0.3747,-0.2738,-0.4051,-0.2582,0.0,0.0,0.0,0.0,0.0,0.0,0.0335,0.2065,0.2901,0.3457,0.4241,0.4519,0.4595,0.5041,0.636,0.7714,0.8079,0.943,1.0533,1.0201,1.0241,1.0508,1.0898,1.1865,1.265,1.2638,1.3112,1.337,1.2958,1.2817,1.2976,1.3584,1.3732,1.3815,1.3956,1.4376,1.4658,1.4566,1.5096,1.5236,1.4749,1.5744,1.6188,1.577,1.6244,1.6238,1.5626,1.5588,1.5588,1.5588,1.5493,1.5499,1.5588,1.5493,1.5096,-1.8479,-1.8148,-1.7472,-1.6765,-1.5807,-1.4498,-1.2629,-1.2248,-1.1927,-1.0797,-1.065,-1.0643,-1.0606,-1.061,-1.0526,-1.0219,-0.9974,-0.9761,-0.9655,-0.942,-0.9413,-0.9814,-1.0115,-1.0312,-1.0316,-0.999,-0.9773,-0.9773,-0.9148,-0.8159,-0.6694,-0.6256,-0.5764,-0.5058,-0.5389,-0.5607,-0.5607,-0.593,-0.6091,-0.6091,-0.6799,-0.7343,-0.767,-0.6578,-0.6256,-0.6534,-0.5117,-0.4517,-0.4517,-0.4517,-0.452,-0.4472,-0.4484,-0.4038,-0.3308,-0.2468,-0.1233,0.0,0.0,0.0,0.0,0.0,0.0,0.0112,0.0838,0.2346,0.386,0.4366,0.4525,0.4555,0.4746,0.5942,0.7046,0.6891,0.8303,0.9885,1.0495,1.0717,1.0981,1.1499,1.2054,1.2601,1.3283,1.3329,1.3329,1.3372,1.3104,1.3017,1.3281,1.3329,1.3689,1.4635,1.5005,1.5192,1.5192,1.541,1.532,1.4749,1.5248,1.5555,1.5588,1.5864,1.6045,1.6051,1.6051,1.6051,1.6051,1.6051,1.6051,1.6051,1.6051,1.5738,-1.9143,-1.8969,-1.8239,-1.7433,-1.6332,-1.4805,-1.2342,-1.2062,-1.1965,-1.0572,-1.0565,-1.0764,-1.0717,-1.0719,-1.0758,-1.0884,-1.0532,-1.0289,-1.0463,-0.9872,-0.9714,-1.0513,-1.0521,-1.0626,-1.0965,-1.1011,-1.1011,-1.1011,-1.0864,-0.9721,-0.7165,-0.691,-0.6473,-0.576,-0.631,-0.6588,-0.6588,-0.675,-0.6858,-0.6858,-0.756,-0.794,-0.7883,-0.7182,-0.675,-0.6534,-0.5279,-0.4625,-0.4517,-0.4517,-0.4524,-0.448,-0.4147,-0.4217,-0.4113,-0.1121,0.0,0.0,0.0,0.0,0.0,0.0,0.0,0.0,0.0,0.2124,0.4541,0.4712,0.4862,0.4954,0.4954,0.5858,0.6804,0.6643,0.8174,0.9919,1.1015,1.1229,1.1429,1.1927,1.2253,1.2735,1.3627,1.36,1.3605,1.3962,1.361,1.3248,1.3109,1.3109,1.3695,1.5225,1.541,1.5454,1.5588,1.5726,1.5555,1.492,1.5017,1.5236,1.5588,1.5726,1.6008,1.6479,1.6515,1.6515,1.6515,1.6515,1.6515,1.6515,1.6515,1.6238,-1.8951,-1.8691,-1.8143,-1.747,-1.6706,-1.5466,-1.2994,-1.2441,-1.2058,-1.0612,-1.0129,-1.0011,-1.0009,-1.0629,-1.0842,-0.9973,0.0,-1.115,-0.9711,-1.066,-1.1116,-1.0012,-1.1497,-1.2358,-1.1769,-1.1715,-1.1715,-1.1715,-1.1166,-1.014,-0.8574,-0.7916,-0.7235,-0.6532,-0.6588,-0.6588,-0.6588,-0.7292,-0.7616,-0.7616,-0.8371,-0.8699,-0.8695,-0.794,-0.7238,-0.6534,-0.5762,-0.5056,-0.4517,-0.4517,-0.4524,-0.4366,-0.2959,-0.325,-0.4113,-0.1121,0.0,0.0,0.0,0.0,0.0,0.0,0.0,0.0,0.0,0.2058,0.4615,0.5519,0.6062,0.6426,0.6426,0.6937,0.7961,0.9862,1.1436,1.2564,1.2671,1.272,1.2725,1.2774,1.3689,1.4324,1.3862,1.4681,1.518,1.4698,1.4566,1.4335,1.3779,1.3732,1.4009,1.4703,1.4795,1.5011,1.5543,1.6101,1.6145,1.5543,1.6008,1.6101,1.5632,1.6145,1.6429,1.6515,1.6515,1.6515,1.6515,1.6515,1.6515,1.6515,1.6515,1.6472,-1.7087,-1.6539,-1.5778,-1.5692,-1.493,-1.3822,-1.2314,-1.1979,-1.1684,-1.0523,-1.0641,-1.0842,-1.0415,-1.1108,-1.1616,0.0,0.0,0.0,-1.0916,-1.1072,-1.1166,-1.1015,-1.1729,-1.2129,-1.1814,-1.2183,-1.2452,-1.2452,-1.1792,-1.117,-1.0582,-0.9529,-0.86,-0.7897,-0.7925,-0.794,-0.794,-0.8209,-0.8371,-0.8374,-0.8646,-0.859,-0.8103,-0.7399,-0.6637,-0.5925,-0.522,-0.4734,-0.4517,-0.4524,-0.4479,-0.4433,-0.3815,-0.286,-0.1626,-0.0448,0.0,0.0,0.0,0.0,0.0,0.0,0.2408,0.5294,0.529,0.4864,0.4721,0.6341,0.6719,0.6588,0.6588,0.6463,0.6964,0.9511,1.0234,1.086,1.2554,1.2881,1.2881,1.2881,1.3296,1.3747,1.4242,1.4457,1.4681,1.5186,1.4601,1.405,1.3821,1.3821,1.3915,1.4143,1.4468,1.5107,1.6058,1.6374,1.6238,1.5632,1.6114,1.6201,1.5626,1.6151,1.6441,1.6515,1.6515,1.6515,1.6515,1.6837,1.6837,1.6515,1.6837,1.6795,-1.5564,-1.5096,-1.4419,-1.4628,-1.3968,-1.2981,-1.1905,-1.1701,-1.1497,-1.0646,-1.0781,-1.0941,-1.0569,-1.1015,-1.142,0.0,0.0,-1.1711,-1.1512,-1.1475,-1.1529,-1.1765,-1.1972,-1.2026,-1.1814,-1.2089,-1.226,-1.226,-1.1796,-1.1484,-1.1512,-1.0415,-0.9544,-0.9058,-0.889,-0.8808,-0.8808,-0.8808,-0.8808,-0.8808,-0.8808,-0.8533,-0.7993,-0.7235,-0.6529,-0.5762,-0.5113,-0.468,-0.4519,-0.4473,-0.4257,-0.3869,-0.4337,-0.2639,0.0,0.0,0.0,0.0,0.0,0.112,0.2576,0.2576,0.4822,0.7637,0.8526,0.7362,0.5998,0.7404,0.7546,0.7184,0.6966,0.684,0.7292,0.9213,0.9669,1.0234,1.2398,1.2881,1.2881,1.2881,1.3205,1.3705,1.4566,1.4646,1.4869,1.5726,1.5135,1.4549,1.4365,1.4318,1.4318,1.4318,1.4687,1.5326,1.6145,1.6539,1.649,1.5908,1.6519,1.664,1.6102,1.6483,1.6672,1.6759,1.6595,1.6595,1.6759,1.7111,1.7111,1.6752,1.7111,1.6993,-1.4784,-1.4994,-1.5079,-1.4909,-1.4556,-1.3769,-1.2155,-1.1786,-1.1621,-1.1022,-1.014,-0.9663,-1.0119,-0.998,-0.981,-0.9814,0.0,0.0,-1.0914,-1.1994,-1.2613,-1.1868,-1.2452,-1.2613,-1.1864,-1.1216,-1.0813,-1.0813,-1.0813,-1.0817,-1.0813,-1.0167,-0.9814,-0.9814,-0.9162,-0.8808,-0.8808,-0.8808,-0.8808,-0.8808,-0.8808,-0.8808,-0.8755,-0.8046,-0.7289,-0.6534,-0.5814,-0.5111,-0.4519,-0.4473,-0.3576,-0.24,-0.388,-0.2639,0.0,0.0,0.0,0.0,0.0,0.3815,0.8711,0.8711,0.6788,0.5002,0.7898,0.8777,0.8774,0.8774,0.8765,0.859,0.7883,0.8715,0.9747,0.9691,1.0768,1.1976,1.272,1.2881,1.2881,1.2881,1.3836,1.4703,1.4703,1.57,1.6479,1.6479,1.6472,1.6238,1.5676,1.5582,1.5582,1.5582,1.5588,1.5588,1.5626,1.6617,1.707,1.6509,1.751,1.782,1.7305,1.7312,1.7312,1.7312,1.6752,1.6752,1.7312,1.7312,1.7312,1.7312,1.7312,1.6993,-1.3098,-1.3004,-1.2702,-1.2663,-1.2311,-1.1809,-1.1287,-1.0423,-0.9676,-0.952,-0.9361,-0.9152,-0.8827,-0.9718,-1.0312,-0.9862,-1.0513,0.0,-1.0817,-1.1174,-1.1379,-1.1166,-1.0927,-1.088,-1.1065,-1.0513,-1.0316,-1.0767,-1.0813,-1.0813,-1.0813,-1.0167,-0.9814,-0.9814,-0.9162,-0.8808,-0.8808,-0.8808,-0.8808,-0.8808,-0.8808,-0.8533,-0.8046,-0.7289,-0.6529,-0.5817,-0.5113,-0.4679,-0.4519,-0.4482,-0.3581,-0.2175,-0.1623,-0.0841,0.0504,0.4551,0.599,0.5746,0.3712,0.4255,0.6126,0.8133,0.8145,0.7603,0.8536,0.8774,0.8817,0.8811,0.8778,0.8752,0.8537,0.8415,0.8708,1.0132,1.0418,1.0822,1.251,1.2881,1.2881,1.2881,1.3563,1.4236,1.4612,1.5377,1.6008,1.6429,1.6145,1.582,1.5626,1.5922,1.6009,1.5632,1.6281,1.6629,1.6238,1.6539,1.6837,1.7034,1.7706,1.802,1.786,1.786,1.7666,1.7312,1.6752,1.6752,1.7312,1.7666,1.786,1.782,1.747,1.6993,0.0,-1.0747,-1.0162,-1.0079,-0.9726,-0.9392,-0.9392,-0.8701,-0.8171,-0.8375,-0.83,-0.8173,-0.7958,-0.8868,-0.9481,-0.9082,-0.9803,-1.0309,-1.0033,-1.0454,-1.0813,-1.0813,-1.0218,-0.9965,-1.0364,-0.9814,-0.9614,-1.0012,-1.0068,-1.0068,-1.0068,-0.9666,-0.9413,-0.9413,-0.9008,-0.8808,-0.8808,-0.8808,-0.8808,-0.8808,-0.8808,-0.8537,-0.8103,-0.7074,-0.6367,-0.5871,-0.4903,-0.4524,0.0,-0.4494,-0.3931,-0.2855,-0.0784,0.1344,0.3759,0.745,0.8812,0.8532,0.6688,0.6079,0.6406,0.8606,0.9259,0.9136,0.8884,0.8781,0.8821,0.8824,0.8808,0.8857,0.911,0.8834,0.8971,1.0754,1.0835,1.0923,1.2559,1.2881,1.2881,1.2881,1.3557,1.4283,1.4658,1.5371,1.6051,1.6429,1.6349,1.6232,1.6232,1.6725,1.6851,1.6318,1.6883,1.707,1.6558,1.6873,1.7153,1.7312,1.8178,1.8612,1.8419,1.8419,1.8256,1.79,1.7194,1.7153,1.79,1.8256,1.8419,1.8373,1.786,1.7429,0.0,-0.8482,-0.7776,-0.7586,-0.7213,-0.6914,-0.6914,-0.6847,0.0,-0.7511,-0.7112,-0.6823,-0.7335,-0.7522,-0.7616,-0.767,-0.882,-0.9388,-0.8738,-0.9776,-1.061,-1.0716,-1.0167,-0.9766,-0.9814,-0.9211,-0.8808,-0.8808,-0.8808,-0.8808,-0.8808,-0.8808,-0.8808,-0.8808,-0.8808,-0.8808,-0.8808,-0.8808,-0.8755,-0.8699,-0.8699,-0.8699,-0.8593,-0.7182,-0.6532,-0.6426,-0.5077,-0.4479,-0.448,-0.4504,-0.4514,-0.4169,-0.0728,0.3985,0.8776,0.8819,0.8822,0.8808,0.8802,0.8816,0.8928,0.9888,1.0019,0.9714,0.911,0.891,0.8854,0.8854,0.891,0.9113,0.9714,0.9862,1.0214,1.1512,1.1814,1.1976,1.272,1.2881,1.2881,1.2881,1.3889,1.4703,1.4703,1.57,1.6515,1.6515,1.6915,1.7229,1.7229,1.7706,1.782,1.7312,1.7271,1.7111,1.6595,1.7429,1.7787,1.7353,1.8734,1.9369,1.893,1.8893,1.8893,1.8893,1.79,1.79,1.8848,1.893,1.893,1.8893,1.8373,1.8138,-0.7724,0.0,-0.7676,-0.7179,-0.6967,-0.6914,0.0,-0.6324,-0.5847,-0.6005,0.0,-0.5689,-0.5835,-0.6412,-0.702,-0.7616,-0.7984,-0.814,-0.7978,-0.8237,-0.881,-0.9909,-0.9465,-0.926,-0.9762,-0.9211,-0.8808,-0.8808,-0.8808,-0.8808,-0.8808,-0.8808,-0.8808,-0.8808,-0.8808,-0.8808,-0.8808,-0.8808,-0.8537,-0.794,-0.794,-0.767,-0.7074,-0.6197,-0.576,-0.5708,-0.4855,-0.4479,-0.448,-0.4504,-0.4514,-0.3766,0.3803,0.7572,0.8819,0.8815,0.8813,0.8787,0.8778,0.8795,0.894,0.9658,0.984,0.9865,1.0214,0.9961,0.9562,0.9562,0.9913,1.0368,1.0517,1.0564,1.0762,1.1616,1.1814,1.1976,1.272,1.2881,1.2881,1.2881,1.3889,1.4703,1.4703,1.57,1.6515,1.6515,1.6595,1.6674,1.6674,1.7153,1.7271,1.6752,1.707,1.7229,1.7111,1.6951,1.6993,1.7271,1.802,1.8612,1.8893,1.8893,1.8893,1.8893,1.865,1.8458,1.8295,1.9125,1.9288,1.8893,1.8772,1.8496,-0.543,-0.6014,-0.6469,-0.5678,-0.545,-0.5409,-0.5505,0.0,0.0,0.0,0.0,0.0,0.0,-0.5599,-0.649,-0.7077,-0.7416,-0.7583,-0.767,-0.7723,-0.8093,-0.9201,-0.9008,-0.8959,-0.9312,-0.9008,-0.8808,-0.8808,-0.8808,-0.8808,-0.8808,-0.8808,-0.8808,-0.8808,-0.848,-0.848,-0.8808,-0.848,-0.8103,-0.7723,-0.7343,-0.6966,-0.6586,-0.5817,-0.5548,-0.5614,-0.4866,-0.449,-0.4383,-0.3029,-0.1624,0.0223,0.6387,0.8557,0.8193,0.8635,0.9008,0.9274,0.9278,1.0029,1.1022,1.1018,1.1617,1.2349,1.2397,1.2011,1.1383,1.0501,1.0517,1.0864,1.1166,1.1266,1.1416,1.2138,1.2295,1.2398,1.2822,1.2881,1.2973,1.3238,1.4061,1.4789,1.5062,1.587,1.6515,1.6515,1.6915,1.7063,1.6514,1.7605,1.8013,1.6912,1.7333,1.7585,1.7312,1.7034,1.7188,1.798,1.8295,1.8696,1.9244,1.9288,1.9169,1.8893,1.9125,1.9006,1.8458,1.9288,1.9566,1.9288,1.9288,1.9125,-0.2663,-0.3555,-0.4064,-0.3581,-0.3593,-0.3708,0.0,0.0,0.0,0.0,0.0,0.0,0.0,-0.5021,0.0,-0.6029,-0.6655,-0.7217,-0.7509,-0.7509,-0.7827,-0.8689,-0.8804,-0.8857,-0.8959,-0.8857,-0.8808,-0.8808,-0.8808,-0.8808,-0.8808,-0.8699,-0.8646,-0.8646,-0.794,-0.783,-0.848,-0.783,-0.7509,-0.7506,-0.6802,-0.6369,-0.6261,-0.5653,-0.5447,-0.5635,-0.4593,-0.4274,-0.4227,-0.0728,0.2468,0.5369,0.7679,0.8197,0.7689,0.8527,0.9221,0.9814,0.9913,1.1473,1.3372,1.282,1.3842,1.5223,1.4739,1.4221,1.3408,1.1849,1.1249,1.1275,1.1823,1.1972,1.2133,1.2769,1.2881,1.2881,1.2881,1.2881,1.306,1.3684,1.4288,1.488,1.5499,1.6101,1.6515,1.6515,1.7271,1.7524,1.664,1.8182,1.8826,1.7471,1.7786,1.79,1.747,1.7429,1.782,1.8848,1.8893,1.9125,1.9682,1.9682,1.9442,1.8893,1.9442,1.9442,1.8893,1.9442,1.9682,1.9682,1.9682,1.9682,-0.0222,0.0235,0.0538,-0.1556,-0.3017,-0.3886,-0.3705,0.0,0.0,0.0,0.0,0.0,0.0,-0.4431,-0.4448,-0.3692,-0.4805,-0.6039,-0.6694,-0.6748,-0.7275,-0.8534,-0.8781,-0.9008,-0.9614,-0.9106,-0.8808,-0.8808,-0.8808,-0.8808,-0.8808,-0.8209,-0.7883,-0.7883,-0.7128,-0.6804,-0.6912,-0.6804,-0.6748,-0.675,-0.6034,-0.5382,-0.4844,-0.4679,-0.4688,-0.4643,-0.3182,-0.3306,-0.4054,0.151,0.5539,0.8101,0.7761,0.7994,0.8593,0.8742,0.9222,0.9865,1.0466,1.1514,1.2763,1.3274,1.4294,1.5383,1.5832,1.5272,1.4381,1.4106,1.3338,1.2618,1.2715,1.272,1.2769,1.2876,1.2881,1.2881,1.2881,1.2881,1.306,1.3684,1.4288,1.488,1.5499,1.6101,1.6515,1.6515,1.6637,1.6831,1.714,1.7463,1.774,1.7927,1.8052,1.8059,1.798,1.798,1.8256,1.8848,1.8893,1.9125,1.9682,1.9682,1.9442,1.8893,1.9442,1.9442,1.8893,1.9442,1.9682,1.9682,1.9682,1.9682,0.2093,0.196,0.1876,0.1449,0.014,-0.1117,-0.1575,0.0,0.0,0.0,0.0,0.0,0.0,-0.3611,-0.3399,-0.3729,-0.4875,-0.5806,-0.598,-0.6367,-0.6851,-0.7478,-0.7605,-0.7714,-0.8019,-0.7818,-0.7613,-0.7613,-0.7993,-0.8209,-0.8209,-0.7886,-0.7723,-0.7723,-0.6581,-0.6202,-0.6588,-0.5825,-0.566,-0.5982,-0.5275,-0.4787,-0.4517,-0.4524,-0.4477,-0.4489,-0.3756,-0.2012,0.0559,0.337,0.5582,0.7219,0.7375,0.7931,0.8871,1.002,1.1019,1.1862,1.1913,1.3502,1.5408,1.5131,1.6244,1.761,1.7296,1.6416,1.5389,1.475,1.3779,1.2881,1.2881,1.2881,1.2881,1.2881,1.2881,1.2881,1.2881,1.3152,1.3552,1.4149,1.4778,1.5371,1.5958,1.6331,1.6515,1.6515,1.6752,1.6902,1.6828,1.7599,1.8124,1.8051,1.8359,1.8535,1.8535,1.8535,1.865,1.8893,1.9169,1.9442,1.9682,1.9682,1.9566,1.9325,1.9566,1.9566,1.9325,1.9566,1.9682,1.9682,1.9682,1.9682,0.3615,0.2948,0.2539,0.3631,0.0,0.183,0.1087,0.0,0.0,0.0,0.0,0.0,0.0,-0.3357,-0.313,-0.432,-0.5122,-0.5481,-0.5275,-0.5875,-0.6367,-0.6367,-0.6477,-0.6588,-0.6588,-0.6588,-0.6588,-0.6588,-0.7128,-0.7453,-0.7453,-0.7286,-0.7176,-0.7176,-0.5923,-0.5546,-0.6098,-0.5013,-0.4844,-0.5485,-0.4844,-0.452,-0.4522,-0.4477,-0.449,-0.4502,-0.4511,-0.1062,0.4514,0.4511,0.5217,0.6351,0.716,0.8143,0.9452,1.1459,1.2791,1.3595,1.3664,1.5582,1.787,1.697,1.8067,1.9551,1.8669,1.7437,1.6119,1.5263,1.3996,1.2881,1.2881,1.2881,1.2968,1.3223,1.3185,1.3195,1.3457,1.3774,1.419,1.4789,1.5276,1.577,1.638,1.6515,1.6515,1.6515,1.6951,1.7175,1.6851,1.8032,1.875,1.8419,1.8819,1.9088,1.9088,1.8968,1.8968,1.9088,1.9486,1.9682,1.9682,1.9682,1.9682,1.9682,1.9682,1.9682,1.9682,1.9682,1.9682,1.9682,1.9682,1.9682,0.3725,0.3621,0.3663,0.3617,0.0,0.0,0.3695,0.398,0.0,0.4194,0.0,0.0,0.0,-0.4376,-0.4378,-0.4482,-0.4532,-0.4586,-0.4588,-0.5173,-0.5597,-0.5597,-0.6202,-0.6588,-0.6588,-0.6588,-0.6588,-0.6588,-0.6642,-0.6696,-0.6696,-0.6034,-0.5649,-0.5649,-0.495,-0.457,-0.4625,-0.4527,-0.4853,-0.5485,-0.4798,-0.4477,-0.4479,-0.449,-0.4502,-0.4512,-0.4514,-0.1062,0.4514,0.4502,0.5595,0.7288,0.7534,0.8815,1.0897,1.2752,1.3538,1.3852,1.5485,1.6929,1.8002,1.791,1.8707,1.9675,1.9595,1.806,1.6283,1.6198,1.4597,1.2881,1.2881,1.2881,1.3185,1.4247,1.4095,1.4034,1.5066,1.4977,1.4789,1.541,1.5582,1.577,1.638,1.6515,1.6515,1.6515,1.6951,1.7463,1.794,1.8535,1.908,1.9522,1.9603,1.9646,1.9646,1.9207,1.9125,1.9603,1.9682,1.9682,1.9682,1.9682,1.9682,1.9682,1.9682,1.9682,1.9682,1.9682,1.9682,1.9682,1.9682,1.9682,0.4465,0.4521,0.4763,0.3837,0.0,0.0,0.0,0.0,0.4241,0.4457,0.2625,0.0,0.0,-0.4509,-0.4512,-0.4494,-0.3691,-0.3407,-0.4366,-0.4741,-0.4895,-0.4895,-0.5115,-0.5281,-0.5281,-0.5281,-0.5281,-0.5281,-0.5658,-0.5925,-0.5925,-0.5651,-0.5485,-0.5485,-0.4849,-0.4472,-0.4472,-0.4484,-0.4138,-0.3445,-0.4139,-0.3976,-0.3125,-0.4044,-0.4511,-0.4284,-0.0559,0.1845,0.319,0.4752,0.622,0.7697,0.9486,1.1172,1.2666,1.3797,1.5122,1.6317,1.6313,1.7511,1.8925,1.8211,1.8949,1.9899,1.8933,1.8226,1.7536,1.6565,1.5379,1.4343,1.4044,1.395,1.4166,1.4959,1.4729,1.4488,1.4908,1.4898,1.492,1.5484,1.5908,1.6238,1.6472,1.6515,1.6515,1.6515,1.6674,1.7111,1.798,1.8295,1.8734,1.9603,1.9682,1.9682,1.9682,1.9522,1.9486,1.9682,1.9682,1.9682,1.9682,1.9682,1.9682,1.9682,1.9682,1.9682,1.9682,1.9682,1.9682,1.9682,1.9682,1.9682,0.5381,0.5331,0.5393,0.0,0.0,0.0,0.0,0.4202,0.4107,0.4421,0.2896,0.0555,-0.2511,-0.3881,-0.4521,-0.4506,-0.2796,-0.2232,-0.4201,-0.4473,-0.452,-0.4517,-0.4517,-0.4517,-0.4517,-0.4517,-0.4498,-0.4397,-0.4867,-0.5142,-0.5095,-0.5142,-0.5171,-0.5177,-0.4754,-0.4289,-0.3795,-0.4244,-0.355,-0.162,-0.1656,-0.2121,-0.2909,-0.2069,-0.1678,-0.1454,0.2182,0.3474,0.3123,0.5395,0.7216,0.884,1.0973,1.2672,1.4017,1.4851,1.6332,1.7956,1.7511,1.8491,1.9745,1.8986,1.9525,2.0317,1.9279,1.8796,1.8394,1.7304,1.6365,1.5575,1.5381,1.5103,1.5069,1.6077,1.5733,1.5344,1.5682,1.5525,1.5459,1.5798,1.6238,1.6515,1.6515,1.6515,1.6515,1.6515,1.6795,1.7271,1.802,1.8419,1.8893,1.9603,1.9682,1.9682,1.9682,1.9682,1.9682,1.9682,1.9682,1.9682,1.9682,1.9682,1.9682,1.9682,1.9682,1.9682,1.9682,1.9682,1.9682,1.9682,1.9682,1.9682,0.6538,0.5974,0.5463,0.0,0.0,0.0,0.5395,0.4631,0.4104,0.4455,0.2889,0.1221,0.0167,-0.246,-0.4457,-0.4514,-0.1958,-0.1061,-0.4041,-0.4485,-0.4475,-0.4519,-0.4517,-0.4517,-0.4517,-0.4517,-0.4404,-0.4205,-0.438,-0.4402,-0.4219,-0.4401,-0.4482,-0.4496,-0.4496,-0.3749,-0.2225,-0.3698,-0.3036,-0.0301,0.293,0.1341,-0.4225,0.1734,0.4512,0.4399,0.2909,0.3125,0.4643,0.6549,0.8685,1.0898,1.1539,1.2964,1.4744,1.5893,1.6998,1.8152,1.9281,1.9949,2.0291,2.0291,2.0601,2.0975,2.0983,1.9871,1.8605,1.8612,1.7483,1.6431,1.6878,1.6172,1.5767,1.7542,1.7152,1.6705,1.784,1.7264,1.6509,1.6515,1.6515,1.6515,1.6515,1.6515,1.6515,1.6515,1.7429,1.8099,1.8099,1.905,1.9682,1.9682,1.9682,1.9682,1.9682,1.9682,1.9682,1.9682,1.9682,1.9682,1.9682,1.9718,1.9726,1.9726,1.9726,1.9726,1.9726,1.9726,1.9718,1.9682,1.9682,1.9682,0.6678,0.7012,0.0,0.6412,0.0,0.0,0.0,0.5602,0.0,0.0,0.402,0.2847,0.0445,-0.0725,-0.2015,-0.4169,-0.1958,-0.0335,-0.1228,-0.3188,-0.449,-0.4485,-0.4485,-0.4485,-0.4485,-0.4485,-0.4481,-0.4435,-0.4246,-0.4199,-0.4379,-0.3433,-0.2887,-0.2903,-0.3932,-0.4265,-0.3845,-0.0483,0.1586,0.2425,0.3612,0.2759,0.0269,0.2044,0.3474,0.4501,0.4691,0.5071,0.5683,0.8044,1.0003,1.163,1.3187,1.4295,1.5222,1.6356,1.7232,1.7859,1.8437,1.8722,1.8873,1.9147,1.9541,1.9812,1.9527,1.9153,1.8741,1.8421,1.7474,1.6714,1.7316,1.6898,1.6434,1.7093,1.6771,1.6407,1.6764,1.6357,1.6057,1.6446,1.6515,1.6515,1.6515,1.6515,1.6515,1.6515,1.707,1.782,1.8574,1.9288,1.9682,1.9682,1.9682,1.9682,1.9682,1.9682,1.9682,1.9682,1.9682,1.9682,1.9682,1.9965,2.0124,2.0124,2.0439,2.0465,2.0124,2.0124,1.9972,1.9682,1.9682,1.9682,0.7599,0.7997,0.0,0.7486,0.7549,0.7649,0.6956,0.0,0.0,0.0,0.4479,0.392,0.2119,0.0781,-0.0615,-0.2412,-0.1175,0.0,0.0,-0.1564,-0.2909,-0.3527,-0.3584,-0.3584,-0.3584,-0.3595,-0.3572,-0.3609,-0.3387,-0.3547,-0.4135,-0.3491,-0.2591,-0.1339,-0.1061,-0.1038,-0.1301,0.1479,0.3103,0.3584,0.3827,0.3752,0.3322,0.3167,0.3634,0.4544,0.567,0.663,0.7573,0.9368,1.123,1.3012,1.4163,1.5259,1.6249,1.6964,1.759,1.8169,1.8383,1.854,1.8726,1.8952,1.9326,1.9578,1.9179,1.9002,1.8821,1.8383,1.7715,1.713,1.7264,1.7003,1.6744,1.693,1.662,1.6318,1.6361,1.6038,1.5863,1.6415,1.6515,1.6515,1.6515,1.6674,1.6837,1.6837,1.747,1.8256,1.9125,1.9486,1.9682,1.9682,1.9682,1.9682,1.9682,1.9682,1.9682,1.9682,1.9846,1.9937,1.9937,2.0185,2.0382,2.0583,2.0862,2.0862,2.0583,2.0583,2.0356,1.9937,1.9937,1.9839,0.8757,0.0,0.0,0.883,0.8587,0.0,0.7502,0.6364,0.5322,0.4663,0.4517,0.448,0.4496,0.2124,0.0168,0.0,0.0,0.0,0.0,0.0,-0.0503,-0.1841,-0.2008,-0.2008,-0.2008,-0.2006,-0.1886,-0.1665,-0.1659,-0.2066,-0.304,-0.3607,-0.2645,0.0112,0.2854,0.4079,0.366,0.2547,0.255,0.3737,0.3986,0.4473,0.5228,0.4752,0.4682,0.4963,0.6279,0.8004,0.9936,1.0592,1.2291,1.4444,1.462,1.5717,1.7256,1.7441,1.7977,1.8633,1.8661,1.8909,1.9211,1.9238,1.9492,1.974,1.9389,1.9023,1.8646,1.8288,1.7883,1.7376,1.6779,1.6629,1.6671,1.6811,1.6535,1.6222,1.6362,1.604,1.5844,1.6388,1.652,1.6595,1.6637,1.7034,1.7388,1.7429,1.8295,1.9088,1.9646,1.9682,1.9682,1.9682,1.9682,1.9682,1.9682,1.9682,1.9726,1.9747,2.0089,2.0348,2.0408,2.0408,2.0616,2.1063,2.1095,2.1095,2.1055,2.1055,2.0821,2.0348,2.0348,2.0158,0.8523,0.8745,0.0,0.0,0.8464,0.7644,0.6961,0.6122,0.5289,0.4641,0.4497,0.4472,0.4494,0.2963,0.134,0.0168,0.0,0.0,0.0,0.0,-0.0112,-0.0448,-0.0448,-0.0448,-0.0448,-0.0501,0.0324,0.2232,0.2375,0.1967,0.1005,0.081,0.1047,0.1727,0.2125,0.285,0.3906,0.3457,0.3797,0.4918,0.5396,0.5787,0.608,0.5457,0.6091,0.7832,0.8697,0.9932,1.1345,1.1544,1.2253,1.3406,1.4667,1.5241,1.5525,1.687,1.729,1.7263,1.7532,1.7683,1.779,1.8057,1.8207,1.8207,1.7855,1.7532,1.7183,1.6846,1.6495,1.6188,1.6046,1.5979,1.5824,1.5213,1.528,1.5531,1.555,1.5625,1.5847,1.638,1.6846,1.7271,1.7666,1.786,1.8059,1.8496,1.8734,1.9088,1.9646,1.9682,1.9682,1.9682,1.9682,1.9682,1.9682,1.9682,1.9846,2.0151,2.0246,2.0608,2.129,2.1329,2.136,2.1469,2.184,2.184,2.146,2.146,2.1275,2.0862,2.0862,2.0599,0.8826,0.0,0.0,0.8866,0.0,0.7506,0.6748,0.6034,0.5301,0.4637,0.4522,0.4524,0.4494,0.3244,0.173,0.0224,0.0,0.0,0.0,0.1233,0.2132,0.2132,0.1511,0.1062,0.1062,0.0923,0.1365,0.2634,0.3388,0.3579,0.3076,0.3233,0.329,0.3296,0.3188,0.3643,0.4768,0.4555,0.5037,0.6214,0.649,0.6948,0.7548,0.6746,0.7431,0.922,0.966,1.0504,1.1521,1.1672,1.2229,1.3217,1.4669,1.5366,1.5743,1.7233,1.7565,1.7313,1.7479,1.7549,1.7572,1.7735,1.7811,1.7712,1.7199,1.6934,1.6686,1.6191,1.5926,1.5799,1.5799,1.5639,1.5352,1.4914,1.4839,1.4882,1.4764,1.503,1.5565,1.6362,1.691,1.747,1.802,1.8295,1.865,1.9207,1.9288,1.9369,1.9646,1.9682,1.9682,1.9682,1.9682,1.9682,1.9682,1.9682,1.9874,2.028,2.0516,2.0918,2.1582,2.1832,2.1936,2.1936,2.218,2.2172,2.1936,2.1936,2.1705,2.1283,2.1283,2.1047,0.9198,0.0,0.8741,0.8508,0.7999,0.0,0.6681,0.5983,0.5235,0.462,0.4517,0.4524,0.449,0.3298,0.1897,0.0616,0.0392,0.0392,0.0392,0.2523,0.4222,0.4453,0.3361,0.2624,0.2624,0.2388,0.225,0.2236,0.3368,0.4058,0.403,0.4308,0.4445,0.4485,0.4725,0.5125,0.5713,0.5754,0.6389,0.7608,0.7659,0.8324,0.943,0.855,0.8748,0.9853,1.0196,1.071,1.1297,1.1522,1.2304,1.3438,1.4587,1.5616,1.6568,1.7698,1.7995,1.7811,1.7811,1.7811,1.7811,1.7811,1.7811,1.7658,1.6993,1.6789,1.6659,1.5983,1.5799,1.5799,1.5799,1.5514,1.5195,1.5134,1.4845,1.4577,1.4368,1.4693,1.5395,1.6561,1.7301,1.786,1.8295,1.8734,1.9207,1.9646,1.9682,1.9682,1.9682,1.9682,1.9682,1.9682,1.9682,1.9682,1.9682,1.9682,1.9909,2.0382,2.0797,2.1221,2.1688,2.2106,2.231,2.231,2.231,2.231,2.231,2.231,2.2106,2.1718,2.1718,2.1507,0.0,0.0,0.8409,0.0,0.7784,0.6794,0.0,0.5666,0.5037,0.4597,0.4517,0.452,0.4479,0.3627,0.2673,0.2007,0.1898,0.1898,0.1898,0.2233,0.3019,0.4327,0.4325,0.4209,0.4209,0.4177,0.4047,0.3872,0.4058,0.4159,0.4169,0.4239,0.4317,0.4517,0.5529,0.6083,0.621,0.7273,0.8262,0.9219,0.9599,1.0488,1.1737,1.0674,1.0286,1.0523,1.1149,1.1455,1.1548,1.1582,1.2357,1.3521,1.4113,1.5252,1.6636,1.7219,1.7577,1.7811,1.7811,1.7811,1.7811,1.7811,1.7811,1.7658,1.6993,1.6789,1.6659,1.5983,1.5799,1.5799,1.5799,1.5741,1.561,1.5195,1.5066,1.5084,1.5268,1.5461,1.6046,1.7605,1.8688,1.9406,1.9486,1.9566,1.9603,1.9682,1.9682,1.9682,1.9682,1.9682,1.9682,1.9682,1.9682,1.9682,1.9682,1.9682,2.005,2.0862,2.0967,2.1354,2.2172,2.2274,2.231,2.231,2.231,2.231,2.231,2.231,2.2274,2.2209,2.2209,2.1966,0.8398,0.8485,0.869,0.0,0.8186,0.7627,0.6722,0.6062,0.5473,0.4934,0.4551,0.4372,0.4462,0.4136,0.3742,0.3526,0.3471,0.3471,0.3471,0.3466,0.3745,0.4428,0.448,0.4477,0.4477,0.4404,0.4276,0.4207,0.4912,0.536,0.5354,0.6219,0.6739,0.6839,0.7361,0.7816,0.8178,0.8763,0.9615,1.0778,1.1576,1.2174,1.2548,1.1076,1.0714,1.1139,1.117,1.1196,1.1214,1.1545,1.2086,1.2901,1.4336,1.5426,1.6316,1.7232,1.7681,1.7811,1.7811,1.7811,1.7811,1.7811,1.7811,1.7658,1.6993,1.6789,1.6659,1.5983,1.5799,1.5799,1.5799,1.561,1.5359,1.5165,1.4944,1.4952,1.5669,1.5944,1.6537,1.8207,1.917,1.9682,1.9682,1.9682,1.9682,1.9682,1.9682,1.9682,1.9682,1.9909,1.9937,1.9711,1.9909,1.9929,1.9718,1.9909,2.0296,2.0959,2.1213,2.1645,2.2274,2.231,2.231,2.231,2.231,2.231,2.231,2.231,2.231,2.231,2.231,2.218,0.0,0.0,0.8516,0.8308,0.8276,0.8035,0.0,0.646,0.5965,0.5473,0.5014,0.4709,0.4771,0.4553,0.4424,0.4433,0.4401,0.4375,0.4375,0.4368,0.4363,0.4363,0.4389,0.4409,0.4409,0.4658,0.482,0.482,0.6135,0.6886,0.6886,0.8033,0.8719,0.8719,0.903,0.9497,0.998,1.0605,1.1639,1.2929,1.3522,1.366,1.3426,1.1947,1.1616,1.2184,1.1511,1.1231,1.1322,1.2008,1.2533,1.3019,1.4818,1.5883,1.6494,1.7451,1.7811,1.7811,1.7811,1.7811,1.7811,1.7811,1.7811,1.7681,1.7109,1.6866,1.6686,1.6088,1.5885,1.5799,1.5799,1.5544,1.5292,1.5292,1.5036,1.512,1.6142,1.667,1.7356,1.8833,1.9442,1.9682,1.9682,1.9682,1.9682,1.9682,1.9682,1.9754,1.9846,2.0124,2.0219,2.0042,2.0296,2.0356,2.005,2.0296,2.0682,2.1118,2.143,2.1794,2.2274,2.231,2.231,2.231,2.2369,2.2407,2.2407,2.2407,2.2407,2.2407,2.2407,2.2407,0.0,0.7904,0.0,0.7946,0.759,0.7064,0.7025,0.6658,0.6332,0.615,0.6137,0.5944,0.5508,0.4772,0.4207,0.4207,0.4088,0.4044,0.4044,0.4044,0.4044,0.4044,0.412,0.4205,0.4205,0.5579,0.6469,0.6469,0.7766,0.8592,0.8592,0.8657,0.8719,0.8719,1.0011,1.0689,1.0739,1.3131,1.494,1.6052,1.5389,1.5071,1.5038,1.4245,1.3942,1.3909,1.267,1.2163,1.2318,1.3485,1.4196,1.4658,1.5523,1.6618,1.7718,1.778,1.7811,1.7811,1.7811,1.7811,1.7811,1.7811,1.7811,1.7726,1.7368,1.7052,1.6738,1.6375,1.6039,1.5799,1.5799,1.577,1.577,1.577,1.5741,1.5958,1.687,1.7861,1.8783,1.9512,1.9682,1.9682,1.9682,1.9682,1.9682,1.9682,1.9682,1.9846,2.0219,2.028,2.0449,2.0902,2.0967,2.0967,2.0926,2.0959,2.115,2.1552,2.159,2.1794,2.2274,2.231,2.231,2.231,2.2563,2.2678,2.2678,2.2678,2.2678,2.2678,2.2678,2.2678,0.0,0.0,0.0,0.7983,0.7848,0.7596,0.7101,0.6884,0.6749,0.6717,0.6364,0.6012,0.573,0.5238,0.4763,0.4299,0.4068,0.4019,0.4019,0.4504,0.5017,0.545,0.6038,0.6581,0.7032,0.7629,0.7945,0.7945,0.9236,1.0062,1.0062,1.0906,1.1733,1.245,1.2969,1.3574,1.4299,1.5978,1.6632,1.6319,1.6522,1.6404,1.5986,1.4876,1.4918,1.578,1.4936,1.4405,1.4281,1.5805,1.662,1.7038,1.788,1.8326,1.8513,1.8513,1.8217,1.7811,1.7811,1.7811,1.7811,1.7811,1.7811,1.7712,1.7159,1.6892,1.6693,1.6136,1.5877,1.5799,1.5799,1.5799,1.5799,1.5799,1.5799,1.618,1.7629,1.7985,1.8395,1.948,1.9682,1.9682,1.9682,1.9682,1.9682,1.9682,1.9902,2.0158,2.028,2.0797,2.1102,2.0999,2.1244,2.1275,2.1031,2.1252,2.1438,2.1582,2.189,2.2106,2.2282,2.2472,2.249,2.231,2.2991,2.3117,2.2695,2.2923,2.3021,2.3021,2.3021,2.3021,0.9079,0.0,0.0,0.0,0.7686,0.7182,0.511,0.585,0.6979,0.6979,0.6662,0.631,0.6176,0.5927,0.549,0.4744,0.4548,0.4455,0.4559,0.5294,0.598,0.6528,0.7353,0.8072,0.8568,0.907,0.9391,0.9391,1.0697,1.1481,1.1481,1.273,1.3996,1.5136,1.5174,1.5732,1.6846,1.7611,1.7817,1.7458,1.7807,1.7897,1.7589,1.6342,1.6423,1.7476,1.7079,1.6368,1.5636,1.7389,1.7943,1.7772,1.887,1.8993,1.853,1.853,1.8225,1.7811,1.7811,1.7811,1.7811,1.7811,1.7811,1.7712,1.7134,1.6892,1.6686,1.6116,1.5877,1.5799,1.5799,1.5877,1.5962,1.5962,1.606,1.6499,1.7889,1.8053,1.8359,1.9852,2.0007,1.9937,2.0112,2.0007,1.9937,2.0112,2.0356,2.0575,2.0707,2.1228,2.1568,2.1454,2.1675,2.1735,2.1454,2.1675,2.1823,2.1823,2.2135,2.231,2.231,2.2463,2.2519,2.2453,2.3168,2.3369,2.3045,2.3268,2.3369,2.3369,2.3369,2.3369,0.0,0.0,0.0,0.0,0.6987,0.5737,0.1239,0.3741,0.6979,0.6979,0.6989,0.6985,0.6813,0.6716,0.6421,0.568,0.5447,0.5422,0.5682,0.6372,0.695,0.7211,0.7995,0.8553,0.855,0.9998,1.0885,1.0885,1.2164,1.2973,1.2973,1.4079,1.5219,1.6332,1.6368,1.6929,1.8041,1.8081,1.8624,1.9718,1.9386,1.9467,1.9834,1.8805,1.8535,1.886,1.886,1.7836,1.6293,1.8159,1.8049,1.6843,1.8352,1.8479,1.7845,1.7845,1.7828,1.7811,1.7811,1.7811,1.7811,1.7811,1.7811,1.7735,1.74,1.706,1.6738,1.6367,1.6067,1.5835,1.5827,1.606,1.6293,1.632,1.6554,1.6981,1.7657,1.8137,1.8951,2.0639,2.0608,2.0483,2.0926,2.0624,2.0483,2.0926,2.0999,2.115,2.156,2.1612,2.1794,2.2245,2.231,2.231,2.231,2.231,2.231,2.231,2.231,2.231,2.231,2.231,2.2445,2.2669,2.3036,2.3392,2.3692,2.3723,2.3714,2.3714,2.3714,2.3714,0.9602,0.0,0.0,0.0,0.0,0.0,0.512,0.6049,0.6979,0.6979,0.7248,0.7316,0.7019,0.7589,0.7937,0.7457,0.652,0.5896,0.5964,0.7037,0.8034,0.8643,1.0463,1.1853,1.2323,1.3083,1.3569,1.3569,1.3896,1.4114,1.4114,1.5991,1.7188,1.7531,1.8321,1.891,1.9222,1.9534,1.9664,1.9726,2.0252,2.0027,1.9102,1.9109,1.8734,1.8107,1.8107,1.7799,1.7445,1.9035,1.9437,1.9087,1.9538,1.9257,1.8598,1.8598,1.8259,1.7811,1.7811,1.7811,1.7811,1.7811,1.7811,1.7681,1.7109,1.6858,1.6686,1.6088,1.6039,1.6219,1.6455,1.6394,1.6375,1.6607,1.6738,1.7059,1.8029,1.873,1.939,2.0079,2.0528,2.0862,2.0967,2.0894,2.0862,2.0967,2.1252,2.146,2.159,2.1899,2.2152,2.2282,2.231,2.231,2.231,2.231,2.231,2.231,2.231,2.231,2.231,2.273,2.279,2.2434,2.3405,2.3723,2.3346,2.3825,2.4065,2.4065,2.4065,2.4065,0.0,0.0,0.0,0.8999,0.0,0.0,0.6895,0.6979,0.6979,0.6979,0.5641,0.4666,0.5392,0.6084,0.6937,0.815,0.7691,0.7294,0.7613,0.88,0.988,1.062,1.222,1.3457,1.4011,1.429,1.4532,1.4684,1.4958,1.5562,1.6529,1.7809,1.8751,1.9236,1.97,2.0035,2.0243,2.0288,2.0122,1.98,2.0288,2.0021,1.9038,1.8969,1.8692,1.8242,1.7938,1.7811,1.7879,1.8726,1.9072,1.9098,1.9435,1.9096,1.8445,1.8445,1.8175,1.7811,1.7811,1.7811,1.7811,1.7811,1.7811,1.7658,1.6993,1.6789,1.6659,1.5983,1.6032,1.6375,1.6712,1.6755,1.6773,1.6952,1.7117,1.7379,1.7995,1.8977,1.9847,2.034,2.0866,2.1314,2.1524,2.1385,2.1314,2.1524,2.1743,2.189,2.189,2.2135,2.231,2.231,2.231,2.231,2.231,2.231,2.231,2.231,2.231,2.231,2.231,2.2642,2.2695,2.2463,2.3341,2.3723,2.3619,2.4016,2.4199,2.4199,2.4199,2.4199,0.0,0.0,0.0,1.0123,0.9478,0.0,0.7436,0.7185,0.7138,0.6919,0.3553,0.13,0.3454,0.4141,0.5415,0.8583,0.9102,0.9287,0.988,1.102,1.2004,1.2579,1.3397,1.4042,1.4398,1.4511,1.4683,1.4985,1.5711,1.7144,1.9389,1.9496,1.9939,2.0959,2.0591,2.0583,2.0999,2.0538,2.0167,1.9883,1.9895,1.9685,1.9249,1.8644,1.851,1.8733,1.809,1.7811,1.7811,1.7811,1.7811,1.7879,1.8521,1.8378,1.7811,1.7811,1.7811,1.7811,1.7811,1.7811,1.7811,1.7811,1.7758,1.7627,1.7043,1.6815,1.6633,1.606,1.6143,1.6448,1.6807,1.7101,1.732,1.7344,1.7572,1.7811,1.7811,1.8954,2.0204,2.0923,2.1398,2.1794,2.2245,2.1957,2.1832,2.2245,2.231,2.231,2.231,2.231,2.231,2.231,2.231,2.231,2.231,2.231,2.231,2.231,2.233,2.2321,2.231,2.2349,2.2482,2.2695,2.3069,2.3575,2.4199,2.4199,2.4199,2.4199,2.4199,2.4209,1.0908,1.052,1.0083,0.9721,0.9478,0.0,0.8508,0.8349,0.792,0.6356,0.5316,0.4933,0.5824,0.8069,1.0143,1.1319,1.1513,1.1387,1.0975,1.2016,1.2722,1.2505,1.4008,1.5107,1.5175,1.5709,1.6118,1.616,1.714,1.8586,2.0564,2.0677,2.0774,2.0999,2.0926,2.0894,2.0999,2.0631,2.0283,1.9906,1.9956,1.9473,1.851,1.8693,1.8502,1.8014,1.787,1.7811,1.7811,1.7811,1.7811,1.7797,1.7972,1.7938,1.7811,1.7811,1.7811,1.7811,1.7811,1.7811,1.7811,1.7811,1.7635,1.7368,1.7248,1.6825,1.6429,1.6562,1.6659,1.6841,1.744,1.7447,1.7368,1.7635,1.7758,1.7811,1.7811,1.8954,2.0044,2.0187,2.1273,2.218,2.2274,2.2209,2.218,2.2282,2.231,2.231,2.231,2.231,2.231,2.231,2.231,2.231,2.231,2.231,2.231,2.231,2.25,2.2527,2.231,2.2781,2.2906,2.2686,2.3291,2.3795,2.4199,2.4199,2.4199,2.4199,2.4199,2.4294,1.1567,1.1094,1.0511,1.0269,1.0068,0.0,0.0,0.9478,0.9219,0.8252,0.8028,0.8264,0.9045,1.0854,1.2342,1.2661,1.2696,1.2678,1.2646,1.2926,1.3219,1.3424,1.4475,1.5457,1.6167,1.6679,1.7392,1.847,1.8562,1.946,2.1532,2.1433,2.1481,2.184,2.1436,2.1301,2.1511,2.0724,2.0108,1.9608,1.9781,1.9235,1.8069,1.8404,1.8285,1.7811,1.7811,1.7811,1.7811,1.7811,1.7811,1.7811,1.7811,1.7811,1.7811,1.7811,1.7811,1.7811,1.7811,1.7811,1.7811,1.7811,1.7572,1.7288,1.7288,1.6952,1.6651,1.7118,1.715,1.7183,1.7658,1.7777,1.776,1.7794,1.7914,1.7971,1.7825,1.8782,1.9771,2.0172,2.129,2.2177,2.229,2.231,2.231,2.231,2.231,2.231,2.231,2.231,2.231,2.231,2.231,2.2341,2.2482,2.2388,2.2369,2.25,2.25,2.25,2.25,2.2789,2.3021,2.3198,2.3522,2.3867,2.4199,2.4199,2.4199,2.4199,2.4199,2.4303,1.1932,1.1392,1.0786,1.0786,1.0532,1.0317,0.0,0.0,0.0,1.0582,1.0582,1.0873,1.1861,1.2661,1.3176,1.3171,1.3287,1.3348,1.3273,1.3524,1.3927,1.4533,1.4004,1.4414,1.6652,1.7389,1.8438,2.0149,1.9529,1.9904,2.1834,2.1625,2.1711,2.2311,2.1661,2.142,2.1699,2.0634,1.9812,1.9237,1.9403,1.8903,1.7811,1.807,1.8048,1.7811,1.7811,1.7811,1.7794,1.765,1.76,1.76,1.7752,1.7811,1.7811,1.7811,1.7811,1.7794,1.765,1.76,1.76,1.76,1.7532,1.7446,1.7319,1.7183,1.7158,1.7589,1.7537,1.7447,1.7735,1.7992,1.8154,1.7927,1.8091,1.8208,1.7927,1.8676,1.9543,2.0145,2.1082,2.1914,2.2399,2.2462,2.2462,2.2388,2.2388,2.2369,2.231,2.231,2.231,2.231,2.2349,2.2463,2.2669,2.25,2.2463,2.2704,2.2554,2.2536,2.2695,2.2814,2.315,2.3692,2.3765,2.3926,2.4199,2.4199,2.4199,2.4199,2.4247,2.4366,1.106,1.0718,1.0352,1.0352,1.0317,1.039,1.0829,0.0,1.1057,1.1547,0.0,1.1892,1.2798,0.0,0.0,1.3017,1.3576,1.3125,1.0555,1.3255,1.5389,1.5066,1.1278,1.0621,1.5484,1.7735,1.895,1.9082,1.9412,1.9909,2.0575,2.0786,2.0917,2.1005,2.0917,2.077,2.0575,2.0018,1.9482,1.8948,1.8796,1.8389,1.7811,1.807,1.8048,1.7811,1.7811,1.7811,1.776,1.7084,1.6826,1.6902,1.7549,1.7811,1.7811,1.7811,1.7811,1.7718,1.7041,1.6826,1.6826,1.6826,1.7394,1.7993,1.7394,1.7603,1.7993,1.7768,1.7721,1.7758,1.7789,1.7992,1.8187,1.8166,1.8351,1.8489,1.8208,1.8935,1.96,1.9451,2.025,2.1396,2.2855,2.3111,2.3005,2.2712,2.2652,2.2555,2.233,2.231,2.231,2.231,2.25,2.2678,2.2695,2.2678,2.2678,2.2695,2.2947,2.2981,2.2721,2.3268,2.3619,2.3692,2.3996,2.417,2.4199,2.4199,2.4199,2.419,2.4375,2.4559,1.1626,1.1172,1.0649,1.0649,1.0464,1.0356,1.0539,1.0797,1.1051,1.1282,0.0,0.0,0.0,0.0,0.0,0.0,1.3628,1.3315,1.2888,1.4545,1.4735,1.1849,1.2288,1.4031,1.7132,1.8408,1.9319,1.994,1.9323,1.9391,2.0564,2.0,2.0001,2.0788,2.0688,2.065,2.0689,1.9885,1.929,1.8964,1.8995,1.8662,1.8048,1.831,1.7965,1.7151,1.7151,1.6915,1.65,1.6187,1.6052,1.6086,1.6399,1.6525,1.6525,1.6525,1.6525,1.6483,1.6162,1.6144,1.6302,1.6695,1.7558,1.8344,1.7877,1.8059,1.8402,1.8267,1.8244,1.8229,1.807,1.8351,1.8594,1.827,1.8528,1.8715,1.829,1.8783,1.9339,1.9556,2.0162,2.1158,2.2795,2.2754,2.2606,2.2951,2.2996,2.2956,2.2841,2.2643,2.2616,2.279,2.2738,2.2864,2.3245,2.3093,2.3061,2.3268,2.3414,2.3423,2.33,2.3744,2.3996,2.3996,2.4122,2.4256,2.4375,2.4375,2.4436,2.4552,2.4512,2.4651,1.1738,1.1305,1.0959,1.1115,1.103,1.0979,1.1287,1.1583,1.1851,1.1999,1.2293,0.0,0.0,0.0,0.0,0.0,0.0,1.4014,1.4781,1.5404,1.4577,1.1327,1.4271,1.7085,1.8402,1.8773,1.9263,2.0069,1.9149,1.8257,1.7581,1.7315,1.8168,2.0323,2.0253,2.0239,2.0381,1.9652,1.9164,1.8887,1.9173,1.8946,1.8302,1.8307,1.7741,1.6785,1.6508,1.6086,1.5578,1.5384,1.5299,1.5282,1.5071,1.4995,1.5045,1.5443,1.5595,1.5589,1.5435,1.5491,1.5766,1.6495,1.7477,1.8359,1.8357,1.8531,1.8715,1.8715,1.8651,1.8556,1.8351,1.8651,1.8887,1.8508,1.8753,1.8966,1.8528,1.8771,1.9171,1.9512,1.991,2.0703,2.2382,2.2453,2.2517,2.323,2.3346,2.3291,2.3221,2.2996,2.2914,2.3165,2.3061,2.3165,2.3671,2.3468,2.3446,2.3683,2.3692,2.3744,2.3837,2.4074,2.4199,2.4199,2.4256,2.4357,2.4495,2.4561,2.4676,2.4846,2.4712,2.4752,1.0493,1.0656,1.1107,1.163,1.2133,1.2799,1.3779,1.3943,1.4044,1.4475,1.4507,1.4526,1.4968,0.0,0.0,0.0,0.0,0.0,0.0,1.5188,1.5873,1.6026,1.6653,1.7414,1.822,1.8614,1.8698,1.8397,1.893,1.6354,0.9638,1.1704,1.501,1.9219,1.9344,1.9251,1.9055,1.9223,1.9073,1.8613,1.909,1.9048,1.8559,1.7861,1.7364,1.7032,1.6064,1.5621,1.5536,1.4834,1.4528,1.4452,1.3743,1.3472,1.3642,1.5062,1.5595,1.5533,1.5011,1.4921,1.5167,1.6048,1.6959,1.7886,1.8714,1.8975,1.8993,1.8993,1.8789,1.8594,1.8594,1.8789,1.8993,1.8975,1.9134,1.9236,1.9018,1.915,1.9246,1.9071,1.9202,1.9858,2.1555,2.2465,2.3132,2.3605,2.3692,2.3575,2.3245,2.3189,2.3189,2.3189,2.3468,2.3671,2.3692,2.3692,2.3692,2.3692,2.3692,2.3846,2.417,2.419,2.4199,2.4199,2.4393,2.4495,2.4495,2.47,2.486,2.4989,2.4998,2.492,1.0752,1.0833,1.105,1.1246,1.2216,1.3112,1.3124,1.3803,1.441,1.4255,1.4373,1.4627,1.5036,0.0,0.0,0.0,0.0,0.0,0.0,1.6438,1.7036,1.696,1.732,1.7807,1.8445,1.8608,1.8744,1.8946,1.9382,1.4771,0.3603,1.2202,1.8031,1.9259,1.9305,1.9268,1.9189,1.9268,1.9218,1.9064,1.9101,1.8728,1.7984,1.7613,1.6756,1.5557,1.5226,1.4707,1.4124,1.3861,1.3768,1.3743,1.3506,1.3405,1.3464,1.3964,1.4212,1.4288,1.4373,1.4788,1.542,1.6374,1.7269,1.8091,1.8791,1.9093,1.9166,1.9035,1.9034,1.9024,1.8896,1.9034,1.9157,1.9035,1.915,1.9243,1.9035,1.9166,1.9392,1.973,1.9959,2.0638,2.2308,2.2822,2.3226,2.3926,2.4025,2.3996,2.3876,2.3671,2.3619,2.3846,2.3765,2.3795,2.4016,2.4025,2.4025,2.4025,2.4025,2.4074,2.4199,2.4199,2.4256,2.4393,2.447,2.4604,2.4831,2.4907,2.503,2.5203,2.5203,2.5172,1.0688,1.0979,1.1319,1.1529,1.2606,1.3649,1.363,1.4298,1.4869,1.4729,1.4855,1.5036,1.5292,1.5352,0.0,0.0,0.0,0.0,0.0,1.7411,1.767,1.7589,1.7805,1.809,1.8454,1.86,1.8902,1.9439,1.7445,1.3585,0.7538,1.302,1.7295,1.9336,1.9341,1.9305,1.9305,1.9305,1.9305,1.928,1.8884,1.8386,1.7823,1.7034,1.6088,1.499,1.4567,1.4022,1.347,1.3421,1.3405,1.3405,1.3405,1.3405,1.3405,1.3405,1.3534,1.3751,1.4087,1.4583,1.5278,1.6506,1.7248,1.7857,1.8815,1.9198,1.9274,1.9134,1.9189,1.9268,1.9134,1.9205,1.9268,1.9143,1.9214,1.9259,1.9134,1.9433,1.9829,2.0225,2.0657,2.1409,2.2767,2.2988,2.3281,2.408,2.4199,2.4199,2.4199,2.4016,2.3967,2.418,2.3996,2.3976,2.417,2.4199,2.4199,2.4199,2.4199,2.4199,2.4199,2.4199,2.4284,2.4495,2.4568,2.4747,2.5001,2.5067,2.5163,2.5293,2.5293,2.5293]}]]